Darstellungsparameter: Aktuell verwendete Einstellungen:
Skalierung der Graphiken ... ?
xyx+y,   Skalierungsfaktor:      Skalierung: Modus: x, Faktor: 1
Darstellungszeitraum ... ?
Vom - - bis: - -   Zeitraum: 29.11.2019 - 27.12.2019
Min/Max/Avg-Anzeige ... ?
Zeige MMA aktuell
Zeige MMA Monat
Zeige MMA alles
Zeige --A aktuell
Zeige --A Monat
Zeige --A alles
Keine MMA-Anzeige
MMA:
Average (ber die Originaldaten)
MMA-Basis: 29.11.2019 - 27.12.2019
Quicknavigation für Darstellung... ?
Tage:      1T, 2T, 3T, 5T -1T -2T -3T -5T +1T +2T +3T +5T
Wochen: 1W, 2W, 3W -1W -2W -3W +1W +2W +3W
Monate: 1M, 3M, 6M -1M -3M -6M +1M +3M +6M
Jahre:    1J, 3J, 5J, 10J -1J -3J -5J -10J +1J +3J +5J +10J
Nutze für die Darstellung ... ?
Originaldaten oder Mittelwerte auf ...
Stundenbasis Tagesbasis Wochenbasis
Monatsbasis Jahresbasis      Datenbasis: Original-Daten
Darstellen als:
Statistik (Auto) Statistik J:M      Darstellung:
Zur Graphik,    zurück zur Übersicht aller Sensoren.
 
Tabellarische Datenbersicht: ?
 
Sensor: Nr:Datum:Temp:Feuchte:
Aussen-T/F 1 29-11-2019 00:00:17 8.9 C 34 %
2 29-11-2019 00:10:17 8.7 C 36 %
3 29-11-2019 00:20:17 8.8 C 35 %
4 29-11-2019 00:30:17 8.7 C 36 %
5 29-11-2019 00:40:17 8.7 C 35 %
6 29-11-2019 00:50:17 8.6 C 35 %
7 29-11-2019 01:00:17 8.6 C 36 %
8 29-11-2019 01:10:17 8.5 C 37 %
9 29-11-2019 01:20:17 8.3 C 37 %
10 29-11-2019 01:30:17 8.3 C 36 %
11 29-11-2019 01:40:17 8.3 C 36 %
12 29-11-2019 01:50:17 8.1 C 39 %
13 29-11-2019 02:00:17 8.1 C 40 %
14 29-11-2019 02:10:17 8.1 C 40 %
15 29-11-2019 02:20:17 8.1 C 40 %
16 29-11-2019 02:30:17 8.1 C 40 %
17 29-11-2019 02:40:17 8.1 C 40 %
18 29-11-2019 02:50:17 8 C 40 %
19 29-11-2019 03:00:17 8 C 40 %
20 29-11-2019 03:10:17 8 C 40 %
21 29-11-2019 03:20:17 7.9 C 40 %
22 29-11-2019 03:30:17 7.8 C 40 %
23 29-11-2019 03:40:17 7.7 C 40 %
24 29-11-2019 03:50:17 7.6 C 40 %
25 29-11-2019 04:00:17 7.6 C 40 %
Sensor: Nr:Datum:Temp:Feuchte:
Aussen-T/F 26 29-11-2019 04:10:17 7.6 C 40 %
27 29-11-2019 04:20:17 7.6 C 40 %
28 29-11-2019 04:30:17 7.5 C 40 %
29 29-11-2019 04:40:17 7.5 C 40 %
30 29-11-2019 04:50:17 7.2 C 38 %
31 29-11-2019 05:00:17 6.8 C 34 %
32 29-11-2019 05:10:17 6.4 C 33 %
33 29-11-2019 05:20:17 6.2 C 34 %
34 29-11-2019 05:30:17 6.2 C 35 %
35 29-11-2019 05:40:18 6.1 C 36 %
36 29-11-2019 05:50:17 6 C 36 %
37 29-11-2019 06:00:17 6 C 38 %
38 29-11-2019 06:10:17 5.9 C 38 %
39 29-11-2019 06:20:17 5.9 C 38 %
40 29-11-2019 06:30:17 5.9 C 40 %
41 29-11-2019 06:40:17 5.9 C 40 %
42 29-11-2019 06:50:17 5.8 C 36 %
43 29-11-2019 07:00:17 5.7 C 35 %
44 29-11-2019 07:10:17 5.6 C 37 %
45 29-11-2019 07:20:17 5.4 C 37 %
46 29-11-2019 07:30:17 5.4 C 40 %
47 29-11-2019 07:40:17 5.4 C 37 %
48 29-11-2019 07:50:17 5.4 C 39 %
49 29-11-2019 08:00:17 5.3 C 40 %
50 29-11-2019 08:10:17 5.2 C 40 %
Sensor: Nr:Datum:Temp:Feuchte:
Aussen-T/F 51 29-11-2019 08:20:17 5.1 C 40 %
52 29-11-2019 08:30:17 5 C 40 %
53 29-11-2019 08:40:17 5 C 40 %
54 29-11-2019 08:50:17 5 C 39 %
55 29-11-2019 09:00:17 5 C 39 %
56 29-11-2019 09:10:17 5 C 39 %
57 29-11-2019 09:20:17 4.8 C 37 %
58 29-11-2019 09:30:17 4.6 C 37 %
59 29-11-2019 09:40:17 4.6 C 37 %
60 29-11-2019 09:50:17 4.7 C 36 %
61 29-11-2019 10:00:17 4.8 C 32 %
62 29-11-2019 10:10:17 5.1 C 31 %
63 29-11-2019 10:20:17 5.8 C 27 %
64 29-11-2019 10:30:17 5.9 C 29 %
65 29-11-2019 10:40:17 5.7 C 27 %
66 29-11-2019 10:50:17 5.4 C 28 %
67 29-11-2019 11:00:17 5.6 C 30 %
68 29-11-2019 11:10:17 5.9 C 26 %
69 29-11-2019 11:20:17 6 C 27 %
70 29-11-2019 11:30:17 6.4 C 26 %
71 29-11-2019 11:40:17 7 C 23 %
72 29-11-2019 11:50:17 7.3 C 21 %
73 29-11-2019 12:00:17 7.2 C 20 %
74 29-11-2019 12:10:17 7.2 C 20 %
75 29-11-2019 12:20:17 7.1 C 20 %
Sensor: Nr:Datum:Temp:Feuchte:
Aussen-T/F 76 29-11-2019 12:30:17 7.6 C 20 %
77 29-11-2019 12:40:17 7.2 C 20 %
78 29-11-2019 12:50:17 6.9 C 21 %
79 29-11-2019 13:00:17 6.6 C 21 %
80 29-11-2019 13:10:17 6.2 C 23 %
81 29-11-2019 13:20:17 5.9 C 25 %
82 29-11-2019 13:30:17 6.1 C 25 %
83 29-11-2019 13:40:17 6.1 C 25 %
84 29-11-2019 13:50:17 6.5 C 20 %
85 29-11-2019 14:00:17 6.5 C 20 %
86 29-11-2019 14:10:17 7 C 20 %
87 29-11-2019 14:20:17 7.3 C 20 %
88 29-11-2019 14:30:17 7.3 C 20 %
89 29-11-2019 14:40:17 6.9 C 20 %
90 29-11-2019 14:50:17 6.5 C 20 %
91 29-11-2019 15:00:17 7.3 C 20 %
92 29-11-2019 15:10:17 7.3 C 20 %
93 29-11-2019 15:20:17 7.2 C 20 %
94 29-11-2019 15:30:17 7.2 C 20 %
95 29-11-2019 15:40:17 7.2 C 20 %
96 29-11-2019 15:50:17 6.7 C 20 %
97 29-11-2019 16:00:17 6.4 C 20 %
98 29-11-2019 16:10:17 5.6 C 20 %
99 29-11-2019 16:20:17 6.2 C 20 %
100 29-11-2019 16:30:17 6 C 20 %
Sensor: Nr:Datum:Temp:Feuchte:
Aussen-T/F 101 29-11-2019 16:40:18 5.3 C 20 %
102 29-11-2019 16:50:17 5.3 C 20 %
103 29-11-2019 17:00:18 4.5 C 23 %
104 29-11-2019 17:10:18 4 C 26 %
105 29-11-2019 17:20:17 4 C 26 %
106 29-11-2019 17:30:18 3.9 C 27 %
107 29-11-2019 17:40:18 4 C 26 %
108 29-11-2019 17:50:17 3.8 C 27 %
109 29-11-2019 18:00:17 4.2 C 26 %
110 29-11-2019 18:10:18 4.6 C 25 %
111 29-11-2019 18:20:17 5 C 21 %
112 29-11-2019 18:30:17 5 C 21 %
113 29-11-2019 18:40:17 4.8 C 23 %
114 29-11-2019 18:50:17 4.7 C 26 %
115 29-11-2019 19:00:17 4.8 C 21 %
116 29-11-2019 19:10:17 4.8 C 21 %
117 29-11-2019 19:20:17 4.8 C 21 %
118 29-11-2019 19:30:17 4.4 C 25 %
119 29-11-2019 19:40:17 4.6 C 21 %
120 29-11-2019 19:50:17 4.4 C 25 %
121 29-11-2019 20:00:17 4 C 26 %
122 29-11-2019 20:10:17 4 C 26 %
123 29-11-2019 20:20:17 4.3 C 25 %
124 29-11-2019 20:30:17 4.7 C 23 %
125 29-11-2019 20:40:17 4 C 25 %
Sensor: Nr:Datum:Temp:Feuchte:
Aussen-T/F 126 29-11-2019 20:50:17 3.9 C 26 %
127 29-11-2019 21:00:17 3.8 C 28 %
128 29-11-2019 21:10:17 3.9 C 27 %
129 29-11-2019 21:20:17 3.8 C 27 %
130 29-11-2019 21:30:17 3.8 C 28 %
131 29-11-2019 21:40:17 3.9 C 28 %
132 29-11-2019 21:50:17 3.2 C 30 %
133 29-11-2019 22:00:17 3.3 C 29 %
134 29-11-2019 22:10:17 2.6 C 32 %
135 29-11-2019 22:20:17 2.1 C 35 %
136 29-11-2019 22:30:17 1.9 C 37 %
137 29-11-2019 22:40:17 1.7 C 40 %
138 29-11-2019 22:50:17 1.8 C 41 %
139 29-11-2019 23:00:17 1.5 C 38 %
140 29-11-2019 23:10:17 1.1 C 39 %
141 29-11-2019 23:20:17 1.3 C 41 %
142 29-11-2019 23:30:17 1.5 C 42 %
143 29-11-2019 23:40:17 1.6 C 41 %
144 29-11-2019 23:50:17 1.7 C 41 %
145 30-11-2019 00:00:17 1.9 C 40 %
146 30-11-2019 00:10:17 1.8 C 40 %
147 30-11-2019 00:20:17 1.8 C 40 %
148 30-11-2019 00:30:17 2 C 37 %
149 30-11-2019 00:40:17 1.7 C 37 %
150 30-11-2019 00:50:17 1.6 C 40 %
Sensor: Nr:Datum:Temp:Feuchte:
Aussen-T/F 151 30-11-2019 01:00:17 1.3 C 40 %
152 30-11-2019 01:10:17 1 C 40 %
153 30-11-2019 01:20:17 0.7 C 41 %
154 30-11-2019 01:30:17 0.5 C 42 %
155 30-11-2019 01:40:17 0.7 C 44 %
156 30-11-2019 01:50:17 0.5 C 43 %
157 30-11-2019 02:00:17 0.4 C 44 %
158 30-11-2019 02:10:17 0.9 C 45 %
159 30-11-2019 02:20:17 1.1 C 44 %
160 30-11-2019 02:30:17 1.2 C 44 %
161 30-11-2019 02:40:17 0.8 C 43 %
162 30-11-2019 02:50:17 0.8 C 43 %
163 30-11-2019 03:00:17 0.9 C 43 %
164 30-11-2019 03:10:17 0.7 C 43 %
165 30-11-2019 03:20:17 0.3 C 41 %
166 30-11-2019 03:30:17 0.5 C 44 %
167 30-11-2019 03:40:17 0.2 C 43 %
168 30-11-2019 03:50:17 0.6 C 44 %
169 30-11-2019 04:00:17 1 C 44 %
170 30-11-2019 04:10:17 1.3 C 43 %
171 30-11-2019 04:20:17 1.3 C 41 %
172 30-11-2019 04:30:17 1.4 C 40 %
173 30-11-2019 04:40:17 1.3 C 40 %
174 30-11-2019 04:50:17 1 C 38 %
175 30-11-2019 05:00:17 0.6 C 40 %
Sensor: Nr:Datum:Temp:Feuchte:
Aussen-T/F 176 30-11-2019 05:10:17 1.1 C 41 %
177 30-11-2019 05:20:17 0.8 C 40 %
178 30-11-2019 05:30:17 0.3 C 40 %
179 30-11-2019 05:40:17 -0.5 C 40 %
180 30-11-2019 05:50:17 -0.7 C 41 %
181 30-11-2019 06:00:17 -0.7 C 43 %
182 30-11-2019 06:10:17 -0.9 C 43 %
183 30-11-2019 06:20:17 -1 C 43 %
184 30-11-2019 06:30:17 -1.2 C 43 %
185 30-11-2019 06:40:17 -1.3 C 43 %
186 30-11-2019 06:50:17 -1.2 C 44 %
187 30-11-2019 07:00:17 -1.4 C 44 %
188 30-11-2019 07:10:17 -1.4 C 43 %
189 30-11-2019 07:20:17 -1.4 C 43 %
190 30-11-2019 07:30:17 -1.5 C 43 %
191 30-11-2019 07:40:17 -1.2 C 44 %
192 30-11-2019 07:50:17 -1.1 C 44 %
193 30-11-2019 08:00:17 -1 C 44 %
194 30-11-2019 08:10:17 -0.7 C 44 %
195 30-11-2019 08:20:17 -0.6 C 44 %
196 30-11-2019 08:30:17 -0.7 C 44 %
197 30-11-2019 08:40:17 -0.6 C 44 %
198 30-11-2019 08:50:17 -0.7 C 44 %
199 30-11-2019 09:00:17 -0.7 C 44 %
200 30-11-2019 09:10:17 -0.6 C 44 %
Sensor: Nr:Datum:Temp:Feuchte:
Aussen-T/F 201 30-11-2019 09:20:17 -0.7 C 44 %
202 30-11-2019 09:30:17 -0.7 C 44 %
203 30-11-2019 09:40:17 -0.6 C 44 %
204 30-11-2019 09:50:17 -0.3 C 44 %
205 30-11-2019 10:00:17 -0.3 C 44 %
206 30-11-2019 10:10:17 0 C 44 %
207 30-11-2019 10:20:17 0.1 C 43 %
208 30-11-2019 10:30:17 0.4 C 43 %
209 30-11-2019 10:40:17 0.5 C 43 %
210 30-11-2019 10:50:17 0.4 C 43 %
211 30-11-2019 11:00:18 0.5 C 42 %
212 30-11-2019 11:10:18 0.6 C 42 %
213 30-11-2019 11:20:17 0.6 C 42 %
214 30-11-2019 11:30:17 0.4 C 41 %
215 30-11-2019 11:40:17 0.6 C 41 %
216 30-11-2019 11:50:17 0.9 C 41 %
217 30-11-2019 12:00:17 1.1 C 40 %
218 30-11-2019 12:10:17 0.9 C 38 %
219 30-11-2019 12:20:17 1.3 C 39 %
220 30-11-2019 12:30:17 1.4 C 37 %
221 30-11-2019 12:40:17 1.4 C 36 %
222 30-11-2019 12:50:17 2.3 C 36 %
223 30-11-2019 13:00:17 2.4 C 36 %
224 30-11-2019 13:10:17 1.8 C 36 %
225 30-11-2019 13:20:17 2.2 C 36 %
Sensor: Nr:Datum:Temp:Feuchte:
Aussen-T/F 226 30-11-2019 13:30:17 2.1 C 36 %
227 30-11-2019 13:40:17 2.3 C 36 %
228 30-11-2019 13:50:17 2.3 C 36 %
229 30-11-2019 14:00:17 2 C 36 %
230 30-11-2019 14:10:17 2.1 C 38 %
231 30-11-2019 14:20:17 2.2 C 38 %
232 30-11-2019 14:30:17 2.2 C 38 %
233 30-11-2019 14:40:17 2.4 C 38 %
234 30-11-2019 14:50:17 2.2 C 37 %
235 30-11-2019 15:00:17 1.9 C 39 %
236 30-11-2019 15:10:17 1.8 C 40 %
237 30-11-2019 15:20:18 1.9 C 41 %
238 30-11-2019 15:30:17 1.8 C 41 %
239 30-11-2019 15:40:17 1.6 C 41 %
240 30-11-2019 15:50:17 1.7 C 42 %
241 30-11-2019 16:00:17 1.5 C 42 %
242 30-11-2019 16:10:17 1.5 C 42 %
243 30-11-2019 16:20:17 1.4 C 43 %
244 30-11-2019 16:30:17 1.3 C 43 %
245 30-11-2019 16:40:17 1.3 C 43 %
246 30-11-2019 16:50:17 1.1 C 43 %
247 30-11-2019 17:00:17 0.9 C 44 %
248 30-11-2019 17:10:17 0.9 C 44 %
249 30-11-2019 17:20:17 0.6 C 44 %
250 30-11-2019 17:30:17 0.6 C 44 %
Sensor: Nr:Datum:Temp:Feuchte:
Aussen-T/F 251 30-11-2019 17:40:17 0.6 C 44 %
252 30-11-2019 17:50:17 0.5 C 44 %
253 30-11-2019 18:00:17 0.4 C 44 %
254 30-11-2019 18:10:17 0.3 C 44 %
255 30-11-2019 18:20:17 0.3 C 44 %
256 30-11-2019 18:30:17 0.4 C 44 %
257 30-11-2019 18:40:17 0.4 C 44 %
258 30-11-2019 18:50:17 0.4 C 44 %
259 30-11-2019 19:00:17 0.2 C 44 %
260 30-11-2019 19:10:17 0 C 44 %
261 30-11-2019 19:20:17 0 C 44 %
262 30-11-2019 19:30:17 0 C 44 %
263 30-11-2019 19:40:17 -0.1 C 44 %
264 30-11-2019 19:50:17 -0.1 C 44 %
265 30-11-2019 20:00:17 -0.2 C 44 %
266 30-11-2019 20:10:18 -0.2 C 44 %
267 30-11-2019 20:20:18 -0.2 C 44 %
268 30-11-2019 20:30:17 -0.2 C 44 %
269 30-11-2019 20:40:17 -0.4 C 44 %
270 30-11-2019 20:50:17 -0.3 C 44 %
271 30-11-2019 21:00:17 -0.2 C 44 %
272 30-11-2019 21:10:17 -0.3 C 44 %
273 30-11-2019 21:20:17 -0.3 C 44 %
274 30-11-2019 21:30:17 -0.4 C 44 %
275 30-11-2019 21:40:17 -0.2 C 44 %
Sensor: Nr:Datum:Temp:Feuchte:
Aussen-T/F 276 30-11-2019 21:50:17 -0.3 C 44 %
277 30-11-2019 22:00:17 -0.3 C 44 %
278 30-11-2019 22:10:17 -0.3 C 44 %
279 30-11-2019 22:20:17 -0.3 C 44 %
280 30-11-2019 22:30:17 -0.1 C 44 %
281 30-11-2019 22:40:17 0 C 44 %
282 30-11-2019 22:50:17 0 C 44 %
283 30-11-2019 23:00:17 0 C 44 %
284 30-11-2019 23:10:17 0 C 44 %
285 30-11-2019 23:20:17 -0.1 C 44 %
286 30-11-2019 23:30:17 -0.4 C 43 %
287 30-11-2019 23:40:17 -0.5 C 43 %
288 30-11-2019 23:50:17 -0.4 C 43 %
289 01-12-2019 00:00:17 -0.2 C 43 %
290 01-12-2019 00:10:17 -0.3 C 43 %
291 01-12-2019 00:20:17 -0.3 C 43 %
292 01-12-2019 00:30:17 -0.3 C 43 %
293 01-12-2019 00:40:17 -0.3 C 43 %
294 01-12-2019 00:50:18 -0.2 C 43 %
295 01-12-2019 01:00:17 0 C 44 %
296 01-12-2019 01:10:17 -0.1 C 43 %
297 01-12-2019 01:20:17 -0.1 C 43 %
298 01-12-2019 01:30:17 -0.1 C 43 %
299 01-12-2019 01:40:17 -0.1 C 43 %
300 01-12-2019 01:50:17 -0.2 C 43 %
Sensor: Nr:Datum:Temp:Feuchte:
Aussen-T/F 301 01-12-2019 02:00:17 -0.1 C 43 %
302 01-12-2019 02:10:17 -0.2 C 43 %
303 01-12-2019 02:20:17 -0.2 C 43 %
304 01-12-2019 02:30:17 -0.2 C 43 %
305 01-12-2019 02:40:17 -0.3 C 43 %
306 01-12-2019 02:50:17 -0.2 C 43 %
307 01-12-2019 03:00:17 -0.3 C 43 %
308 01-12-2019 03:10:17 -0.3 C 43 %
309 01-12-2019 03:20:17 -0.4 C 43 %
310 01-12-2019 03:30:17 -0.4 C 43 %
311 01-12-2019 03:40:17 -0.4 C 43 %
312 01-12-2019 03:50:17 -0.4 C 43 %
313 01-12-2019 04:00:17 -0.4 C 43 %
314 01-12-2019 04:10:17 -0.8 C 42 %
315 01-12-2019 04:20:17 -1.1 C 42 %
316 01-12-2019 04:30:17 -1.3 C 42 %
317 01-12-2019 04:40:17 -0.9 C 43 %
318 01-12-2019 04:50:17 -0.9 C 43 %
319 01-12-2019 05:00:17 -0.7 C 43 %
320 01-12-2019 05:10:17 -0.8 C 43 %
321 01-12-2019 05:20:17 -0.9 C 43 %
322 01-12-2019 05:30:17 -1.1 C 43 %
323 01-12-2019 05:40:17 -1 C 43 %
324 01-12-2019 05:50:17 -0.9 C 43 %
325 01-12-2019 06:00:17 -1 C 43 %
Sensor: Nr:Datum:Temp:Feuchte:
Aussen-T/F 326 01-12-2019 06:10:17 -1.1 C 43 %
327 01-12-2019 06:20:17 -1.3 C 43 %
328 01-12-2019 06:30:17 -1 C 43 %
329 01-12-2019 06:40:17 -0.9 C 43 %
330 01-12-2019 06:50:17 -0.9 C 43 %
331 01-12-2019 07:00:17 -0.8 C 43 %
332 01-12-2019 07:10:17 -0.7 C 43 %
333 01-12-2019 07:20:17 -0.5 C 43 %
334 01-12-2019 07:30:17 -0.5 C 43 %
335 01-12-2019 07:40:17 -0.3 C 43 %
336 01-12-2019 07:50:17 -0.2 C 43 %
337 01-12-2019 08:00:17 -0.1 C 43 %
338 01-12-2019 08:10:17 -0.1 C 43 %
339 01-12-2019 08:20:17 -0.2 C 43 %
340 01-12-2019 08:30:17 -0.2 C 43 %
341 01-12-2019 08:40:17 -0.2 C 43 %
342 01-12-2019 08:50:17 0 C 43 %
343 01-12-2019 09:00:17 0 C 42 %
344 01-12-2019 09:10:17 0.2 C 42 %
345 01-12-2019 09:20:17 0.1 C 42 %
346 01-12-2019 09:30:17 0.1 C 42 %
347 01-12-2019 09:40:17 0.2 C 41 %
348 01-12-2019 09:50:17 0.3 C 41 %
349 01-12-2019 10:00:17 0.5 C 41 %
350 01-12-2019 10:10:17 0.6 C 41 %
Sensor: Nr:Datum:Temp:Feuchte:
Aussen-T/F 351 01-12-2019 10:20:17 0.7 C 40 %
352 01-12-2019 10:30:17 0.8 C 39 %
353 01-12-2019 10:40:17 1 C 38 %
354 01-12-2019 10:50:17 1.1 C 37 %
355 01-12-2019 11:00:17 1.4 C 36 %
356 01-12-2019 11:10:17 1.9 C 34 %
357 01-12-2019 11:20:17 2.1 C 32 %
358 01-12-2019 11:30:17 2.7 C 30 %
359 01-12-2019 11:40:17 3 C 27 %
360 01-12-2019 11:50:17 2.9 C 20 %
361 01-12-2019 12:00:17 3 C 21 %
362 01-12-2019 12:10:17 3.1 C 20 %
363 01-12-2019 12:20:17 3.3 C 20 %
364 01-12-2019 12:30:18 3.3 C 20 %
365 01-12-2019 12:40:18 3.3 C 20 %
366 01-12-2019 12:50:18 3.4 C 20 %
367 01-12-2019 13:00:17 3.3 C 20 %
368 01-12-2019 13:10:17 3.4 C 20 %
369 01-12-2019 13:20:18 3.5 C 20 %
370 01-12-2019 13:30:18 3.5 C 20 %
371 01-12-2019 13:40:18 3.6 C 20 %
372 01-12-2019 13:50:17 3.8 C 20 %
373 01-12-2019 14:00:17 3.9 C 20 %
374 01-12-2019 14:10:18 3.9 C 20 %
375 01-12-2019 14:20:18 3.7 C 20 %
Sensor: Nr:Datum:Temp:Feuchte:
Aussen-T/F 376 01-12-2019 14:30:17 3.7 C 20 %
377 01-12-2019 14:40:17 3.6 C 20 %
378 01-12-2019 14:50:17 3.6 C 20 %
379 01-12-2019 15:00:17 3.5 C 20 %
380 01-12-2019 15:10:17 3.3 C 20 %
381 01-12-2019 15:20:17 3.2 C 21 %
382 01-12-2019 15:30:17 3 C 20 %
383 01-12-2019 15:40:17 3 C 21 %
384 01-12-2019 15:50:17 2.7 C 25 %
385 01-12-2019 16:00:17 2.6 C 25 %
386 01-12-2019 16:10:17 2.5 C 25 %
387 01-12-2019 16:20:17 2.4 C 25 %
388 01-12-2019 16:30:18 2.4 C 25 %
389 01-12-2019 16:40:18 2.2 C 25 %
390 01-12-2019 16:50:18 2.2 C 25 %
391 01-12-2019 17:00:18 2.2 C 25 %
392 01-12-2019 17:10:18 2.2 C 25 %
393 01-12-2019 17:20:17 2.3 C 25 %
394 01-12-2019 17:30:17 2.3 C 25 %
395 01-12-2019 17:40:17 2.3 C 25 %
396 01-12-2019 17:50:17 2.3 C 25 %
397 01-12-2019 18:00:17 2.3 C 25 %
398 01-12-2019 18:10:17 2.3 C 25 %
399 01-12-2019 18:20:17 2.3 C 25 %
400 01-12-2019 18:30:17 2.3 C 25 %
Sensor: Nr:Datum:Temp:Feuchte:
Aussen-T/F 401 01-12-2019 18:40:17 2.3 C 25 %
402 01-12-2019 18:50:17 2.3 C 23 %
403 01-12-2019 19:00:17 2.3 C 23 %
404 01-12-2019 19:10:18 2.4 C 25 %
405 01-12-2019 19:20:17 2.3 C 25 %
406 01-12-2019 19:30:17 2.3 C 25 %
407 01-12-2019 19:40:17 2.3 C 25 %
408 01-12-2019 19:50:17 2.2 C 26 %
409 01-12-2019 20:00:17 2.5 C 25 %
410 01-12-2019 20:10:17 2.2 C 25 %
411 01-12-2019 20:20:17 2.1 C 25 %
412 01-12-2019 20:30:18 2.1 C 25 %
413 01-12-2019 20:40:18 2.1 C 25 %
414 01-12-2019 20:50:17 2 C 27 %
415 01-12-2019 21:00:17 1.9 C 27 %
416 01-12-2019 21:10:17 1.8 C 28 %
417 01-12-2019 21:20:17 1.6 C 30 %
418 01-12-2019 21:30:18 1.5 C 29 %
419 01-12-2019 21:40:18 1.6 C 28 %
420 01-12-2019 21:50:17 1.6 C 28 %
421 01-12-2019 22:00:17 1.5 C 29 %
422 01-12-2019 22:10:17 1.4 C 29 %
423 01-12-2019 22:20:17 1.4 C 30 %
424 01-12-2019 22:30:18 1.3 C 28 %
425 01-12-2019 22:40:18 1.2 C 29 %
Sensor: Nr:Datum:Temp:Feuchte:
Aussen-T/F 426 01-12-2019 22:50:17 1.1 C 29 %
427 01-12-2019 23:00:17 0.8 C 30 %
428 01-12-2019 23:10:17 0.8 C 30 %
429 01-12-2019 23:20:18 0.7 C 30 %
430 01-12-2019 23:30:17 0.5 C 32 %
431 01-12-2019 23:40:17 0.3 C 33 %
432 01-12-2019 23:50:17 0.2 C 33 %
433 02-12-2019 00:00:17 0.1 C 33 %
434 02-12-2019 00:10:17 0.2 C 33 %
435 02-12-2019 00:20:17 0.3 C 32 %
436 02-12-2019 00:30:17 0.3 C 32 %
437 02-12-2019 00:40:17 0.2 C 32 %
438 02-12-2019 00:50:18 0.2 C 35 %
439 02-12-2019 01:00:17 0.1 C 36 %
440 02-12-2019 01:10:17 0 C 38 %
441 02-12-2019 01:20:17 -0.2 C 36 %
442 02-12-2019 01:30:17 0.2 C 34 %
443 02-12-2019 01:40:17 -0.2 C 35 %
444 02-12-2019 01:50:17 -0.9 C 35 %
445 02-12-2019 02:00:18 -0.9 C 37 %
446 02-12-2019 02:10:18 -0.9 C 37 %
447 02-12-2019 02:20:17 -0.5 C 37 %
448 02-12-2019 02:30:17 -1 C 36 %
449 02-12-2019 02:40:17 -1.1 C 37 %
450 02-12-2019 02:50:17 -1.1 C 36 %
Sensor: Nr:Datum:Temp:Feuchte:
Aussen-T/F 451 02-12-2019 03:00:17 -1 C 37 %
452 02-12-2019 03:10:17 -1.2 C 38 %
453 02-12-2019 03:20:17 -1.3 C 37 %
454 02-12-2019 03:30:18 -1.3 C 38 %
455 02-12-2019 03:40:18 -1.4 C 37 %
456 02-12-2019 03:50:17 -1.4 C 37 %
457 02-12-2019 04:00:18 -1.7 C 39 %
458 02-12-2019 04:10:18 -1.4 C 40 %
459 02-12-2019 04:20:17 -1.1 C 40 %
460 02-12-2019 04:30:17 -1 C 40 %
461 02-12-2019 04:40:17 -0.8 C 36 %
462 02-12-2019 04:50:17 -1.1 C 37 %
463 02-12-2019 05:00:17 -1.4 C 40 %
464 02-12-2019 05:10:17 -1.1 C 40 %
465 02-12-2019 05:20:17 -1.2 C 39 %
466 02-12-2019 05:30:17 -1.6 C 40 %
467 02-12-2019 05:40:17 -1.4 C 41 %
468 02-12-2019 05:50:17 -1.3 C 42 %
469 02-12-2019 06:00:17 -1.2 C 41 %
470 02-12-2019 06:10:17 -1.3 C 39 %
471 02-12-2019 06:20:17 -1.2 C 39 %
472 02-12-2019 06:30:17 -1.4 C 38 %
473 02-12-2019 06:40:17 -1.4 C 40 %
474 02-12-2019 06:50:17 -1.8 C 37 %
475 02-12-2019 07:00:17 -2.4 C 38 %
Sensor: Nr:Datum:Temp:Feuchte:
Aussen-T/F 476 02-12-2019 07:10:17 -2.6 C 40 %
477 02-12-2019 07:20:17 -2.9 C 40 %
478 02-12-2019 07:30:17 -2.7 C 42 %
479 02-12-2019 07:40:17 -2.6 C 42 %
480 02-12-2019 07:50:17 -2.4 C 43 %
481 02-12-2019 08:00:17 -1.9 C 45 %
482 02-12-2019 08:10:18 -1.6 C 44 %
483 02-12-2019 08:20:17 -1.3 C 44 %
484 02-12-2019 08:30:17 -1 C 43 %
485 02-12-2019 08:40:17 -0.7 C 43 %
486 02-12-2019 08:50:17 -0.5 C 42 %
487 02-12-2019 09:00:17 -0.5 C 40 %
488 02-12-2019 09:10:17 -0.4 C 38 %
489 02-12-2019 09:20:17 -0.4 C 36 %
490 02-12-2019 09:30:17 -0.4 C 36 %
491 02-12-2019 09:40:17 0 C 36 %
492 02-12-2019 09:50:17 0 C 35 %
493 02-12-2019 10:00:17 0.1 C 35 %
494 02-12-2019 10:10:17 0.1 C 34 %
495 02-12-2019 10:20:17 0.2 C 35 %
496 02-12-2019 10:30:17 0.5 C 36 %
497 02-12-2019 10:40:17 1 C 31 %
498 02-12-2019 10:50:17 0.8 C 31 %
499 02-12-2019 11:00:17 1.2 C 30 %
500 02-12-2019 11:10:17 1.1 C 30 %
Sensor: Nr:Datum:Temp:Feuchte:
Aussen-T/F 501 02-12-2019 11:20:17 1.2 C 30 %
502 02-12-2019 11:30:17 0.9 C 31 %
503 02-12-2019 11:40:18 1 C 31 %
504 02-12-2019 11:50:17 0.8 C 32 %
505 02-12-2019 12:00:18 1.6 C 31 %
506 02-12-2019 12:10:18 2.3 C 27 %
507 02-12-2019 12:20:17 2.8 C 25 %
508 02-12-2019 12:30:17 3.1 C 26 %
509 02-12-2019 12:40:17 3 C 25 %
510 02-12-2019 12:50:18 3.2 C 26 %
511 02-12-2019 13:00:17 3.2 C 26 %
512 02-12-2019 13:10:17 3.5 C 25 %
513 02-12-2019 13:20:17 3.9 C 25 %
514 02-12-2019 13:30:17 3.9 C 25 %
515 02-12-2019 13:40:17 3.8 C 25 %
516 02-12-2019 13:50:17 3.6 C 25 %
517 02-12-2019 14:00:17 4 C 26 %
518 02-12-2019 14:10:17 3.7 C 28 %
519 02-12-2019 14:20:17 3.7 C 30 %
520 02-12-2019 14:30:17 4.1 C 27 %
521 02-12-2019 14:40:17 4.3 C 27 %
522 02-12-2019 14:50:17 4.5 C 27 %
523 02-12-2019 15:00:18 4.3 C 28 %
524 02-12-2019 15:10:18 4.3 C 29 %
525 02-12-2019 15:20:17 4.7 C 27 %
Sensor: Nr:Datum:Temp:Feuchte:
Aussen-T/F 526 02-12-2019 15:30:17 4.4 C 27 %
527 02-12-2019 15:40:17 4.1 C 31 %
528 02-12-2019 15:50:17 3.9 C 36 %
529 02-12-2019 16:00:18 3.7 C 37 %
530 02-12-2019 16:10:18 3.6 C 37 %
531 02-12-2019 16:20:17 3.5 C 40 %
532 02-12-2019 16:30:17 3.5 C 38 %
533 02-12-2019 16:40:17 3.5 C 35 %
534 02-12-2019 16:50:17 3.5 C 35 %
535 02-12-2019 17:00:17 3.3 C 36 %
536 02-12-2019 17:10:17 3.2 C 39 %
537 02-12-2019 17:20:17 3.2 C 36 %
538 02-12-2019 17:30:18 3.3 C 36 %
539 02-12-2019 17:40:18 3.4 C 35 %
540 02-12-2019 17:50:17 3.3 C 35 %
541 02-12-2019 18:01:17 3.1 C 36 %
542 02-12-2019 18:11:17 3.2 C 37 %
543 02-12-2019 18:21:17 3.2 C 36 %
544 02-12-2019 18:30:17 3 C 36 %
545 02-12-2019 18:40:17 2.5 C 40 %
546 02-12-2019 18:50:17 2.2 C 40 %
547 02-12-2019 19:00:17 2.1 C 42 %
548 02-12-2019 19:10:17 2.7 C 43 %
549 02-12-2019 19:21:17 2.7 C 42 %
550 02-12-2019 19:30:17 2.7 C 41 %
Sensor: Nr:Datum:Temp:Feuchte:
Aussen-T/F 551 02-12-2019 19:40:17 2.9 C 42 %
552 02-12-2019 19:51:17 2.9 C 42 %
553 02-12-2019 20:01:17 2.9 C 39 %
554 02-12-2019 20:11:17 2.8 C 38 %
555 02-12-2019 20:21:17 2.9 C 37 %
556 02-12-2019 20:31:17 2.9 C 38 %
557 02-12-2019 20:40:17 2.8 C 40 %
558 02-12-2019 20:51:17 2.7 C 42 %
559 02-12-2019 21:00:17 2.7 C 42 %
560 02-12-2019 21:10:17 2.7 C 42 %
561 02-12-2019 21:21:17 2.7 C 42 %
562 02-12-2019 21:30:18 2.7 C 42 %
563 02-12-2019 21:40:18 2.6 C 41 %
564 02-12-2019 21:51:17 2.6 C 42 %
565 02-12-2019 22:01:17 2.6 C 41 %
566 02-12-2019 22:11:17 2.6 C 41 %
567 02-12-2019 22:21:17 2.6 C 41 %
568 02-12-2019 22:30:18 2.5 C 40 %
569 02-12-2019 22:40:18 2.5 C 41 %
570 02-12-2019 22:51:17 2.4 C 41 %
571 02-12-2019 23:01:17 2.5 C 41 %
572 02-12-2019 23:11:17 2.4 C 42 %
573 02-12-2019 23:21:17 2.5 C 42 %
574 02-12-2019 23:31:17 2.5 C 42 %
575 02-12-2019 23:41:17 2.5 C 42 %
Sensor: Nr:Datum:Temp:Feuchte:
Aussen-T/F 576 02-12-2019 23:50:18 2.5 C 42 %
577 03-12-2019 00:01:17 2.5 C 42 %
578 03-12-2019 00:11:17 2.5 C 42 %
579 03-12-2019 00:21:17 2.5 C 41 %
580 03-12-2019 00:30:18 2.5 C 41 %
581 03-12-2019 00:40:18 2.6 C 41 %
582 03-12-2019 00:51:17 2.6 C 41 %
583 03-12-2019 01:01:18 2.6 C 41 %
584 03-12-2019 01:11:18 2.6 C 41 %
585 03-12-2019 01:21:17 2.7 C 41 %
586 03-12-2019 01:31:17 2.7 C 41 %
587 03-12-2019 01:41:17 2.7 C 42 %
588 03-12-2019 01:51:17 2.7 C 42 %
589 03-12-2019 02:01:17 2.7 C 42 %
590 03-12-2019 02:11:17 2.8 C 42 %
591 03-12-2019 02:21:17 2.8 C 42 %
592 03-12-2019 02:31:17 2.8 C 42 %
593 03-12-2019 02:41:17 2.9 C 42 %
594 03-12-2019 02:51:17 2.8 C 42 %
595 03-12-2019 03:01:17 2.8 C 42 %
596 03-12-2019 03:11:17 2.8 C 42 %
597 03-12-2019 03:21:17 2.8 C 42 %
598 03-12-2019 03:31:17 2.9 C 42 %
599 03-12-2019 03:41:17 3 C 42 %
600 03-12-2019 03:51:17 3 C 42 %
Sensor: Nr:Datum:Temp:Feuchte:
Aussen-T/F 601 03-12-2019 04:01:17 3 C 42 %
602 03-12-2019 04:11:17 3 C 42 %
603 03-12-2019 04:21:17 3 C 42 %
604 03-12-2019 04:31:17 3.1 C 42 %
605 03-12-2019 04:41:17 3.1 C 42 %
606 03-12-2019 04:51:17 3.1 C 42 %
607 03-12-2019 05:01:17 3.1 C 42 %
608 03-12-2019 05:11:17 3.1 C 42 %
609 03-12-2019 05:21:17 3.1 C 42 %
610 03-12-2019 05:31:17 3.2 C 42 %
611 03-12-2019 05:41:17 3.2 C 41 %
612 03-12-2019 05:51:17 3.2 C 41 %
613 03-12-2019 06:01:18 3.2 C 41 %
614 03-12-2019 06:11:18 3.2 C 41 %
615 03-12-2019 06:21:17 3.2 C 41 %
616 03-12-2019 06:31:17 3.3 C 41 %
617 03-12-2019 06:41:17 3.3 C 41 %
618 03-12-2019 06:51:18 3.3 C 41 %
619 03-12-2019 07:01:17 3.3 C 41 %
620 03-12-2019 07:11:17 3.3 C 41 %
621 03-12-2019 07:21:17 3.3 C 41 %
622 03-12-2019 07:31:17 3.2 C 41 %
623 03-12-2019 07:41:17 3.3 C 41 %
624 03-12-2019 07:51:17 3.3 C 42 %
625 03-12-2019 08:01:17 3.3 C 42 %
Sensor: Nr:Datum:Temp:Feuchte:
Aussen-T/F 626 03-12-2019 08:11:17 3.4 C 42 %
627 03-12-2019 08:21:17 3.3 C 42 %
628 03-12-2019 08:31:17 3.4 C 42 %
629 03-12-2019 08:41:17 3.4 C 41 %
630 03-12-2019 08:51:17 3.4 C 41 %
631 03-12-2019 09:01:17 3.5 C 42 %
632 03-12-2019 09:11:17 3.5 C 42 %
633 03-12-2019 09:21:17 3.5 C 41 %
634 03-12-2019 09:31:17 3.6 C 41 %
635 03-12-2019 09:41:17 3.6 C 41 %
636 03-12-2019 09:51:17 3.7 C 41 %
637 03-12-2019 10:01:17 3.7 C 41 %
638 03-12-2019 10:11:17 3.8 C 41 %
639 03-12-2019 10:21:17 3.8 C 41 %
640 03-12-2019 10:31:17 3.8 C 41 %
641 03-12-2019 10:41:17 4.1 C 40 %
642 03-12-2019 10:51:17 4.1 C 40 %
643 03-12-2019 11:01:18 4.3 C 39 %
644 03-12-2019 11:11:18 4.3 C 37 %
645 03-12-2019 11:21:17 4.4 C 37 %
646 03-12-2019 11:31:17 4.6 C 37 %
647 03-12-2019 11:41:17 4.6 C 37 %
648 03-12-2019 11:51:17 4.7 C 37 %
649 03-12-2019 12:01:17 4.7 C 37 %
650 03-12-2019 12:11:17 4.9 C 35 %
Sensor: Nr:Datum:Temp:Feuchte:
Aussen-T/F 651 03-12-2019 12:21:17 5 C 34 %
652 03-12-2019 12:31:17 5 C 35 %
653 03-12-2019 12:41:17 5.2 C 35 %
654 03-12-2019 12:51:18 5.3 C 34 %
655 03-12-2019 13:01:17 5.6 C 34 %
656 03-12-2019 13:11:17 5.8 C 33 %
657 03-12-2019 13:21:17 5.8 C 32 %
658 03-12-2019 13:31:17 5.7 C 32 %
659 03-12-2019 13:41:17 5.9 C 32 %
660 03-12-2019 13:51:18 6.1 C 31 %
661 03-12-2019 14:01:17 6.1 C 31 %
662 03-12-2019 14:11:17 6.2 C 31 %
663 03-12-2019 14:21:17 6.1 C 31 %
664 03-12-2019 14:31:17 6.3 C 31 %
665 03-12-2019 14:41:17 6.2 C 30 %
666 03-12-2019 14:51:18 6.4 C 31 %
667 03-12-2019 15:01:17 6.2 C 30 %
668 03-12-2019 15:11:17 6.3 C 31 %
669 03-12-2019 15:21:17 6.3 C 31 %
670 03-12-2019 15:31:17 6.2 C 31 %
671 03-12-2019 15:41:17 6.1 C 32 %
672 03-12-2019 15:51:17 6 C 33 %
673 03-12-2019 16:01:17 5.7 C 36 %
674 03-12-2019 16:11:17 5.6 C 39 %
675 03-12-2019 16:21:17 5.4 C 40 %
Sensor: Nr:Datum:Temp:Feuchte:
Aussen-T/F 676 03-12-2019 16:31:18 5.3 C 41 %
677 03-12-2019 16:41:18 5.2 C 41 %
678 03-12-2019 16:51:17 5.2 C 41 %
679 03-12-2019 17:01:18 5.1 C 41 %
680 03-12-2019 17:11:18 5.1 C 41 %
681 03-12-2019 17:21:17 5.1 C 41 %
682 03-12-2019 17:31:17 5 C 41 %
683 03-12-2019 17:41:17 5 C 41 %
684 03-12-2019 17:51:17 5 C 41 %
685 03-12-2019 18:01:18 4.8 C 41 %
686 03-12-2019 18:11:18 4.7 C 40 %
687 03-12-2019 18:21:17 4.7 C 40 %
688 03-12-2019 18:31:18 4.7 C 40 %
689 03-12-2019 18:41:18 4.7 C 40 %
690 03-12-2019 18:51:17 4.7 C 40 %
691 03-12-2019 19:01:17 4.7 C 40 %
692 03-12-2019 19:11:17 4.6 C 39 %
693 03-12-2019 19:21:17 4.6 C 38 %
694 03-12-2019 19:31:17 4.6 C 38 %
695 03-12-2019 19:41:17 4.4 C 37 %
696 03-12-2019 19:51:17 4.3 C 38 %
697 03-12-2019 20:01:17 4.3 C 39 %
698 03-12-2019 20:11:17 4.3 C 38 %
699 03-12-2019 20:21:18 4.2 C 37 %
700 03-12-2019 20:31:17 4.2 C 38 %
Sensor: Nr:Datum:Temp:Feuchte:
Aussen-T/F 701 03-12-2019 20:41:18 4.1 C 39 %
702 03-12-2019 20:51:17 3.9 C 40 %
703 03-12-2019 21:01:17 3.9 C 41 %
704 03-12-2019 21:11:17 4 C 40 %
705 03-12-2019 21:21:17 4 C 40 %
706 03-12-2019 21:31:17 3.8 C 40 %
707 03-12-2019 21:41:17 3.5 C 40 %
708 03-12-2019 21:51:17 3.3 C 40 %
709 03-12-2019 22:01:17 2.9 C 41 %
710 03-12-2019 22:11:17 2.8 C 42 %
711 03-12-2019 22:21:18 2.8 C 42 %
712 03-12-2019 22:31:18 3.3 C 42 %
713 03-12-2019 22:41:18 3.5 C 40 %
714 03-12-2019 22:51:17 3.2 C 38 %
715 03-12-2019 23:01:18 2.6 C 39 %
716 03-12-2019 23:11:18 2.5 C 41 %
717 03-12-2019 23:21:17 2.5 C 41 %
718 03-12-2019 23:31:17 2.2 C 40 %
719 03-12-2019 23:41:17 2.8 C 40 %
720 03-12-2019 23:51:17 2.6 C 38 %
721 04-12-2019 00:01:18 2.3 C 39 %
722 04-12-2019 00:11:18 1.7 C 41 %
723 04-12-2019 00:21:17 1.3 C 42 %
724 04-12-2019 00:31:17 0.9 C 43 %
725 04-12-2019 00:41:17 0.4 C 43 %
Sensor: Nr:Datum:Temp:Feuchte:
Aussen-T/F 726 04-12-2019 00:51:17 0.6 C 45 %
727 04-12-2019 01:01:18 0.2 C 44 %
728 04-12-2019 01:11:18 0.2 C 45 %
729 04-12-2019 01:21:17 0 C 44 %
730 04-12-2019 01:31:17 -0.1 C 45 %
731 04-12-2019 01:41:17 0.1 C 45 %
732 04-12-2019 01:51:18 -0.3 C 45 %
733 04-12-2019 02:01:17 -0.3 C 45 %
734 04-12-2019 02:11:17 -0.2 C 45 %
735 04-12-2019 02:21:17 -0.5 C 45 %
736 04-12-2019 02:31:18 -0.4 C 45 %
737 04-12-2019 02:41:18 0.1 C 45 %
738 04-12-2019 02:51:17 0.3 C 45 %
739 04-12-2019 03:01:18 0.6 C 45 %
740 04-12-2019 03:11:18 0.9 C 45 %
741 04-12-2019 03:21:17 0.9 C 45 %
742 04-12-2019 03:31:17 1 C 44 %
743 04-12-2019 03:41:17 1 C 44 %
744 04-12-2019 03:51:17 1 C 44 %
745 04-12-2019 04:01:18 0.8 C 45 %
746 04-12-2019 04:11:18 0.9 C 45 %
747 04-12-2019 04:21:17 0.8 C 45 %
748 04-12-2019 04:31:17 0.8 C 45 %
749 04-12-2019 04:41:17 0.8 C 45 %
750 04-12-2019 04:51:17 0.8 C 45 %
Sensor: Nr:Datum:Temp:Feuchte:
Aussen-T/F 751 04-12-2019 05:01:17 0.8 C 45 %
752 04-12-2019 05:11:17 0.8 C 44 %
753 04-12-2019 05:21:17 0.8 C 44 %
754 04-12-2019 05:31:17 1 C 43 %
755 04-12-2019 05:41:17 1 C 43 %
756 04-12-2019 05:51:18 1 C 43 %
757 04-12-2019 06:01:17 1 C 43 %
758 04-12-2019 06:11:17 1.1 C 43 %
759 04-12-2019 06:21:17 1.2 C 43 %
760 04-12-2019 06:31:17 1.2 C 43 %
761 04-12-2019 06:41:18 1.2 C 43 %
762 04-12-2019 06:51:17 1.2 C 43 %
763 04-12-2019 07:01:17 1.1 C 43 %
764 04-12-2019 07:11:17 1.1 C 43 %
765 04-12-2019 07:21:18 1.1 C 43 %
766 04-12-2019 07:31:17 1 C 43 %
767 04-12-2019 07:41:17 0.9 C 44 %
768 04-12-2019 07:51:17 1 C 43 %
769 04-12-2019 08:01:17 0.9 C 44 %
770 04-12-2019 08:11:17 0.9 C 44 %
771 04-12-2019 08:21:17 0.9 C 44 %
772 04-12-2019 08:31:17 0.9 C 44 %
773 04-12-2019 08:41:17 1 C 42 %
774 04-12-2019 08:51:17 1 C 42 %
775 04-12-2019 09:01:18 1 C 42 %
Sensor: Nr:Datum:Temp:Feuchte:
Aussen-T/F 776 04-12-2019 09:11:18 1.2 C 42 %
777 04-12-2019 09:21:18 1.2 C 42 %
778 04-12-2019 09:31:17 1.2 C 41 %
779 04-12-2019 09:41:17 1.2 C 41 %
780 04-12-2019 09:51:17 1.4 C 41 %
781 04-12-2019 10:01:17 1.5 C 41 %
782 04-12-2019 10:11:18 1.4 C 39 %
783 04-12-2019 10:21:17 1.3 C 38 %
784 04-12-2019 10:31:17 1.1 C 37 %
785 04-12-2019 10:41:17 1.1 C 37 %
786 04-12-2019 10:51:18 1 C 38 %
787 04-12-2019 11:01:17 1 C 38 %
788 04-12-2019 11:11:17 1.1 C 39 %
789 04-12-2019 11:21:17 1.1 C 39 %
790 04-12-2019 11:31:18 1.1 C 40 %
791 04-12-2019 11:41:18 1 C 40 %
792 04-12-2019 11:51:17 1.1 C 41 %
793 04-12-2019 12:01:17 1.2 C 41 %
794 04-12-2019 12:11:17 1.3 C 41 %
795 04-12-2019 12:21:18 1.3 C 41 %
796 04-12-2019 12:31:17 1.5 C 41 %
797 04-12-2019 12:41:17 1.5 C 41 %
798 04-12-2019 12:51:17 1.6 C 41 %
799 04-12-2019 13:01:17 1.6 C 41 %
800 04-12-2019 13:11:17 1.7 C 41 %
Sensor: Nr:Datum:Temp:Feuchte:
Aussen-T/F 801 04-12-2019 13:21:17 1.8 C 40 %
802 04-12-2019 13:31:18 1.8 C 40 %
803 04-12-2019 13:41:18 2.1 C 38 %
804 04-12-2019 13:51:17 2.1 C 37 %
805 04-12-2019 14:01:17 2.1 C 37 %
806 04-12-2019 14:11:17 2.1 C 36 %
807 04-12-2019 14:21:17 2.1 C 36 %
808 04-12-2019 14:31:18 2 C 36 %
809 04-12-2019 14:41:18 2.2 C 35 %
810 04-12-2019 14:51:17 2.1 C 36 %
811 04-12-2019 15:01:18 2 C 37 %
812 04-12-2019 15:11:18 1.7 C 38 %
813 04-12-2019 15:21:17 1.7 C 40 %
814 04-12-2019 15:31:17 1.7 C 40 %
815 04-12-2019 15:41:17 1.8 C 39 %
816 04-12-2019 15:51:18 1.8 C 39 %
817 04-12-2019 16:01:17 1.6 C 37 %
818 04-12-2019 16:11:17 1.5 C 37 %
819 04-12-2019 16:21:17 1.4 C 37 %
820 04-12-2019 16:31:17 1.4 C 37 %
821 04-12-2019 16:41:17 1.2 C 37 %
822 04-12-2019 16:51:17 1.1 C 36 %
823 04-12-2019 17:01:17 1 C 37 %
824 04-12-2019 17:11:17 1 C 37 %
825 04-12-2019 17:21:18 1 C 36 %
Sensor: Nr:Datum:Temp:Feuchte:
Aussen-T/F 826 04-12-2019 17:31:17 0.9 C 38 %
827 04-12-2019 17:41:17 0.6 C 38 %
828 04-12-2019 17:51:18 0.7 C 39 %
829 04-12-2019 18:01:17 0.8 C 38 %
830 04-12-2019 18:11:17 0.3 C 39 %
831 04-12-2019 18:21:17 0.4 C 40 %
832 04-12-2019 18:31:17 0.6 C 40 %
833 04-12-2019 18:41:17 -0.2 C 40 %
834 04-12-2019 18:51:17 -0.5 C 41 %
835 04-12-2019 19:01:17 -0.3 C 44 %
836 04-12-2019 19:11:17 -0.7 C 42 %
837 04-12-2019 19:21:17 -1.1 C 42 %
838 04-12-2019 19:31:17 -1 C 44 %
839 04-12-2019 19:41:17 -1.2 C 44 %
840 04-12-2019 19:51:17 -1.4 C 43 %
841 04-12-2019 20:01:17 -1.3 C 44 %
842 04-12-2019 20:11:17 -1.1 C 45 %
843 04-12-2019 20:21:17 -1.5 C 44 %
844 04-12-2019 20:31:17 -1.5 C 44 %
845 04-12-2019 20:41:17 -1.8 C 43 %
846 04-12-2019 20:51:18 -1.9 C 44 %
847 04-12-2019 21:01:18 -1.9 C 44 %
848 04-12-2019 21:11:18 -1.7 C 44 %
849 04-12-2019 21:21:17 -2 C 43 %
850 04-12-2019 21:31:17 -2 C 43 %
Sensor: Nr:Datum:Temp:Feuchte:
Aussen-T/F 851 04-12-2019 21:41:17 -2.4 C 43 %
852 04-12-2019 21:51:17 -2.4 C 43 %
853 04-12-2019 22:01:17 -2.5 C 43 %
854 04-12-2019 22:11:17 -2.6 C 43 %
855 04-12-2019 22:21:17 -2.7 C 44 %
856 04-12-2019 22:31:18 -2.8 C 43 %
857 04-12-2019 22:41:18 -2.7 C 43 %
858 04-12-2019 22:51:17 -2.5 C 43 %
859 04-12-2019 23:01:17 -2.6 C 42 %
860 04-12-2019 23:11:17 -2.9 C 42 %
861 04-12-2019 23:21:17 -2.7 C 42 %
862 04-12-2019 23:31:17 -2.7 C 42 %
863 04-12-2019 23:41:17 -2.9 C 41 %
864 04-12-2019 23:51:18 -2.9 C 42 %
865 05-12-2019 00:01:17 -3 C 41 %
866 05-12-2019 00:11:17 -3 C 41 %
867 05-12-2019 00:21:17 -3.1 C 41 %
868 05-12-2019 00:31:18 -2.8 C 41 %
869 05-12-2019 00:41:18 -2.8 C 41 %
870 05-12-2019 00:51:17 -2.9 C 41 %
871 05-12-2019 01:01:17 -2.9 C 41 %
872 05-12-2019 01:11:17 -3.2 C 41 %
873 05-12-2019 01:21:17 -2.5 C 43 %
874 05-12-2019 01:31:18 -2.6 C 43 %
875 05-12-2019 01:41:18 -2.7 C 43 %
Sensor: Nr:Datum:Temp:Feuchte:
Aussen-T/F 876 05-12-2019 01:51:17 -2.6 C 43 %
877 05-12-2019 02:01:17 -2.6 C 42 %
878 05-12-2019 02:11:18 -2.8 C 41 %
879 05-12-2019 02:21:17 -3 C 41 %
880 05-12-2019 02:31:17 -3.2 C 41 %
881 05-12-2019 02:41:17 -3.2 C 41 %
882 05-12-2019 02:51:17 -3.2 C 41 %
883 05-12-2019 03:01:17 -3.4 C 40 %
884 05-12-2019 03:11:17 -3.5 C 40 %
885 05-12-2019 03:21:17 -3.3 C 41 %
886 05-12-2019 03:31:17 -3.2 C 41 %
887 05-12-2019 03:41:17 -3.6 C 40 %
888 05-12-2019 03:51:17 -3 C 43 %
889 05-12-2019 04:01:17 -2.7 C 43 %
890 05-12-2019 04:11:17 -2.7 C 43 %
891 05-12-2019 04:21:17 -2.7 C 43 %
892 05-12-2019 04:31:18 -2.9 C 42 %
893 05-12-2019 04:41:18 -3.3 C 40 %
894 05-12-2019 04:51:17 -2.9 C 42 %
895 05-12-2019 05:01:17 -2.8 C 43 %
896 05-12-2019 05:11:17 -2.8 C 42 %
897 05-12-2019 05:21:17 -2.7 C 43 %
898 05-12-2019 05:31:17 -2.7 C 43 %
899 05-12-2019 05:41:18 -2.5 C 43 %
900 05-12-2019 05:51:17 -2.5 C 43 %
Sensor: Nr:Datum:Temp:Feuchte:
Aussen-T/F 901 05-12-2019 06:01:17 -2.6 C 43 %
902 05-12-2019 06:11:17 -2.7 C 43 %
903 05-12-2019 06:21:17 -2.9 C 43 %
904 05-12-2019 06:31:17 -2.9 C 43 %
905 05-12-2019 06:41:17 -3 C 42 %
906 05-12-2019 06:51:17 -2.9 C 43 %
907 05-12-2019 07:01:17 -2.9 C 42 %
908 05-12-2019 07:11:17 -2.9 C 42 %
909 05-12-2019 07:21:17 -3.2 C 42 %
910 05-12-2019 07:31:17 -3.1 C 42 %
911 05-12-2019 07:41:18 -2.9 C 42 %
912 05-12-2019 07:51:17 -2.9 C 42 %
913 05-12-2019 08:01:17 -3 C 42 %
914 05-12-2019 08:11:17 -2.8 C 43 %
915 05-12-2019 08:21:18 -2.9 C 42 %
916 05-12-2019 08:31:17 -2.8 C 42 %
917 05-12-2019 08:41:17 -3 C 42 %
918 05-12-2019 08:51:17 -3 C 42 %
919 05-12-2019 09:01:18 -2.7 C 43 %
920 05-12-2019 09:11:18 -2.6 C 43 %
921 05-12-2019 09:21:17 -2.6 C 42 %
922 05-12-2019 09:31:17 -2.6 C 42 %
923 05-12-2019 09:41:17 -2.5 C 43 %
924 05-12-2019 09:51:17 -2.4 C 42 %
925 05-12-2019 10:01:18 -2.3 C 42 %
Sensor: Nr:Datum:Temp:Feuchte:
Aussen-T/F 926 05-12-2019 10:11:18 -2.4 C 42 %
927 05-12-2019 10:21:17 -2.1 C 43 %
928 05-12-2019 10:31:17 -1.7 C 43 %
929 05-12-2019 10:41:17 -2 C 42 %
930 05-12-2019 10:51:18 -1.7 C 42 %
931 05-12-2019 11:01:17 -1.7 C 43 %
932 05-12-2019 11:11:17 -1.4 C 42 %
933 05-12-2019 11:21:17 -1.2 C 41 %
934 05-12-2019 11:31:18 -1.2 C 41 %
935 05-12-2019 11:41:18 -0.7 C 42 %
936 05-12-2019 11:51:17 -0.9 C 42 %
937 05-12-2019 12:01:18 -1 C 41 %
938 05-12-2019 12:11:18 -0.8 C 41 %
939 05-12-2019 12:21:17 -0.6 C 41 %
940 05-12-2019 12:31:17 -0.8 C 40 %
941 05-12-2019 12:41:17 -0.9 C 40 %
942 05-12-2019 12:51:18 -0.6 C 41 %
943 05-12-2019 13:01:17 -0.5 C 40 %
944 05-12-2019 13:11:17 -0.6 C 40 %
945 05-12-2019 13:21:17 -0.4 C 41 %
946 05-12-2019 13:31:17 -0.4 C 41 %
947 05-12-2019 13:41:17 -0.2 C 41 %
948 05-12-2019 13:51:17 0.1 C 40 %
949 05-12-2019 14:01:18 0.1 C 40 %
950 05-12-2019 14:11:18 0.2 C 40 %
Sensor: Nr:Datum:Temp:Feuchte:
Aussen-T/F 951 05-12-2019 14:21:17 0.2 C 40 %
952 05-12-2019 14:31:17 0.2 C 40 %
953 05-12-2019 14:41:17 0.2 C 40 %
954 05-12-2019 14:51:17 0.2 C 41 %
955 05-12-2019 15:01:17 0.1 C 41 %
956 05-12-2019 15:11:17 0 C 41 %
957 05-12-2019 15:21:17 -0.1 C 42 %
958 05-12-2019 15:31:17 -0.1 C 43 %
959 05-12-2019 15:41:17 -0.1 C 44 %
960 05-12-2019 15:51:18 -0.1 C 44 %
961 05-12-2019 16:01:17 -0.4 C 44 %
962 05-12-2019 16:11:17 -0.5 C 44 %
963 05-12-2019 16:21:17 -0.7 C 45 %
964 05-12-2019 16:31:18 -0.8 C 44 %
965 05-12-2019 16:41:18 -1 C 44 %
966 05-12-2019 16:51:17 -1 C 44 %
967 05-12-2019 17:01:17 -1.2 C 44 %
968 05-12-2019 17:11:17 -1.1 C 45 %
969 05-12-2019 17:21:18 -1.2 C 45 %
970 05-12-2019 17:31:17 -1.3 C 44 %
971 05-12-2019 17:41:17 -1.7 C 44 %
972 05-12-2019 17:51:17 -1.6 C 44 %
973 05-12-2019 18:01:18 -1.8 C 43 %
974 05-12-2019 18:11:18 -2 C 43 %
975 05-12-2019 18:21:17 -2 C 43 %
Sensor: Nr:Datum:Temp:Feuchte:
Aussen-T/F 976 05-12-2019 18:31:17 -2 C 43 %
977 05-12-2019 18:41:17 -2.2 C 43 %
978 05-12-2019 18:51:18 -2.5 C 42 %
979 05-12-2019 19:01:17 -2.1 C 43 %
980 05-12-2019 19:11:17 -2.1 C 44 %
981 05-12-2019 19:21:17 -2.6 C 42 %
982 05-12-2019 19:31:17 -2.9 C 41 %
983 05-12-2019 19:41:17 -2.6 C 42 %
984 05-12-2019 19:51:18 -1.9 C 43 %
985 05-12-2019 20:01:17 -1.5 C 44 %
986 05-12-2019 20:11:17 -1.6 C 43 %
987 05-12-2019 20:21:17 -1.5 C 43 %
988 05-12-2019 20:31:17 -1.9 C 42 %
989 05-12-2019 20:41:17 -2 C 42 %
990 05-12-2019 20:51:18 -2.1 C 42 %
991 05-12-2019 21:01:17 -2.3 C 42 %
992 05-12-2019 21:11:17 -2.6 C 42 %
993 05-12-2019 21:21:17 -2.1 C 43 %
994 05-12-2019 21:31:17 -2 C 43 %
995 05-12-2019 21:41:17 -2 C 43 %
996 05-12-2019 21:51:17 -2 C 43 %
997 05-12-2019 22:01:17 -2.3 C 42 %
998 05-12-2019 22:11:17 -2.3 C 42 %
999 05-12-2019 22:21:18 -2.2 C 42 %
1000 05-12-2019 22:31:17 -2.4 C 42 %
Sensor: Nr:Datum:Temp:Feuchte:
Aussen-T/F 1001 05-12-2019 22:41:17 -2.4 C 42 %
1002 05-12-2019 22:51:17 -2.3 C 42 %
1003 05-12-2019 23:01:17 -2.6 C 41 %
1004 05-12-2019 23:11:17 -2.7 C 41 %
1005 05-12-2019 23:21:18 -2.7 C 42 %
1006 05-12-2019 23:31:17 -3.1 C 41 %
1007 05-12-2019 23:41:17 -3.3 C 41 %
1008 05-12-2019 23:51:17 -3.2 C 42 %
1009 06-12-2019 00:01:18 -2.9 C 42 %
1010 06-12-2019 00:11:18 -3.4 C 40 %
1011 06-12-2019 00:21:17 -3.8 C 40 %
1012 06-12-2019 00:31:17 -3.4 C 42 %
1013 06-12-2019 00:41:17 -3.2 C 42 %
1014 06-12-2019 00:51:17 -2.7 C 43 %
1015 06-12-2019 01:01:17 -2.4 C 43 %
1016 06-12-2019 01:11:17 -2.1 C 43 %
1017 06-12-2019 01:21:17 -2 C 41 %
1018 06-12-2019 01:31:18 -1.8 C 42 %
1019 06-12-2019 01:41:18 -1.6 C 43 %
1020 06-12-2019 01:51:17 -1.6 C 43 %
1021 06-12-2019 02:01:17 -1.4 C 42 %
1022 06-12-2019 02:11:17 -1.4 C 40 %
1023 06-12-2019 02:21:17 -1.6 C 40 %
1024 06-12-2019 02:31:17 -1.5 C 40 %
1025 06-12-2019 02:41:17 -1.7 C 39 %
Sensor: Nr:Datum:Temp:Feuchte:
Aussen-T/F 1026 06-12-2019 02:51:17 -1.6 C 40 %
1027 06-12-2019 03:01:18 -1.4 C 39 %
1028 06-12-2019 03:11:18 -1.2 C 39 %
1029 06-12-2019 03:21:17 -1 C 38 %
1030 06-12-2019 03:31:17 -1 C 37 %
1031 06-12-2019 03:41:17 -1 C 38 %
1032 06-12-2019 03:51:17 -1.1 C 37 %
1033 06-12-2019 04:01:17 -1.2 C 38 %
1034 06-12-2019 04:11:17 -1.3 C 37 %
1035 06-12-2019 04:21:17 -1.3 C 38 %
1036 06-12-2019 04:31:17 -1.1 C 38 %
1037 06-12-2019 04:41:17 -1.1 C 38 %
1038 06-12-2019 04:51:17 -0.8 C 38 %
1039 06-12-2019 05:01:17 -1 C 38 %
1040 06-12-2019 05:11:17 -0.8 C 37 %
1041 06-12-2019 05:21:17 -0.9 C 36 %
1042 06-12-2019 05:31:18 -1 C 37 %
1043 06-12-2019 05:41:18 -0.8 C 38 %
1044 06-12-2019 05:51:17 -0.6 C 36 %
1045 06-12-2019 06:01:17 -0.6 C 35 %
1046 06-12-2019 06:11:17 -0.6 C 36 %
1047 06-12-2019 06:21:17 -0.5 C 36 %
1048 06-12-2019 06:31:17 -0.5 C 35 %
1049 06-12-2019 06:41:17 -0.4 C 36 %
1050 06-12-2019 06:51:18 -0.4 C 37 %
Sensor: Nr:Datum:Temp:Feuchte:
Aussen-T/F 1051 06-12-2019 07:01:17 -0.4 C 38 %
1052 06-12-2019 07:11:17 -0.4 C 38 %
1053 06-12-2019 07:21:17 -0.1 C 37 %
1054 06-12-2019 07:31:17 0 C 36 %
1055 06-12-2019 07:41:17 0.2 C 34 %
1056 06-12-2019 07:51:18 0.4 C 32 %
1057 06-12-2019 08:01:17 0.4 C 32 %
1058 06-12-2019 08:11:17 0.4 C 32 %
1059 06-12-2019 08:21:17 0.4 C 35 %
1060 06-12-2019 08:31:17 0.6 C 32 %
1061 06-12-2019 08:41:17 0.5 C 35 %
1062 06-12-2019 08:51:18 0.5 C 35 %
1063 06-12-2019 09:01:17 0.6 C 36 %
1064 06-12-2019 09:11:17 0.8 C 36 %
1065 06-12-2019 09:21:17 1.2 C 33 %
1066 06-12-2019 09:31:17 1.4 C 33 %
1067 06-12-2019 09:41:17 1.5 C 33 %
1068 06-12-2019 09:51:17 1.7 C 34 %
1069 06-12-2019 10:01:17 1.8 C 33 %
1070 06-12-2019 10:11:17 1.8 C 35 %
1071 06-12-2019 10:21:18 1.9 C 36 %
1072 06-12-2019 10:31:17 1.9 C 36 %
1073 06-12-2019 10:41:17 2.4 C 35 %
1074 06-12-2019 10:51:17 2.5 C 35 %
1075 06-12-2019 11:01:18 2.7 C 35 %
Sensor: Nr:Datum:Temp:Feuchte:
Aussen-T/F 1076 06-12-2019 11:11:18 3.2 C 32 %
1077 06-12-2019 11:21:17 3.3 C 32 %
1078 06-12-2019 11:31:17 3.5 C 32 %
1079 06-12-2019 11:41:17 3.5 C 32 %
1080 06-12-2019 11:51:17 3.5 C 33 %
1081 06-12-2019 12:01:17 3.6 C 33 %
1082 06-12-2019 12:11:17 3.6 C 33 %
1083 06-12-2019 12:21:17 3.6 C 35 %
1084 06-12-2019 12:31:18 3.7 C 37 %
1085 06-12-2019 12:41:18 3.7 C 39 %
1086 06-12-2019 12:51:17 3.7 C 40 %
1087 06-12-2019 13:01:17 3.8 C 39 %
1088 06-12-2019 13:11:17 3.9 C 38 %
1089 06-12-2019 13:21:17 4 C 36 %
1090 06-12-2019 13:31:18 4.2 C 35 %
1091 06-12-2019 13:41:18 4.2 C 35 %
1092 06-12-2019 13:51:17 4.1 C 36 %
1093 06-12-2019 14:01:17 4.1 C 39 %
1094 06-12-2019 14:11:17 4.2 C 40 %
1095 06-12-2019 14:21:17 4.2 C 38 %
1096 06-12-2019 14:31:18 4.2 C 38 %
1097 06-12-2019 14:41:18 4.4 C 38 %
1098 06-12-2019 14:51:17 4.4 C 39 %
1099 06-12-2019 15:01:17 4.3 C 38 %
1100 06-12-2019 15:11:17 4.4 C 38 %
Sensor: Nr:Datum:Temp:Feuchte:
Aussen-T/F 1101 06-12-2019 15:21:17 4.7 C 36 %
1102 06-12-2019 15:31:17 4.5 C 37 %
1103 06-12-2019 15:41:17 4.5 C 37 %
1104 06-12-2019 15:51:18 4.6 C 37 %
1105 06-12-2019 16:01:18 4.8 C 38 %
1106 06-12-2019 16:11:18 5 C 34 %
1107 06-12-2019 16:21:17 5.2 C 32 %
1108 06-12-2019 16:31:17 5.1 C 32 %
1109 06-12-2019 16:41:17 5.3 C 32 %
1110 06-12-2019 16:51:17 5.2 C 31 %
1111 06-12-2019 17:01:17 5.2 C 31 %
1112 06-12-2019 17:11:17 5.3 C 31 %
1113 06-12-2019 17:21:17 5.3 C 30 %
1114 06-12-2019 17:31:18 5.5 C 30 %
1115 06-12-2019 17:41:18 5.6 C 29 %
1116 06-12-2019 17:51:17 5.5 C 30 %
1117 06-12-2019 18:01:17 5.9 C 29 %
1118 06-12-2019 18:11:17 6 C 28 %
1119 06-12-2019 18:21:18 6.2 C 29 %
1120 06-12-2019 18:31:17 6.1 C 28 %
1121 06-12-2019 18:41:17 6.1 C 29 %
1122 06-12-2019 18:51:17 5.9 C 30 %
1123 06-12-2019 19:01:17 5.6 C 31 %
1124 06-12-2019 19:11:17 5.8 C 32 %
1125 06-12-2019 19:21:17 5.9 C 31 %
Sensor: Nr:Datum:Temp:Feuchte:
Aussen-T/F 1126 06-12-2019 19:31:17 6.2 C 30 %
1127 06-12-2019 19:41:17 6.5 C 28 %
1128 06-12-2019 19:51:17 6.5 C 28 %
1129 06-12-2019 20:01:17 6.8 C 28 %
1130 06-12-2019 20:11:17 6.7 C 28 %
1131 06-12-2019 20:21:17 6.8 C 28 %
1132 06-12-2019 20:31:17 6.7 C 28 %
1133 06-12-2019 20:41:17 6.7 C 28 %
1134 06-12-2019 20:51:18 6.7 C 28 %
1135 06-12-2019 21:01:17 6.8 C 27 %
1136 06-12-2019 21:11:17 6.7 C 28 %
1137 06-12-2019 21:21:17 6.7 C 28 %
1138 06-12-2019 21:31:17 6.6 C 28 %
1139 06-12-2019 21:41:17 6.5 C 28 %
1140 06-12-2019 21:51:17 6.5 C 29 %
1141 06-12-2019 22:01:17 6.6 C 29 %
1142 06-12-2019 22:11:17 6.7 C 28 %
1143 06-12-2019 22:21:17 6.7 C 28 %
1144 06-12-2019 22:31:17 6.7 C 28 %
1145 06-12-2019 22:41:17 6.9 C 28 %
1146 06-12-2019 22:51:17 6.9 C 27 %
1147 06-12-2019 23:01:18 7 C 27 %
1148 06-12-2019 23:11:18 6.9 C 28 %
1149 06-12-2019 23:21:17 6.8 C 29 %
1150 06-12-2019 23:31:17 6.8 C 29 %
Sensor: Nr:Datum:Temp:Feuchte:
Aussen-T/F 1151 06-12-2019 23:41:17 6.9 C 29 %
1152 06-12-2019 23:51:18 6.8 C 30 %
1153 07-12-2019 00:01:17 6.9 C 30 %
1154 07-12-2019 00:11:17 7 C 28 %
1155 07-12-2019 00:21:17 7.2 C 28 %
1156 07-12-2019 00:31:17 7.2 C 28 %
1157 07-12-2019 00:41:17 7.2 C 28 %
1158 07-12-2019 00:51:17 7.4 C 28 %
1159 07-12-2019 01:01:17 7.4 C 28 %
1160 07-12-2019 01:11:17 7.6 C 28 %
1161 07-12-2019 01:21:17 7.7 C 28 %
1162 07-12-2019 01:31:18 7.8 C 28 %
1163 07-12-2019 01:41:18 7.6 C 29 %
1164 07-12-2019 01:51:17 7.6 C 29 %
1165 07-12-2019 02:01:17 7.5 C 30 %
1166 07-12-2019 02:11:17 7.7 C 31 %
1167 07-12-2019 02:21:17 7.5 C 31 %
1168 07-12-2019 02:31:17 7.1 C 35 %
1169 07-12-2019 02:41:17 7.2 C 38 %
1170 07-12-2019 02:51:17 7.3 C 35 %
1171 07-12-2019 03:01:17 7.4 C 35 %
1172 07-12-2019 03:11:17 7.6 C 33 %
1173 07-12-2019 03:21:17 8.4 C 30 %
1174 07-12-2019 03:31:17 8.5 C 29 %
1175 07-12-2019 03:41:17 8.7 C 28 %
Sensor: Nr:Datum:Temp:Feuchte:
Aussen-T/F 1176 07-12-2019 03:51:17 9 C 27 %
1177 07-12-2019 04:01:18 8.4 C 29 %
1178 07-12-2019 04:11:18 8.5 C 29 %
1179 07-12-2019 04:21:17 8 C 30 %
1180 07-12-2019 04:31:17 7.9 C 30 %
1181 07-12-2019 04:41:17 8 C 30 %
1182 07-12-2019 04:51:17 8 C 30 %
1183 07-12-2019 05:01:17 7.7 C 30 %
1184 07-12-2019 05:11:17 8 C 30 %
1185 07-12-2019 05:21:17 8 C 30 %
1186 07-12-2019 05:31:17 7.8 C 31 %
1187 07-12-2019 05:41:17 8.2 C 30 %
1188 07-12-2019 05:51:18 7.2 C 31 %
1189 07-12-2019 06:01:18 7.6 C 30 %
1190 07-12-2019 06:11:18 8.7 C 26 %
1191 07-12-2019 06:21:17 8.6 C 26 %
1192 07-12-2019 06:31:18 8.2 C 26 %
1193 07-12-2019 06:41:18 8.1 C 26 %
1194 07-12-2019 06:51:17 7.5 C 27 %
1195 07-12-2019 07:01:17 6.8 C 30 %
1196 07-12-2019 07:11:17 7.1 C 28 %
1197 07-12-2019 07:21:17 7.3 C 27 %
1198 07-12-2019 07:31:17 6.8 C 30 %
1199 07-12-2019 07:41:17 6.3 C 31 %
1200 07-12-2019 07:51:18 7.8 C 28 %
Sensor: Nr:Datum:Temp:Feuchte:
Aussen-T/F 1201 07-12-2019 08:01:18 8 C 27 %
1202 07-12-2019 08:11:18 7.9 C 28 %
1203 07-12-2019 08:21:17 8.1 C 28 %
1204 07-12-2019 08:31:17 8.1 C 27 %
1205 07-12-2019 08:41:17 8.3 C 28 %
1206 07-12-2019 08:51:17 8.4 C 27 %
1207 07-12-2019 09:01:17 8.4 C 27 %
1208 07-12-2019 09:11:17 8.3 C 28 %
1209 07-12-2019 09:21:17 8.2 C 28 %
1210 07-12-2019 09:31:17 8.1 C 29 %
1211 07-12-2019 09:41:17 8.3 C 28 %
1212 07-12-2019 09:51:18 8.6 C 27 %
1213 07-12-2019 10:01:17 8.6 C 27 %
1214 07-12-2019 10:11:17 8.8 C 27 %
1215 07-12-2019 10:21:17 9 C 26 %
1216 07-12-2019 10:31:17 9.1 C 25 %
1217 07-12-2019 10:41:17 9.1 C 26 %
1218 07-12-2019 10:51:18 9.2 C 25 %
1219 07-12-2019 11:01:18 9 C 26 %
1220 07-12-2019 11:11:18 8.4 C 29 %
1221 07-12-2019 11:21:17 8.3 C 30 %
1222 07-12-2019 11:31:17 8.4 C 30 %
1223 07-12-2019 11:41:17 8.5 C 30 %
1224 07-12-2019 11:51:17 8.6 C 28 %
1225 07-12-2019 12:01:17 8.8 C 27 %
Sensor: Nr:Datum:Temp:Feuchte:
Aussen-T/F 1226 07-12-2019 12:11:17 8.9 C 27 %
1227 07-12-2019 12:21:17 9.2 C 25 %
1228 07-12-2019 12:31:18 9.4 C 25 %
1229 07-12-2019 12:41:18 9.5 C 25 %
1230 07-12-2019 12:51:17 9.5 C 25 %
1231 07-12-2019 13:01:17 9.7 C 23 %
1232 07-12-2019 13:11:17 10 C 20 %
1233 07-12-2019 13:21:17 9.8 C 20 %
1234 07-12-2019 13:31:17 9.8 C 20 %
1235 07-12-2019 13:41:17 9.9 C 20 %
1236 07-12-2019 13:51:17 9.9 C 20 %
1237 07-12-2019 14:01:17 9.8 C 20 %
1238 07-12-2019 14:11:17 9.7 C 20 %
1239 07-12-2019 14:21:17 9.9 C 20 %
1240 07-12-2019 14:31:18 9.9 C 20 %
1241 07-12-2019 14:41:18 9.9 C 20 %
1242 07-12-2019 14:51:17 9.9 C 20 %
1243 07-12-2019 15:01:17 9.9 C 20 %
1244 07-12-2019 15:11:17 9.7 C 21 %
1245 07-12-2019 15:21:17 9.6 C 21 %
1246 07-12-2019 15:31:17 9.7 C 21 %
1247 07-12-2019 15:41:17 9.6 C 20 %
1248 07-12-2019 15:51:17 9.4 C 23 %
1249 07-12-2019 16:01:17 9 C 25 %
1250 07-12-2019 16:11:17 8.9 C 25 %
Sensor: Nr:Datum:Temp:Feuchte:
Aussen-T/F 1251 07-12-2019 16:21:18 8.8 C 25 %
1252 07-12-2019 16:31:17 8.6 C 26 %
1253 07-12-2019 16:41:18 8.5 C 26 %
1254 07-12-2019 16:51:17 8.2 C 27 %
1255 07-12-2019 17:01:17 8.1 C 29 %
1256 07-12-2019 17:11:17 8.2 C 28 %
1257 07-12-2019 17:21:17 8.1 C 28 %
1258 07-12-2019 17:31:18 8.2 C 28 %
1259 07-12-2019 17:41:18 8.3 C 27 %
1260 07-12-2019 17:51:17 8.1 C 27 %
1261 07-12-2019 18:01:18 8 C 28 %
1262 07-12-2019 18:11:18 8 C 27 %
1263 07-12-2019 18:21:17 7.8 C 28 %
1264 07-12-2019 18:31:17 7.7 C 29 %
1265 07-12-2019 18:41:17 7.6 C 30 %
1266 07-12-2019 18:51:17 7.6 C 30 %
1267 07-12-2019 19:01:17 7.5 C 31 %
1268 07-12-2019 19:11:17 7.5 C 31 %
1269 07-12-2019 19:21:17 7.5 C 32 %
1270 07-12-2019 19:31:17 7.7 C 31 %
1271 07-12-2019 19:41:17 7.6 C 30 %
1272 07-12-2019 19:51:17 7.7 C 30 %
1273 07-12-2019 20:01:18 7.4 C 30 %
1274 07-12-2019 20:11:18 7.3 C 31 %
1275 07-12-2019 20:21:17 7.3 C 31 %
Sensor: Nr:Datum:Temp:Feuchte:
Aussen-T/F 1276 07-12-2019 20:31:17 7.4 C 30 %
1277 07-12-2019 20:41:17 7.6 C 30 %
1278 07-12-2019 20:51:17 7.6 C 30 %
1279 07-12-2019 21:01:17 7.5 C 30 %
1280 07-12-2019 21:11:17 7.6 C 30 %
1281 07-12-2019 21:21:17 8 C 28 %
1282 07-12-2019 21:31:17 8.1 C 28 %
1283 07-12-2019 21:41:17 8.2 C 28 %
1284 07-12-2019 21:51:17 7.9 C 28 %
1285 07-12-2019 22:01:17 8.2 C 28 %
1286 07-12-2019 22:11:17 8.1 C 27 %
1287 07-12-2019 22:21:17 7.8 C 28 %
1288 07-12-2019 22:31:18 7.7 C 30 %
1289 07-12-2019 22:41:18 7.6 C 30 %
1290 07-12-2019 22:51:17 7.5 C 31 %
1291 07-12-2019 23:01:17 7.4 C 32 %
1292 07-12-2019 23:11:17 7.6 C 31 %
1293 07-12-2019 23:21:17 7.6 C 32 %
1294 07-12-2019 23:31:17 7.5 C 32 %
1295 07-12-2019 23:41:17 7.7 C 31 %
1296 07-12-2019 23:51:18 7.9 C 28 %
1297 08-12-2019 00:01:17 8.1 C 27 %
1298 08-12-2019 00:11:17 8.9 C 23 %
1299 08-12-2019 00:21:17 8.9 C 21 %
1300 08-12-2019 00:31:18 9 C 21 %
Sensor: Nr:Datum:Temp:Feuchte:
Aussen-T/F 1301 08-12-2019 00:41:18 8.9 C 23 %
1302 08-12-2019 00:51:17 8.5 C 25 %
1303 08-12-2019 01:01:18 8.3 C 25 %
1304 08-12-2019 01:11:18 8.5 C 25 %
1305 08-12-2019 01:21:17 8.4 C 26 %
1306 08-12-2019 01:31:17 8.9 C 25 %
1307 08-12-2019 01:41:17 8.8 C 25 %
1308 08-12-2019 01:51:18 9.2 C 20 %
1309 08-12-2019 02:01:17 9.2 C 20 %
1310 08-12-2019 02:11:17 8.9 C 20 %
1311 08-12-2019 02:21:17 9 C 20 %
1312 08-12-2019 02:31:17 9.1 C 20 %
1313 08-12-2019 02:41:18 9 C 20 %
1314 08-12-2019 02:51:17 9.1 C 20 %
1315 08-12-2019 03:01:17 9 C 20 %
1316 08-12-2019 03:11:17 9.1 C 20 %
1317 08-12-2019 03:21:17 9.1 C 20 %
1318 08-12-2019 03:31:17 9.3 C 20 %
1319 08-12-2019 03:41:17 9.3 C 20 %
1320 08-12-2019 03:51:17 9.4 C 20 %
1321 08-12-2019 04:01:17 9.7 C 20 %
1322 08-12-2019 04:11:18 9.6 C 20 %
1323 08-12-2019 04:21:17 9.5 C 20 %
1324 08-12-2019 04:31:17 9.6 C 20 %
1325 08-12-2019 04:41:17 9.6 C 20 %
Sensor: Nr:Datum:Temp:Feuchte:
Aussen-T/F 1326 08-12-2019 04:51:17 9.5 C 20 %
1327 08-12-2019 05:01:17 9.6 C 20 %
1328 08-12-2019 05:11:17 9.5 C 21 %
1329 08-12-2019 05:21:17 9.5 C 21 %
1330 08-12-2019 05:31:17 9.4 C 23 %
1331 08-12-2019 05:41:17 9.5 C 23 %
1332 08-12-2019 05:51:17 9.2 C 25 %
1333 08-12-2019 06:01:17 9.3 C 25 %
1334 08-12-2019 06:11:18 9.5 C 25 %
1335 08-12-2019 06:21:17 9.9 C 21 %
1336 08-12-2019 06:31:17 9.8 C 23 %
1337 08-12-2019 06:41:17 9.7 C 25 %
1338 08-12-2019 06:51:17 9.9 C 23 %
1339 08-12-2019 07:01:18 10 C 21 %
1340 08-12-2019 07:11:18 10.1 C 20 %
1341 08-12-2019 07:21:17 9.9 C 21 %
1342 08-12-2019 07:31:17 10 C 21 %
1343 08-12-2019 07:41:17 10.1 C 20 %
1344 08-12-2019 07:51:17 10 C 20 %
1345 08-12-2019 08:01:17 10 C 20 %
1346 08-12-2019 08:11:17 10.2 C 20 %
1347 08-12-2019 08:21:17 10.1 C 20 %
1348 08-12-2019 08:31:17 10.3 C 21 %
1349 08-12-2019 08:41:17 10.1 C 21 %
1350 08-12-2019 08:51:17 10.3 C 21 %
Sensor: Nr:Datum:Temp:Feuchte:
Aussen-T/F 1351 08-12-2019 09:01:17 10.3 C 21 %
1352 08-12-2019 09:11:17 10.1 C 21 %
1353 08-12-2019 09:21:17 10.2 C 21 %
1354 08-12-2019 09:31:17 10.3 C 21 %
1355 08-12-2019 09:41:17 10.4 C 21 %
1356 08-12-2019 09:51:17 10.4 C 21 %
1357 08-12-2019 10:01:17 10.4 C 21 %
1358 08-12-2019 10:11:17 10.5 C 21 %
1359 08-12-2019 10:21:17 10.5 C 22 %
1360 08-12-2019 10:31:17 10.5 C 22 %
1361 08-12-2019 10:41:17 10.1 C 25 %
1362 08-12-2019 10:51:17 10.2 C 25 %
1363 08-12-2019 11:01:17 10.5 C 25 %
1364 08-12-2019 11:11:17 10.6 C 23 %
1365 08-12-2019 11:21:17 10.8 C 23 %
1366 08-12-2019 11:31:17 10.8 C 23 %
1367 08-12-2019 11:41:17 10.8 C 22 %
1368 08-12-2019 11:51:17 11 C 22 %
1369 08-12-2019 12:01:18 11.1 C 22 %
1370 08-12-2019 12:11:18 11.3 C 22 %
1371 08-12-2019 12:21:17 11.4 C 22 %
1372 08-12-2019 12:31:17 11.4 C 22 %
1373 08-12-2019 12:41:17 11.4 C 23 %
1374 08-12-2019 12:51:17 11.3 C 24 %
1375 08-12-2019 13:01:18 11.5 C 24 %
Sensor: Nr:Datum:Temp:Feuchte:
Aussen-T/F 1376 08-12-2019 13:11:18 11.5 C 22 %
1377 08-12-2019 13:21:17 11.3 C 25 %
1378 08-12-2019 13:31:17 11.1 C 25 %
1379 08-12-2019 13:41:17 11.4 C 25 %
1380 08-12-2019 13:51:17 11.4 C 25 %
1381 08-12-2019 14:01:17 11.5 C 25 %
1382 08-12-2019 14:11:17 11.5 C 25 %
1383 08-12-2019 14:21:17 11.5 C 25 %
1384 08-12-2019 14:31:18 11.7 C 25 %
1385 08-12-2019 14:41:18 11.7 C 25 %
1386 08-12-2019 14:51:17 11.7 C 25 %
1387 08-12-2019 15:01:18 11.8 C 25 %
1388 08-12-2019 15:11:18 11.8 C 25 %
1389 08-12-2019 15:21:18 11.7 C 25 %
1390 08-12-2019 15:31:18 11.7 C 25 %
1391 08-12-2019 15:41:18 11.8 C 25 %
1392 08-12-2019 15:51:17 11.8 C 25 %
1393 08-12-2019 16:01:17 11.7 C 25 %
1394 08-12-2019 16:11:17 11.8 C 25 %
1395 08-12-2019 16:21:18 11.7 C 25 %
1396 08-12-2019 16:31:18 11.6 C 26 %
1397 08-12-2019 16:41:18 11.4 C 27 %
1398 08-12-2019 16:51:17 9.4 C 31 %
1399 08-12-2019 17:01:17 8.9 C 33 %
1400 08-12-2019 17:11:17 8.8 C 33 %
Sensor: Nr:Datum:Temp:Feuchte:
Aussen-T/F 1401 08-12-2019 17:21:17 8.7 C 34 %
1402 08-12-2019 17:31:17 9.2 C 27 %
1403 08-12-2019 17:41:17 8.5 C 33 %
1404 08-12-2019 17:51:17 8.5 C 33 %
1405 08-12-2019 18:01:17 8.5 C 32 %
1406 08-12-2019 18:11:17 8.6 C 31 %
1407 08-12-2019 18:21:17 8.2 C 33 %
1408 08-12-2019 18:31:18 8.5 C 29 %
1409 08-12-2019 18:41:18 8.5 C 29 %
1410 08-12-2019 18:51:17 8.6 C 28 %
1411 08-12-2019 19:01:17 8.9 C 27 %
1412 08-12-2019 19:11:17 8.5 C 28 %
1413 08-12-2019 19:21:17 8.5 C 28 %
1414 08-12-2019 19:31:17 8.6 C 27 %
1415 08-12-2019 19:41:17 8 C 31 %
1416 08-12-2019 19:51:18 7.8 C 33 %
1417 08-12-2019 20:01:17 7.5 C 36 %
1418 08-12-2019 20:11:17 8.1 C 33 %
1419 08-12-2019 20:21:17 8.2 C 30 %
1420 08-12-2019 20:31:17 8.3 C 29 %
1421 08-12-2019 20:41:17 8.5 C 28 %
1422 08-12-2019 20:51:17 8.6 C 26 %
1423 08-12-2019 21:01:18 8.8 C 26 %
1424 08-12-2019 21:11:18 8.9 C 25 %
1425 08-12-2019 21:21:17 8.4 C 26 %
Sensor: Nr:Datum:Temp:Feuchte:
Aussen-T/F 1426 08-12-2019 21:31:17 8.7 C 26 %
1427 08-12-2019 21:41:17 8.4 C 26 %
1428 08-12-2019 21:51:18 8.4 C 26 %
1429 08-12-2019 22:01:17 8.5 C 26 %
1430 08-12-2019 22:11:17 7.9 C 27 %
1431 08-12-2019 22:21:17 8.1 C 26 %
1432 08-12-2019 22:31:17 8.6 C 26 %
1433 08-12-2019 22:41:17 8.8 C 26 %
1434 08-12-2019 22:51:17 8.7 C 25 %
1435 08-12-2019 23:01:17 8.8 C 25 %
1436 08-12-2019 23:11:17 8.7 C 26 %
1437 08-12-2019 23:21:17 8.8 C 25 %
1438 08-12-2019 23:31:18 8.7 C 25 %
1439 08-12-2019 23:41:18 8.5 C 25 %
1440 08-12-2019 23:51:17 8.4 C 21 %
1441 09-12-2019 00:01:18 8.7 C 20 %
1442 09-12-2019 00:11:18 8.1 C 21 %
1443 09-12-2019 00:21:17 8.4 C 21 %
1444 09-12-2019 00:31:17 8.4 C 21 %
1445 09-12-2019 00:41:17 8.5 C 20 %
1446 09-12-2019 00:51:17 8.4 C 20 %
1447 09-12-2019 01:01:17 8.4 C 20 %
1448 09-12-2019 01:11:17 8.5 C 20 %
1449 09-12-2019 01:21:18 8.1 C 20 %
1450 09-12-2019 01:31:17 8 C 20 %
Sensor: Nr:Datum:Temp:Feuchte:
Aussen-T/F 1451 09-12-2019 01:41:17 8.3 C 20 %
1452 09-12-2019 01:51:17 8.2 C 20 %
1453 09-12-2019 02:01:17 7.8 C 20 %
1454 09-12-2019 02:11:17 7.6 C 20 %
1455 09-12-2019 02:21:17 7.4 C 21 %
1456 09-12-2019 02:31:18 7.4 C 21 %
1457 09-12-2019 02:41:18 7.1 C 23 %
1458 09-12-2019 02:51:18 7.5 C 20 %
1459 09-12-2019 03:01:17 7.5 C 20 %
1460 09-12-2019 03:11:17 7.5 C 20 %
1461 09-12-2019 03:21:17 7.5 C 20 %
1462 09-12-2019 03:31:17 7.3 C 20 %
1463 09-12-2019 03:41:17 6.8 C 23 %
1464 09-12-2019 03:51:17 7.3 C 21 %
1465 09-12-2019 04:01:17 7.3 C 20 %
1466 09-12-2019 04:11:17 7.9 C 20 %
1467 09-12-2019 04:21:18 8 C 20 %
1468 09-12-2019 04:31:18 7.6 C 20 %
1469 09-12-2019 04:41:18 7.4 C 21 %
1470 09-12-2019 04:51:17 6.9 C 25 %
1471 09-12-2019 05:01:17 6.9 C 25 %
1472 09-12-2019 05:11:17 7.4 C 20 %
1473 09-12-2019 05:21:17 7.5 C 20 %
1474 09-12-2019 05:31:17 7.4 C 20 %
1475 09-12-2019 05:41:18 7.1 C 20 %
Sensor: Nr:Datum:Temp:Feuchte:
Aussen-T/F 1476 09-12-2019 05:51:17 7.2 C 20 %
1477 09-12-2019 06:01:17 7.4 C 20 %
1478 09-12-2019 06:11:17 7.4 C 20 %
1479 09-12-2019 06:21:17 7.4 C 20 %
1480 09-12-2019 06:31:17 7.6 C 20 %
1481 09-12-2019 06:41:17 7.8 C 20 %
1482 09-12-2019 06:51:18 7.7 C 20 %
1483 09-12-2019 07:01:17 7.6 C 20 %
1484 09-12-2019 07:11:18 7.5 C 20 %
1485 09-12-2019 07:21:17 7.2 C 20 %
1486 09-12-2019 07:31:17 7.2 C 20 %
1487 09-12-2019 07:41:17 7.6 C 20 %
1488 09-12-2019 07:51:18 7.5 C 20 %
1489 09-12-2019 08:01:17 7.9 C 20 %
1490 09-12-2019 08:11:17 7.8 C 20 %
1491 09-12-2019 08:21:17 7.9 C 20 %
1492 09-12-2019 08:31:17 8 C 20 %
1493 09-12-2019 08:41:17 7.9 C 20 %
1494 09-12-2019 08:51:17 7.9 C 20 %
1495 09-12-2019 09:01:17 7.8 C 20 %
1496 09-12-2019 09:11:17 7.9 C 20 %
1497 09-12-2019 09:21:17 7.5 C 20 %
1498 09-12-2019 09:31:17 7.4 C 23 %
1499 09-12-2019 09:41:17 7.5 C 21 %
1500 09-12-2019 09:51:17 7.7 C 21 %
Sensor: Nr:Datum:Temp:Feuchte:
Aussen-T/F 1501 09-12-2019 10:01:17 7.9 C 21 %
1502 09-12-2019 10:11:17 7.9 C 21 %
1503 09-12-2019 10:21:17 7.9 C 20 %
1504 09-12-2019 10:31:18 7.9 C 21 %
1505 09-12-2019 10:41:18 7.9 C 21 %
1506 09-12-2019 10:51:17 8.1 C 20 %
1507 09-12-2019 11:01:17 8 C 20 %
1508 09-12-2019 11:11:17 8.2 C 20 %
1509 09-12-2019 11:21:17 8.4 C 20 %
1510 09-12-2019 11:31:18 8.4 C 20 %
1511 09-12-2019 11:41:18 8.3 C 20 %
1512 09-12-2019 11:51:17 8.1 C 20 %
1513 09-12-2019 12:01:17 8.2 C 20 %
1514 09-12-2019 12:11:17 8 C 20 %
1515 09-12-2019 12:21:18 8.1 C 20 %
1516 09-12-2019 12:31:17 8.3 C 20 %
1517 09-12-2019 12:41:17 8.2 C 20 %
1518 09-12-2019 12:51:17 8.3 C 20 %
1519 09-12-2019 13:01:18 8.3 C 20 %
1520 09-12-2019 13:11:18 8.3 C 20 %
1521 09-12-2019 13:21:17 8.2 C 20 %
1522 09-12-2019 13:31:17 8.1 C 20 %
1523 09-12-2019 13:41:17 8.5 C 20 %
1524 09-12-2019 13:51:17 8.8 C 20 %
1525 09-12-2019 14:01:17 8.6 C 20 %
Sensor: Nr:Datum:Temp:Feuchte:
Aussen-T/F 1526 09-12-2019 14:11:17 8.5 C 20 %
1527 09-12-2019 14:21:17 8.6 C 20 %
1528 09-12-2019 14:31:17 8.4 C 20 %
1529 09-12-2019 14:41:17 7.9 C 20 %
1530 09-12-2019 14:51:18 8.4 C 20 %
1531 09-12-2019 15:01:17 7.9 C 20 %
1532 09-12-2019 15:11:17 7.3 C 25 %
1533 09-12-2019 15:21:17 7 C 27 %
1534 09-12-2019 15:31:18 7.1 C 26 %
1535 09-12-2019 15:41:18 7.1 C 25 %
1536 09-12-2019 15:51:17 7.4 C 23 %
1537 09-12-2019 16:01:18 7.5 C 20 %
1538 09-12-2019 16:11:18 7.5 C 20 %
1539 09-12-2019 16:21:17 7.6 C 20 %
1540 09-12-2019 16:31:18 7.3 C 20 %
1541 09-12-2019 16:41:18 7.4 C 20 %
1542 09-12-2019 16:51:17 7.3 C 20 %
1543 09-12-2019 17:01:18 7.1 C 20 %
1544 09-12-2019 17:11:18 7.2 C 20 %
1545 09-12-2019 17:21:17 6.7 C 25 %
1546 09-12-2019 17:31:17 6.1 C 32 %
1547 09-12-2019 17:41:17 5.9 C 36 %
1548 09-12-2019 17:51:17 6 C 34 %
1549 09-12-2019 18:01:18 6 C 30 %
1550 09-12-2019 18:11:18 6.1 C 31 %
Sensor: Nr:Datum:Temp:Feuchte:
Aussen-T/F 1551 09-12-2019 18:21:17 6 C 33 %
1552 09-12-2019 18:31:17 5.8 C 35 %
1553 09-12-2019 18:41:17 5.7 C 37 %
1554 09-12-2019 18:51:18 5.7 C 38 %
1555 09-12-2019 19:01:17 5.6 C 35 %
1556 09-12-2019 19:11:17 5.5 C 38 %
1557 09-12-2019 19:21:17 5.6 C 39 %
1558 09-12-2019 19:31:17 5.6 C 38 %
1559 09-12-2019 19:41:17 5.6 C 38 %
1560 09-12-2019 19:51:17 5.6 C 37 %
1561 09-12-2019 20:01:17 5.6 C 35 %
1562 09-12-2019 20:11:17 5.6 C 34 %
1563 09-12-2019 20:21:17 5.6 C 35 %
1564 09-12-2019 20:31:17 5.6 C 32 %
1565 09-12-2019 20:41:17 5.4 C 33 %
1566 09-12-2019 20:51:17 5.3 C 34 %
1567 09-12-2019 21:01:17 5.2 C 33 %
1568 09-12-2019 21:11:18 5.1 C 34 %
1569 09-12-2019 21:21:17 5.2 C 35 %
1570 09-12-2019 21:31:17 5.3 C 32 %
1571 09-12-2019 21:41:17 5.1 C 31 %
1572 09-12-2019 21:51:17 5 C 31 %
1573 09-12-2019 22:01:17 4.8 C 32 %
1574 09-12-2019 22:11:17 4.7 C 31 %
1575 09-12-2019 22:21:17 4.9 C 30 %
Sensor: Nr:Datum:Temp:Feuchte:
Aussen-T/F 1576 09-12-2019 22:31:17 4.9 C 30 %
1577 09-12-2019 22:41:17 4.9 C 30 %
1578 09-12-2019 22:51:18 4.7 C 30 %
1579 09-12-2019 23:01:17 4.6 C 29 %
1580 09-12-2019 23:11:17 4.5 C 29 %
1581 09-12-2019 23:21:17 4.1 C 30 %
1582 09-12-2019 23:31:18 4 C 30 %
1583 09-12-2019 23:41:18 4.1 C 29 %
1584 09-12-2019 23:51:17 4.1 C 29 %
1585 10-12-2019 00:01:17 3.7 C 30 %
1586 10-12-2019 00:11:17 4.1 C 28 %
1587 10-12-2019 00:21:17 3.4 C 30 %
1588 10-12-2019 00:31:17 3.6 C 30 %
1589 10-12-2019 00:41:17 3.1 C 31 %
1590 10-12-2019 00:51:17 3 C 31 %
1591 10-12-2019 01:01:17 2.4 C 33 %
1592 10-12-2019 01:11:17 2.4 C 36 %
1593 10-12-2019 01:21:17 2.5 C 36 %
1594 10-12-2019 01:31:18 2.8 C 34 %
1595 10-12-2019 01:41:18 2.4 C 34 %
1596 10-12-2019 01:51:17 2.4 C 33 %
1597 10-12-2019 02:01:18 2.7 C 33 %
1598 10-12-2019 02:11:18 2.9 C 32 %
1599 10-12-2019 02:21:17 2.3 C 33 %
1600 10-12-2019 02:31:17 2.1 C 35 %
Sensor: Nr:Datum:Temp:Feuchte:
Aussen-T/F 1601 10-12-2019 02:41:17 1.7 C 37 %
1602 10-12-2019 02:51:17 1.6 C 39 %
1603 10-12-2019 03:01:17 1.8 C 40 %
1604 10-12-2019 03:11:17 1.8 C 40 %
1605 10-12-2019 03:21:17 1.8 C 40 %
1606 10-12-2019 03:31:17 2 C 40 %
1607 10-12-2019 03:41:17 1.4 C 41 %
1608 10-12-2019 03:51:17 1.4 C 43 %
1609 10-12-2019 04:01:17 1.1 C 43 %
1610 10-12-2019 04:11:17 1.3 C 41 %
1611 10-12-2019 04:21:17 0.6 C 41 %
1612 10-12-2019 04:31:18 0.6 C 44 %
1613 10-12-2019 04:41:18 0.7 C 45 %
1614 10-12-2019 04:51:17 0.9 C 46 %
1615 10-12-2019 05:01:17 1.1 C 44 %
1616 10-12-2019 05:11:17 1.8 C 41 %
1617 10-12-2019 05:21:18 2.2 C 35 %
1618 10-12-2019 05:31:18 2 C 35 %
1619 10-12-2019 05:41:18 2 C 35 %
1620 10-12-2019 05:51:17 1.8 C 36 %
1621 10-12-2019 06:01:17 1.5 C 36 %
1622 10-12-2019 06:11:17 1.6 C 37 %
1623 10-12-2019 06:21:18 1.4 C 36 %
1624 10-12-2019 06:31:17 1.1 C 38 %
1625 10-12-2019 06:41:17 0.9 C 42 %
Sensor: Nr:Datum:Temp:Feuchte:
Aussen-T/F 1626 10-12-2019 06:51:17 1.2 C 42 %
1627 10-12-2019 07:01:18 1.3 C 40 %
1628 10-12-2019 07:11:18 1.5 C 40 %
1629 10-12-2019 07:21:17 1.7 C 36 %
1630 10-12-2019 07:31:17 1.2 C 37 %
1631 10-12-2019 07:41:17 0.8 C 41 %
1632 10-12-2019 07:51:17 0.8 C 41 %
1633 10-12-2019 08:01:17 0.7 C 41 %
1634 10-12-2019 08:11:17 0.8 C 41 %
1635 10-12-2019 08:21:17 0.4 C 42 %
1636 10-12-2019 08:31:18 0.6 C 42 %
1637 10-12-2019 08:41:18 0.4 C 42 %
1638 10-12-2019 08:51:17 0.4 C 43 %
1639 10-12-2019 09:01:17 0.1 C 42 %
1640 10-12-2019 09:11:17 0.5 C 44 %
1641 10-12-2019 09:21:17 0.8 C 44 %
1642 10-12-2019 09:31:17 1.4 C 42 %
1643 10-12-2019 09:41:17 1.7 C 39 %
1644 10-12-2019 09:51:17 1.8 C 39 %
1645 10-12-2019 10:01:17 2.2 C 36 %
1646 10-12-2019 10:11:17 2.5 C 35 %
1647 10-12-2019 10:21:17 2.7 C 33 %
1648 10-12-2019 10:31:17 2.7 C 33 %
1649 10-12-2019 10:41:17 2.5 C 33 %
1650 10-12-2019 10:51:17 2.4 C 35 %
Sensor: Nr:Datum:Temp:Feuchte:
Aussen-T/F 1651 10-12-2019 11:01:17 2.4 C 34 %
1652 10-12-2019 11:11:17 2.5 C 34 %
1653 10-12-2019 11:21:17 2.3 C 35 %
1654 10-12-2019 11:31:18 2.2 C 36 %
1655 10-12-2019 11:41:18 2.9 C 34 %
1656 10-12-2019 11:51:17 3.5 C 30 %
1657 10-12-2019 12:01:17 3.7 C 30 %
1658 10-12-2019 12:11:17 3.8 C 30 %
1659 10-12-2019 12:21:17 3.9 C 30 %
1660 10-12-2019 12:31:17 3.9 C 30 %
1661 10-12-2019 12:41:17 4.3 C 27 %
1662 10-12-2019 12:51:17 4.5 C 27 %
1663 10-12-2019 13:01:17 4.6 C 27 %
1664 10-12-2019 13:11:17 4.7 C 27 %
1665 10-12-2019 13:21:17 4.7 C 27 %
1666 10-12-2019 13:31:17 4.9 C 27 %
1667 10-12-2019 13:41:17 5.1 C 25 %
1668 10-12-2019 13:51:17 5 C 25 %
1669 10-12-2019 14:01:17 4.6 C 27 %
1670 10-12-2019 14:11:17 4.2 C 28 %
1671 10-12-2019 14:21:17 3.8 C 30 %
1672 10-12-2019 14:31:18 3.9 C 30 %
1673 10-12-2019 14:41:18 3.8 C 30 %
1674 10-12-2019 14:51:17 3.5 C 30 %
1675 10-12-2019 15:01:17 3.5 C 30 %
Sensor: Nr:Datum:Temp:Feuchte:
Aussen-T/F 1676 10-12-2019 15:11:17 3.3 C 31 %
1677 10-12-2019 15:21:17 3.2 C 31 %
1678 10-12-2019 15:31:17 3.1 C 31 %
1679 10-12-2019 15:41:18 3.2 C 31 %
1680 10-12-2019 15:51:17 2.9 C 31 %
1681 10-12-2019 16:01:17 2.4 C 32 %
1682 10-12-2019 16:11:17 3.1 C 31 %
1683 10-12-2019 16:21:17 3.4 C 30 %
1684 10-12-2019 16:31:17 3.5 C 28 %
1685 10-12-2019 16:41:17 3.3 C 28 %
1686 10-12-2019 16:51:17 3.3 C 26 %
1687 10-12-2019 17:01:17 2.8 C 27 %
1688 10-12-2019 17:11:17 2.7 C 27 %
1689 10-12-2019 17:21:18 2.7 C 27 %
1690 10-12-2019 17:31:17 2.7 C 27 %
1691 10-12-2019 17:41:17 2.6 C 27 %
1692 10-12-2019 17:51:17 2.4 C 28 %
1693 10-12-2019 18:01:17 2.3 C 27 %
1694 10-12-2019 18:11:17 1.7 C 31 %
1695 10-12-2019 18:21:17 1.9 C 32 %
1696 10-12-2019 18:31:17 1.8 C 33 %
1697 10-12-2019 18:41:17 1.7 C 34 %
1698 10-12-2019 18:51:17 1.6 C 35 %
1699 10-12-2019 19:01:17 1.5 C 36 %
1700 10-12-2019 19:11:17 1.5 C 36 %
Sensor: Nr:Datum:Temp:Feuchte:
Aussen-T/F 1701 10-12-2019 19:21:17 1.6 C 36 %
1702 10-12-2019 19:31:17 1.5 C 36 %
1703 10-12-2019 19:41:18 1.7 C 36 %
1704 10-12-2019 19:51:17 1.7 C 35 %
1705 10-12-2019 20:01:17 2.2 C 32 %
1706 10-12-2019 20:11:17 2.1 C 32 %
1707 10-12-2019 20:21:17 2.7 C 29 %
1708 10-12-2019 20:31:18 2.9 C 28 %
1709 10-12-2019 20:41:18 2.6 C 30 %
1710 10-12-2019 20:51:17 2.3 C 30 %
1711 10-12-2019 21:01:17 2.5 C 31 %
1712 10-12-2019 21:11:17 2.3 C 31 %
1713 10-12-2019 21:21:17 2.1 C 32 %
1714 10-12-2019 21:31:17 2 C 33 %
1715 10-12-2019 21:41:18 1.8 C 35 %
1716 10-12-2019 21:51:17 1.8 C 36 %
1717 10-12-2019 22:01:17 1.8 C 36 %
1718 10-12-2019 22:11:17 2.1 C 35 %
1719 10-12-2019 22:21:17 2.2 C 34 %
1720 10-12-2019 22:31:17 2.4 C 32 %
1721 10-12-2019 22:41:17 2.5 C 33 %
1722 10-12-2019 22:51:18 2.8 C 31 %
1723 10-12-2019 23:01:17 2.9 C 30 %
1724 10-12-2019 23:11:17 3 C 30 %
1725 10-12-2019 23:21:17 3 C 30 %
Sensor: Nr:Datum:Temp:Feuchte:
Aussen-T/F 1726 10-12-2019 23:31:17 2.9 C 31 %
1727 10-12-2019 23:41:17 3.3 C 28 %
1728 10-12-2019 23:51:17 3.3 C 30 %
1729 11-12-2019 00:01:18 3.2 C 30 %
1730 11-12-2019 00:11:18 3.3 C 29 %
1731 11-12-2019 00:21:17 3.4 C 28 %
1732 11-12-2019 00:31:17 3.4 C 29 %
1733 11-12-2019 00:41:17 3.5 C 27 %
1734 11-12-2019 00:51:17 3.4 C 27 %
1735 11-12-2019 01:01:17 3.5 C 25 %
1736 11-12-2019 01:11:17 3.4 C 27 %
1737 11-12-2019 01:21:18 3.4 C 28 %
1738 11-12-2019 01:31:17 3.4 C 29 %
1739 11-12-2019 01:41:17 3.2 C 30 %
1740 11-12-2019 01:51:17 3.1 C 32 %
1741 11-12-2019 02:01:17 3 C 33 %
1742 11-12-2019 02:11:17 2.9 C 33 %
1743 11-12-2019 02:21:17 2.9 C 32 %
1744 11-12-2019 02:31:18 2.8 C 34 %
1745 11-12-2019 02:41:18 2.9 C 31 %
1746 11-12-2019 02:51:17 3 C 30 %
1747 11-12-2019 03:01:18 3.1 C 30 %
1748 11-12-2019 03:11:18 3 C 32 %
1749 11-12-2019 03:21:17 2.9 C 30 %
1750 11-12-2019 03:31:17 3 C 30 %
Sensor: Nr:Datum:Temp:Feuchte:
Aussen-T/F 1751 11-12-2019 03:41:17 3 C 35 %
1752 11-12-2019 03:51:17 2.8 C 36 %
1753 11-12-2019 04:01:17 2.7 C 35 %
1754 11-12-2019 04:11:17 2.8 C 35 %
1755 11-12-2019 04:21:17 2.8 C 35 %
1756 11-12-2019 04:31:18 2.8 C 38 %
1757 11-12-2019 04:41:18 2.7 C 38 %
1758 11-12-2019 04:51:17 2.7 C 39 %
1759 11-12-2019 05:01:17 2.7 C 39 %
1760 11-12-2019 05:11:17 2.7 C 39 %
1761 11-12-2019 05:21:18 2.7 C 40 %
1762 11-12-2019 05:31:17 2.6 C 42 %
1763 11-12-2019 05:41:17 2.6 C 43 %
1764 11-12-2019 05:51:17 2.5 C 44 %
1765 11-12-2019 06:01:18 2.5 C 44 %
1766 11-12-2019 06:11:18 2.5 C 44 %
1767 11-12-2019 06:21:17 2.5 C 44 %
1768 11-12-2019 06:31:17 2.5 C 44 %
1769 11-12-2019 06:41:17 2.5 C 44 %
1770 11-12-2019 06:51:17 2.5 C 44 %
1771 11-12-2019 07:01:17 2.4 C 44 %
1772 11-12-2019 07:11:17 2.5 C 44 %
1773 11-12-2019 07:21:17 2.4 C 44 %
1774 11-12-2019 07:31:17 2.4 C 44 %
1775 11-12-2019 07:41:18 2.4 C 43 %
Sensor: Nr:Datum:Temp:Feuchte:
Aussen-T/F 1776 11-12-2019 07:51:17 2.4 C 43 %
1777 11-12-2019 08:01:17 2.4 C 43 %
1778 11-12-2019 08:11:17 2.4 C 43 %
1779 11-12-2019 08:21:17 2.4 C 43 %
1780 11-12-2019 08:31:18 2.3 C 43 %
1781 11-12-2019 08:41:18 2.3 C 43 %
1782 11-12-2019 08:51:17 2.3 C 43 %
1783 11-12-2019 09:01:18 2.3 C 43 %
1784 11-12-2019 09:11:18 2.4 C 43 %
1785 11-12-2019 09:21:17 2.5 C 43 %
1786 11-12-2019 09:31:17 2.5 C 43 %
1787 11-12-2019 09:41:17 2.5 C 43 %
1788 11-12-2019 09:51:17 2.5 C 43 %
1789 11-12-2019 10:01:17 2.6 C 43 %
1790 11-12-2019 10:11:17 2.7 C 43 %
1791 11-12-2019 10:21:17 2.7 C 42 %
1792 11-12-2019 10:31:17 2.7 C 42 %
1793 11-12-2019 10:41:17 2.8 C 41 %
1794 11-12-2019 10:51:17 3.1 C 40 %
1795 11-12-2019 11:01:17 3 C 39 %
1796 11-12-2019 11:11:17 3.1 C 39 %
1797 11-12-2019 11:21:17 3.2 C 39 %
1798 11-12-2019 11:31:17 3.1 C 38 %
1799 11-12-2019 11:41:17 3.1 C 38 %
1800 11-12-2019 11:51:17 3.2 C 39 %
Sensor: Nr:Datum:Temp:Feuchte:
Aussen-T/F 1801 11-12-2019 12:01:18 3.2 C 39 %
1802 11-12-2019 12:11:18 3.1 C 39 %
1803 11-12-2019 12:21:17 3.1 C 39 %
1804 11-12-2019 12:31:17 3.1 C 40 %
1805 11-12-2019 12:41:17 3.1 C 40 %
1806 11-12-2019 12:51:17 3.1 C 40 %
1807 11-12-2019 13:01:18 3.2 C 40 %
1808 11-12-2019 13:11:18 3.2 C 40 %
1809 11-12-2019 13:21:17 3.2 C 40 %
1810 11-12-2019 13:31:17 3.2 C 40 %
1811 11-12-2019 13:41:17 3.2 C 40 %
1812 11-12-2019 13:51:17 3.2 C 40 %
1813 11-12-2019 14:01:17 3.2 C 41 %
1814 11-12-2019 14:11:18 3.2 C 41 %
1815 11-12-2019 14:21:17 3.2 C 41 %
1816 11-12-2019 14:31:17 3.3 C 41 %
1817 11-12-2019 14:41:17 3.3 C 42 %
1818 11-12-2019 14:51:17 3.3 C 42 %
1819 11-12-2019 15:01:17 3.3 C 42 %
1820 11-12-2019 15:11:17 3.4 C 42 %
1821 11-12-2019 15:21:17 3.3 C 42 %
1822 11-12-2019 15:31:18 3.3 C 42 %
1823 11-12-2019 15:41:18 3.3 C 42 %
1824 11-12-2019 15:51:17 3.3 C 42 %
1825 11-12-2019 16:01:17 3.2 C 42 %
Sensor: Nr:Datum:Temp:Feuchte:
Aussen-T/F 1826 11-12-2019 16:11:17 3.2 C 42 %
1827 11-12-2019 16:21:17 3.2 C 42 %
1828 11-12-2019 16:31:17 3.2 C 42 %
1829 11-12-2019 16:41:17 3.1 C 42 %
1830 11-12-2019 16:51:17 3.1 C 42 %
1831 11-12-2019 17:01:17 3.1 C 43 %
1832 11-12-2019 17:11:17 3.1 C 42 %
1833 11-12-2019 17:21:17 3.1 C 42 %
1834 11-12-2019 17:31:17 3.1 C 42 %
1835 11-12-2019 17:41:17 3.1 C 42 %
1836 11-12-2019 17:51:18 3.2 C 43 %
1837 11-12-2019 18:01:17 3.2 C 43 %
1838 11-12-2019 18:11:17 3.3 C 43 %
1839 11-12-2019 18:21:17 3.3 C 43 %
1840 11-12-2019 18:31:18 3.4 C 43 %
1841 11-12-2019 18:41:18 3.4 C 43 %
1842 11-12-2019 18:51:17 3.5 C 43 %
1843 11-12-2019 19:01:17 3.5 C 42 %
1844 11-12-2019 19:11:17 3.5 C 42 %
1845 11-12-2019 19:21:18 3.5 C 42 %
1846 11-12-2019 19:31:17 3.5 C 42 %
1847 11-12-2019 19:41:17 3.6 C 42 %
1848 11-12-2019 19:51:18 3.6 C 42 %
1849 11-12-2019 20:01:17 3.6 C 42 %
1850 11-12-2019 20:11:17 3.7 C 42 %
Sensor: Nr:Datum:Temp:Feuchte:
Aussen-T/F 1851 11-12-2019 20:21:17 3.8 C 42 %
1852 11-12-2019 20:31:18 3.8 C 42 %
1853 11-12-2019 20:41:18 3.9 C 42 %
1854 11-12-2019 20:51:17 4.1 C 41 %
1855 11-12-2019 21:01:17 4.1 C 40 %
1856 11-12-2019 21:11:17 4.3 C 39 %
1857 11-12-2019 21:21:17 4.4 C 37 %
1858 11-12-2019 21:31:17 4.1 C 37 %
1859 11-12-2019 21:41:17 4.3 C 37 %
1860 11-12-2019 21:51:17 4.3 C 36 %
1861 11-12-2019 22:01:17 4.5 C 35 %
1862 11-12-2019 22:11:17 4.1 C 35 %
1863 11-12-2019 22:21:17 3.9 C 37 %
1864 11-12-2019 22:31:17 3.6 C 39 %
1865 11-12-2019 22:41:17 3.8 C 39 %
1866 11-12-2019 22:51:18 3.5 C 40 %
1867 11-12-2019 23:01:17 3.8 C 40 %
1868 11-12-2019 23:11:17 3.8 C 40 %
1869 11-12-2019 23:21:17 3.4 C 40 %
1870 11-12-2019 23:31:17 3 C 41 %
1871 11-12-2019 23:41:17 3.4 C 43 %
1872 11-12-2019 23:51:18 3.2 C 42 %
1873 12-12-2019 00:01:17 3 C 42 %
1874 12-12-2019 00:11:17 2.9 C 43 %
1875 12-12-2019 00:21:17 2.8 C 43 %
Sensor: Nr:Datum:Temp:Feuchte:
Aussen-T/F 1876 12-12-2019 00:31:17 2.5 C 43 %
1877 12-12-2019 00:41:17 2.4 C 43 %
1878 12-12-2019 00:51:17 2.3 C 43 %
1879 12-12-2019 01:01:17 2.7 C 44 %
1880 12-12-2019 01:11:17 2.8 C 44 %
1881 12-12-2019 01:21:18 2.6 C 43 %
1882 12-12-2019 01:31:17 2.2 C 43 %
1883 12-12-2019 01:41:17 2.5 C 43 %
1884 12-12-2019 01:51:18 2.1 C 43 %
1885 12-12-2019 02:01:17 1.8 C 44 %
1886 12-12-2019 02:11:17 1.6 C 44 %
1887 12-12-2019 02:21:17 1.7 C 44 %
1888 12-12-2019 02:31:18 1.6 C 44 %
1889 12-12-2019 02:41:18 2 C 43 %
1890 12-12-2019 02:51:17 2 C 43 %
1891 12-12-2019 03:01:17 2.3 C 43 %
1892 12-12-2019 03:11:17 2.4 C 43 %
1893 12-12-2019 03:21:17 2.5 C 43 %
1894 12-12-2019 03:31:17 2.4 C 43 %
1895 12-12-2019 03:41:17 2.5 C 43 %
1896 12-12-2019 03:51:17 2.7 C 43 %
1897 12-12-2019 04:01:17 2.6 C 43 %
1898 12-12-2019 04:11:17 2.7 C 43 %
1899 12-12-2019 04:21:17 2.8 C 43 %
1900 12-12-2019 04:31:17 2.8 C 43 %
Sensor: Nr:Datum:Temp:Feuchte:
Aussen-T/F 1901 12-12-2019 04:41:17 2.9 C 43 %
1902 12-12-2019 04:51:17 2.4 C 42 %
1903 12-12-2019 05:01:17 2 C 42 %
1904 12-12-2019 05:11:17 2.1 C 42 %
1905 12-12-2019 05:21:17 2.2 C 42 %
1906 12-12-2019 05:31:18 2.1 C 42 %
1907 12-12-2019 05:41:18 2.1 C 42 %
1908 12-12-2019 05:51:17 2.1 C 42 %
1909 12-12-2019 06:01:17 1.9 C 43 %
1910 12-12-2019 06:11:17 2 C 42 %
1911 12-12-2019 06:21:17 2.1 C 42 %
1912 12-12-2019 06:31:17 2.1 C 42 %
1913 12-12-2019 06:41:17 2.3 C 42 %
1914 12-12-2019 06:51:17 2.7 C 43 %
1915 12-12-2019 07:01:17 3 C 42 %
1916 12-12-2019 07:11:17 3 C 42 %
1917 12-12-2019 07:21:17 3 C 42 %
1918 12-12-2019 07:31:17 3 C 42 %
1919 12-12-2019 07:41:17 2.8 C 42 %
1920 12-12-2019 07:51:17 2.9 C 42 %
1921 12-12-2019 08:01:17 2.9 C 42 %
1922 12-12-2019 08:11:17 3.1 C 42 %
1923 12-12-2019 08:21:17 3.2 C 42 %
1924 12-12-2019 08:31:18 3.3 C 42 %
1925 12-12-2019 08:41:18 3.5 C 42 %
Sensor: Nr:Datum:Temp:Feuchte:
Aussen-T/F 1926 12-12-2019 08:51:17 3.5 C 42 %
1927 12-12-2019 09:01:18 3.5 C 42 %
1928 12-12-2019 09:11:18 3.6 C 42 %
1929 12-12-2019 09:21:17 3.9 C 42 %
1930 12-12-2019 09:31:17 3.9 C 42 %
1931 12-12-2019 09:41:17 3.7 C 41 %
1932 12-12-2019 09:51:17 3.5 C 41 %
1933 12-12-2019 10:01:17 3.9 C 41 %
1934 12-12-2019 10:11:17 4 C 40 %
1935 12-12-2019 10:21:18 4.4 C 37 %
1936 12-12-2019 10:31:17 4.6 C 35 %
1937 12-12-2019 10:41:17 4.7 C 32 %
1938 12-12-2019 10:51:17 4.8 C 31 %
1939 12-12-2019 11:01:18 4.7 C 32 %
1940 12-12-2019 11:11:18 4.6 C 31 %
1941 12-12-2019 11:21:17 4.4 C 31 %
1942 12-12-2019 11:31:17 4.4 C 32 %
1943 12-12-2019 11:41:17 4.7 C 31 %
1944 12-12-2019 11:51:18 4.9 C 29 %
1945 12-12-2019 12:01:17 5.1 C 29 %
1946 12-12-2019 12:11:17 5.1 C 27 %
1947 12-12-2019 12:21:17 5 C 26 %
1948 12-12-2019 12:31:18 4.7 C 27 %
1949 12-12-2019 12:41:18 4.7 C 28 %
1950 12-12-2019 12:51:17 4.7 C 27 %
Sensor: Nr:Datum:Temp:Feuchte:
Aussen-T/F 1951 12-12-2019 13:01:17 4.6 C 28 %
1952 12-12-2019 13:11:18 5 C 26 %
1953 12-12-2019 13:21:17 4.8 C 27 %
1954 12-12-2019 13:31:17 4.6 C 26 %
1955 12-12-2019 13:41:17 4.2 C 26 %
1956 12-12-2019 13:51:17 4.6 C 25 %
1957 12-12-2019 14:01:17 4.6 C 25 %
1958 12-12-2019 14:11:17 4.3 C 25 %
1959 12-12-2019 14:21:17 4 C 27 %
1960 12-12-2019 14:31:18 4.5 C 25 %
1961 12-12-2019 14:41:18 4.8 C 25 %
1962 12-12-2019 14:51:17 4.7 C 25 %
1963 12-12-2019 15:01:18 4 C 26 %
1964 12-12-2019 15:11:18 4.2 C 26 %
1965 12-12-2019 15:21:17 3.6 C 29 %
1966 12-12-2019 15:31:17 3.5 C 29 %
1967 12-12-2019 15:41:17 3.8 C 28 %
1968 12-12-2019 15:51:17 3.7 C 28 %
1969 12-12-2019 16:01:17 3.6 C 28 %
1970 12-12-2019 16:11:17 3.7 C 26 %
1971 12-12-2019 16:21:18 3.5 C 27 %
1972 12-12-2019 16:31:17 3.4 C 26 %
1973 12-12-2019 16:41:17 3.3 C 28 %
1974 12-12-2019 16:51:17 3.1 C 30 %
1975 12-12-2019 17:01:17 2.6 C 30 %
Sensor: Nr:Datum:Temp:Feuchte:
Aussen-T/F 1976 12-12-2019 17:11:17 1.7 C 35 %
1977 12-12-2019 17:21:17 1.2 C 36 %
1978 12-12-2019 17:31:17 1.1 C 38 %
1979 12-12-2019 17:41:17 0.9 C 41 %
1980 12-12-2019 17:51:17 1 C 40 %
1981 12-12-2019 18:01:17 1.1 C 40 %
1982 12-12-2019 18:11:17 1.1 C 40 %
1983 12-12-2019 18:21:17 1.1 C 40 %
1984 12-12-2019 18:31:17 1 C 40 %
1985 12-12-2019 18:41:17 0.9 C 41 %
1986 12-12-2019 18:51:17 0.7 C 41 %
1987 12-12-2019 19:01:17 0.7 C 41 %
1988 12-12-2019 19:11:17 0.6 C 41 %
1989 12-12-2019 19:21:17 0.6 C 42 %
1990 12-12-2019 19:31:17 0.6 C 42 %
1991 12-12-2019 19:41:17 0.7 C 42 %
1992 12-12-2019 19:51:17 0.7 C 41 %
1993 12-12-2019 20:01:17 0.6 C 41 %
1994 12-12-2019 20:11:17 0.6 C 41 %
1995 12-12-2019 20:21:17 0.6 C 41 %
1996 12-12-2019 20:31:17 0.6 C 41 %
1997 12-12-2019 20:41:17 0.6 C 41 %
1998 12-12-2019 20:51:17 1.3 C 42 %
1999 12-12-2019 21:01:17 1.6 C 38 %
2000 12-12-2019 21:11:17 1.6 C 36 %
Sensor: Nr:Datum:Temp:Feuchte:
Aussen-T/F 2001 12-12-2019 21:21:17 1.3 C 36 %
2002 12-12-2019 21:31:17 1.3 C 35 %
2003 12-12-2019 21:41:17 1 C 35 %
2004 12-12-2019 21:51:17 0.7 C 37 %
2005 12-12-2019 22:01:17 1.2 C 37 %
2006 12-12-2019 22:11:17 0.9 C 37 %
2007 12-12-2019 22:21:18 0.4 C 38 %
2008 12-12-2019 22:31:17 0.3 C 39 %
2009 12-12-2019 22:41:17 0.2 C 40 %
2010 12-12-2019 22:51:17 0.4 C 39 %
2011 12-12-2019 23:01:18 1.1 C 37 %
2012 12-12-2019 23:11:18 1.5 C 35 %
2013 12-12-2019 23:21:17 1.9 C 32 %
2014 12-12-2019 23:31:17 1.6 C 31 %
2015 12-12-2019 23:41:17 1.4 C 32 %
2016 12-12-2019 23:51:17 1.5 C 31 %
2017 13-12-2019 00:01:17 0.9 C 33 %
2018 13-12-2019 00:11:17 0.6 C 35 %
2019 13-12-2019 00:21:17 1 C 33 %
2020 13-12-2019 00:31:18 0.7 C 34 %
2021 13-12-2019 00:41:18 0.9 C 35 %
2022 13-12-2019 00:51:17 1.3 C 32 %
2023 13-12-2019 01:01:18 1.7 C 30 %
2024 13-12-2019 01:11:18 1.8 C 29 %
2025 13-12-2019 01:21:17 2 C 27 %
Sensor: Nr:Datum:Temp:Feuchte:
Aussen-T/F 2026 13-12-2019 01:31:17 1.9 C 28 %
2027 13-12-2019 01:41:17 2 C 27 %
2028 13-12-2019 01:51:17 2 C 27 %
2029 13-12-2019 02:01:18 1.9 C 29 %
2030 13-12-2019 02:11:18 2 C 27 %
2031 13-12-2019 02:21:17 2 C 27 %
2032 13-12-2019 02:31:17 2 C 27 %
2033 13-12-2019 02:41:17 2 C 27 %
2034 13-12-2019 02:51:17 2 C 27 %
2035 13-12-2019 03:01:17 1.8 C 29 %
2036 13-12-2019 03:11:17 1.8 C 30 %
2037 13-12-2019 03:21:17 1.7 C 30 %
2038 13-12-2019 03:31:17 1.6 C 30 %
2039 13-12-2019 03:41:17 1.7 C 30 %
2040 13-12-2019 03:51:17 1.6 C 31 %
2041 13-12-2019 04:01:17 1.4 C 32 %
2042 13-12-2019 04:11:17 1.5 C 32 %
2043 13-12-2019 04:21:17 1.6 C 32 %
2044 13-12-2019 04:31:17 1.6 C 32 %
2045 13-12-2019 04:41:17 1.6 C 32 %
2046 13-12-2019 04:51:17 1.4 C 34 %
2047 13-12-2019 05:01:17 1.4 C 35 %
2048 13-12-2019 05:11:17 1.5 C 34 %
2049 13-12-2019 05:21:17 1.5 C 34 %
2050 13-12-2019 05:31:18 1.7 C 33 %
Sensor: Nr:Datum:Temp:Feuchte:
Aussen-T/F 2051 13-12-2019 05:41:18 1.7 C 32 %
2052 13-12-2019 05:51:17 1.8 C 33 %
2053 13-12-2019 06:01:17 1.9 C 32 %
2054 13-12-2019 06:11:17 2 C 31 %
2055 13-12-2019 06:21:17 2 C 31 %
2056 13-12-2019 06:31:17 2 C 32 %
2057 13-12-2019 06:41:17 1.7 C 35 %
2058 13-12-2019 06:51:17 1.8 C 37 %
2059 13-12-2019 07:01:17 1.8 C 37 %
2060 13-12-2019 07:11:18 1.7 C 39 %
2061 13-12-2019 07:21:17 1.8 C 38 %
2062 13-12-2019 07:31:17 1.8 C 40 %
2063 13-12-2019 07:41:17 1.8 C 39 %
2064 13-12-2019 07:51:17 1.9 C 38 %
2065 13-12-2019 08:01:17 1.8 C 38 %
2066 13-12-2019 08:11:17 1.8 C 39 %
2067 13-12-2019 08:21:17 1.7 C 40 %
2068 13-12-2019 08:31:17 1.7 C 41 %
2069 13-12-2019 08:41:17 1.6 C 41 %
2070 13-12-2019 08:51:17 1.7 C 41 %
2071 13-12-2019 09:01:17 1.9 C 40 %
2072 13-12-2019 09:11:17 1.9 C 40 %
2073 13-12-2019 09:21:17 1.9 C 40 %
2074 13-12-2019 09:31:17 1.7 C 42 %
2075 13-12-2019 09:41:17 1.7 C 42 %
Sensor: Nr:Datum:Temp:Feuchte:
Aussen-T/F 2076 13-12-2019 09:51:18 1.9 C 43 %
2077 13-12-2019 10:01:17 1.8 C 43 %
2078 13-12-2019 10:11:17 1.9 C 43 %
2079 13-12-2019 10:21:18 2 C 41 %
2080 13-12-2019 10:31:17 2.2 C 41 %
2081 13-12-2019 10:41:17 2.3 C 41 %
2082 13-12-2019 10:51:18 2.3 C 41 %
2083 13-12-2019 11:01:17 2.4 C 41 %
2084 13-12-2019 11:11:17 2.3 C 40 %
2085 13-12-2019 11:21:17 2.3 C 40 %
2086 13-12-2019 11:31:17 2.4 C 41 %
2087 13-12-2019 11:41:17 2.5 C 41 %
2088 13-12-2019 11:51:18 2.8 C 42 %
2089 13-12-2019 12:01:17 3 C 41 %
2090 13-12-2019 12:11:17 3.1 C 39 %
2091 13-12-2019 12:21:17 3.2 C 38 %
2092 13-12-2019 12:31:17 3.5 C 38 %
2093 13-12-2019 12:41:17 3.5 C 38 %
2094 13-12-2019 12:51:18 3.6 C 38 %
2095 13-12-2019 13:01:18 3.8 C 39 %
2096 13-12-2019 13:11:18 4.1 C 37 %
2097 13-12-2019 13:21:17 4.6 C 38 %
2098 13-12-2019 13:31:17 5.2 C 35 %
2099 13-12-2019 13:41:17 5.7 C 35 %
2100 13-12-2019 13:51:17 6.4 C 31 %
Sensor: Nr:Datum:Temp:Feuchte:
Aussen-T/F 2101 13-12-2019 14:01:17 6.7 C 30 %
2102 13-12-2019 14:11:17 7 C 28 %
2103 13-12-2019 14:21:17 6.8 C 29 %
2104 13-12-2019 14:31:17 6.8 C 28 %
2105 13-12-2019 14:41:17 6.7 C 28 %
2106 13-12-2019 14:51:18 6.4 C 29 %
2107 13-12-2019 15:01:18 6.3 C 29 %
2108 13-12-2019 15:11:18 6.3 C 29 %
2109 13-12-2019 15:21:17 6.2 C 30 %
2110 13-12-2019 15:31:17 5.9 C 30 %
2111 13-12-2019 15:41:17 5.8 C 31 %
2112 13-12-2019 15:51:17 5.5 C 31 %
2113 13-12-2019 16:01:18 5.3 C 30 %
2114 13-12-2019 16:11:18 5.4 C 30 %
2115 13-12-2019 16:21:17 5.3 C 30 %
2116 13-12-2019 16:31:17 5.1 C 30 %
2117 13-12-2019 16:41:17 4.8 C 31 %
2118 13-12-2019 16:51:17 4.5 C 31 %
2119 13-12-2019 17:01:17 4.6 C 31 %
2120 13-12-2019 17:11:17 4.5 C 31 %
2121 13-12-2019 17:21:17 4.3 C 34 %
2122 13-12-2019 17:31:18 4.3 C 34 %
2123 13-12-2019 17:41:18 4.2 C 33 %
2124 13-12-2019 17:51:17 4 C 33 %
2125 13-12-2019 18:01:17 3.8 C 36 %
Sensor: Nr:Datum:Temp:Feuchte:
Aussen-T/F 2126 13-12-2019 18:11:17 3.7 C 40 %
2127 13-12-2019 18:21:17 3.8 C 39 %
2128 13-12-2019 18:31:17 3.8 C 40 %
2129 13-12-2019 18:41:18 3.8 C 39 %
2130 13-12-2019 18:51:17 3.9 C 36 %
2131 13-12-2019 19:01:17 3.9 C 36 %
2132 13-12-2019 19:11:17 3.9 C 35 %
2133 13-12-2019 19:21:17 4 C 34 %
2134 13-12-2019 19:31:17 4.1 C 35 %
2135 13-12-2019 19:41:17 4 C 36 %
2136 13-12-2019 19:51:17 4.6 C 32 %
2137 13-12-2019 20:01:17 4.6 C 32 %
2138 13-12-2019 20:11:17 4.8 C 31 %
2139 13-12-2019 20:21:17 4.7 C 31 %
2140 13-12-2019 20:31:17 4.7 C 31 %
2141 13-12-2019 20:41:17 4.7 C 32 %
2142 13-12-2019 20:51:17 4.5 C 32 %
2143 13-12-2019 21:01:17 4.3 C 34 %
2144 13-12-2019 21:11:17 4 C 36 %
2145 13-12-2019 21:21:17 4.5 C 35 %
2146 13-12-2019 21:31:18 4.4 C 33 %
2147 13-12-2019 21:41:18 4.4 C 35 %
2148 13-12-2019 21:51:17 4.6 C 32 %
2149 13-12-2019 22:01:17 4.6 C 31 %
2150 13-12-2019 22:11:17 4.6 C 30 %
Sensor: Nr:Datum:Temp:Feuchte:
Aussen-T/F 2151 13-12-2019 22:21:17 4.7 C 30 %
2152 13-12-2019 22:31:18 4.7 C 30 %
2153 13-12-2019 22:41:18 3.8 C 34 %
2154 13-12-2019 22:51:17 3.8 C 36 %
2155 13-12-2019 23:01:17 4.5 C 32 %
2156 13-12-2019 23:11:17 5.1 C 29 %
2157 13-12-2019 23:21:17 5.2 C 28 %
2158 13-12-2019 23:31:17 5.2 C 28 %
2159 13-12-2019 23:41:17 5 C 30 %
2160 13-12-2019 23:51:17 5 C 30 %
2161 14-12-2019 00:01:17 4.4 C 32 %
2162 14-12-2019 00:11:17 4.5 C 30 %
2163 14-12-2019 00:21:17 4.6 C 30 %
2164 14-12-2019 00:31:18 4.3 C 33 %
2165 14-12-2019 00:41:18 4.7 C 32 %
2166 14-12-2019 00:51:17 5.1 C 28 %
2167 14-12-2019 01:01:17 5.4 C 27 %
2168 14-12-2019 01:11:17 5.3 C 27 %
2169 14-12-2019 01:21:17 5.2 C 26 %
2170 14-12-2019 01:31:17 5.1 C 26 %
2171 14-12-2019 01:41:17 5.3 C 25 %
2172 14-12-2019 01:51:17 5.2 C 25 %
2173 14-12-2019 02:01:17 5 C 26 %
2174 14-12-2019 02:11:17 4.5 C 30 %
2175 14-12-2019 02:21:17 4.6 C 29 %
Sensor: Nr:Datum:Temp:Feuchte:
Aussen-T/F 2176 14-12-2019 02:31:18 4.7 C 29 %
2177 14-12-2019 02:41:18 4.8 C 28 %
2178 14-12-2019 02:51:17 4.5 C 30 %
2179 14-12-2019 03:01:18 4.2 C 33 %
2180 14-12-2019 03:11:18 4.1 C 36 %
2181 14-12-2019 03:21:17 3.9 C 38 %
2182 14-12-2019 03:31:17 3.9 C 39 %
2183 14-12-2019 03:41:17 3.9 C 36 %
2184 14-12-2019 03:51:18 3.8 C 36 %
2185 14-12-2019 04:01:17 3.8 C 40 %
2186 14-12-2019 04:11:17 3.8 C 41 %
2187 14-12-2019 04:21:17 3.7 C 42 %
2188 14-12-2019 04:31:18 3.5 C 42 %
2189 14-12-2019 04:41:18 3.5 C 42 %
2190 14-12-2019 04:51:17 3.4 C 42 %
2191 14-12-2019 05:01:17 3.4 C 41 %
2192 14-12-2019 05:11:17 3.4 C 41 %
2193 14-12-2019 05:21:17 3.4 C 42 %
2194 14-12-2019 05:31:18 3.4 C 42 %
2195 14-12-2019 05:41:18 3.4 C 43 %
2196 14-12-2019 05:51:17 3.4 C 43 %
2197 14-12-2019 06:01:18 3.4 C 42 %
2198 14-12-2019 06:11:18 3.7 C 43 %
2199 14-12-2019 06:21:17 4 C 42 %
2200 14-12-2019 06:31:17 5 C 40 %
Sensor: Nr:Datum:Temp:Feuchte:
Aussen-T/F 2201 14-12-2019 06:41:17 5.2 C 39 %
2202 14-12-2019 06:51:18 5.6 C 36 %
2203 14-12-2019 07:01:17 5.6 C 36 %
2204 14-12-2019 07:11:18 5.7 C 36 %
2205 14-12-2019 07:21:17 5.8 C 36 %
2206 14-12-2019 07:31:17 5.8 C 36 %
2207 14-12-2019 07:41:17 6.3 C 37 %
2208 14-12-2019 07:51:17 6.5 C 36 %
2209 14-12-2019 08:01:17 6.8 C 35 %
2210 14-12-2019 08:11:17 7 C 28 %
2211 14-12-2019 08:21:17 7.2 C 26 %
2212 14-12-2019 08:31:18 7.1 C 25 %
2213 14-12-2019 08:41:18 6.9 C 25 %
2214 14-12-2019 08:51:17 6.7 C 25 %
2215 14-12-2019 09:01:17 6.9 C 23 %
2216 14-12-2019 09:11:17 6.7 C 23 %
2217 14-12-2019 09:21:18 6.5 C 23 %
2218 14-12-2019 09:31:18 6.7 C 20 %
2219 14-12-2019 09:41:18 6.5 C 21 %
2220 14-12-2019 09:51:17 6.7 C 21 %
2221 14-12-2019 10:01:17 6.7 C 21 %
2222 14-12-2019 10:11:17 6.6 C 23 %
2223 14-12-2019 10:21:17 6.6 C 25 %
2224 14-12-2019 10:31:17 6.7 C 25 %
2225 14-12-2019 10:41:17 6.4 C 26 %
Sensor: Nr:Datum:Temp:Feuchte:
Aussen-T/F 2226 14-12-2019 10:51:17 5.9 C 29 %
2227 14-12-2019 11:01:18 5.9 C 29 %
2228 14-12-2019 11:11:18 6.4 C 27 %
2229 14-12-2019 11:21:17 6.7 C 26 %
2230 14-12-2019 11:31:17 6.3 C 26 %
2231 14-12-2019 11:41:17 6.4 C 25 %
2232 14-12-2019 11:51:17 6.9 C 20 %
2233 14-12-2019 12:01:17 7 C 20 %
2234 14-12-2019 12:11:17 7.2 C 20 %
2235 14-12-2019 12:21:18 7 C 20 %
2236 14-12-2019 12:31:17 7.3 C 20 %
2237 14-12-2019 12:41:17 7.6 C 20 %
2238 14-12-2019 12:51:17 7.8 C 20 %
2239 14-12-2019 13:01:17 7.9 C 20 %
2240 14-12-2019 13:11:17 8 C 20 %
2241 14-12-2019 13:21:17 8.4 C 20 %
2242 14-12-2019 13:31:17 8.4 C 20 %
2243 14-12-2019 13:41:17 8.3 C 20 %
2244 14-12-2019 13:51:17 8.4 C 20 %
2245 14-12-2019 14:01:18 8.5 C 20 %
2246 14-12-2019 14:11:18 8.4 C 20 %
2247 14-12-2019 14:21:17 8.4 C 20 %
2248 14-12-2019 14:31:18 8.7 C 20 %
2249 14-12-2019 14:41:18 8.8 C 20 %
2250 14-12-2019 14:51:18 8.6 C 20 %
Sensor: Nr:Datum:Temp:Feuchte:
Aussen-T/F 2251 14-12-2019 15:01:17 7.3 C 23 %
2252 14-12-2019 15:11:17 6.8 C 28 %
2253 14-12-2019 15:21:17 6.6 C 30 %
2254 14-12-2019 15:31:17 6.7 C 28 %
2255 14-12-2019 15:41:18 6.8 C 28 %
2256 14-12-2019 15:51:17 7.1 C 26 %
2257 14-12-2019 16:01:17 7 C 26 %
2258 14-12-2019 16:11:17 6.9 C 26 %
2259 14-12-2019 16:21:17 6.9 C 27 %
2260 14-12-2019 16:31:18 7.2 C 25 %
2261 14-12-2019 16:41:18 7.6 C 25 %
2262 14-12-2019 16:51:17 7.5 C 25 %
2263 14-12-2019 17:01:17 7.6 C 25 %
2264 14-12-2019 17:11:17 7.6 C 25 %
2265 14-12-2019 17:21:17 7.4 C 25 %
2266 14-12-2019 17:31:18 7.2 C 26 %
2267 14-12-2019 17:41:18 6.9 C 27 %
2268 14-12-2019 17:51:17 7.1 C 26 %
2269 14-12-2019 18:01:17 7.1 C 26 %
2270 14-12-2019 18:11:17 7.3 C 26 %
2271 14-12-2019 18:22:17 7.6 C 25 %
2272 14-12-2019 18:31:17 7.8 C 25 %
2273 14-12-2019 18:41:17 7.4 C 25 %
2274 14-12-2019 18:52:17 7 C 26 %
2275 14-12-2019 19:01:18 6.7 C 27 %
Sensor: Nr:Datum:Temp:Feuchte:
Aussen-T/F 2276 14-12-2019 19:11:18 6.2 C 28 %
2277 14-12-2019 19:21:17 6.4 C 26 %
2278 14-12-2019 19:31:17 6.1 C 26 %
2279 14-12-2019 19:41:17 6.4 C 25 %
2280 14-12-2019 19:52:17 6.4 C 25 %
2281 14-12-2019 20:01:18 6.6 C 25 %
2282 14-12-2019 20:11:18 6.7 C 25 %
2283 14-12-2019 20:21:17 6.9 C 25 %
2284 14-12-2019 20:31:17 5.8 C 27 %
2285 14-12-2019 20:41:17 5.9 C 27 %
2286 14-12-2019 20:52:17 7 C 25 %
2287 14-12-2019 21:01:17 7.2 C 25 %
2288 14-12-2019 21:11:17 7 C 25 %
2289 14-12-2019 21:22:17 7.1 C 25 %
2290 14-12-2019 21:31:18 6.7 C 26 %
2291 14-12-2019 21:41:18 6.8 C 26 %
2292 14-12-2019 21:52:17 6.9 C 26 %
2293 14-12-2019 22:02:17 7.1 C 25 %
2294 14-12-2019 22:11:17 6.8 C 26 %
2295 14-12-2019 22:22:17 6.9 C 26 %
2296 14-12-2019 22:31:17 7.3 C 25 %
2297 14-12-2019 22:41:17 7 C 26 %
2298 14-12-2019 22:52:17 7.3 C 25 %
2299 14-12-2019 23:02:17 7.1 C 25 %
2300 14-12-2019 23:12:17 7.3 C 25 %
Sensor: Nr:Datum:Temp:Feuchte:
Aussen-T/F 2301 14-12-2019 23:22:17 7 C 26 %
2302 14-12-2019 23:31:18 7 C 26 %
2303 14-12-2019 23:41:18 7.4 C 25 %
2304 14-12-2019 23:51:18 7 C 25 %
2305 15-12-2019 00:02:17 6.4 C 27 %
2306 15-12-2019 00:11:17 6 C 28 %
2307 15-12-2019 00:22:17 5.6 C 30 %
2308 15-12-2019 00:31:18 5.3 C 31 %
2309 15-12-2019 00:41:18 5.1 C 32 %
2310 15-12-2019 00:52:17 5.2 C 32 %
2311 15-12-2019 01:02:17 5.2 C 32 %
2312 15-12-2019 01:12:17 5.3 C 33 %
2313 15-12-2019 01:22:17 5.5 C 33 %
2314 15-12-2019 01:31:18 5.7 C 31 %
2315 15-12-2019 01:41:18 5.6 C 31 %
2316 15-12-2019 01:52:17 5.6 C 31 %
2317 15-12-2019 02:02:17 5.9 C 31 %
2318 15-12-2019 02:12:17 5.8 C 32 %
2319 15-12-2019 02:22:17 5.9 C 32 %
2320 15-12-2019 02:32:18 5.7 C 35 %
2321 15-12-2019 02:42:18 5.8 C 37 %
2322 15-12-2019 02:52:17 5.9 C 39 %
2323 15-12-2019 03:02:18 5.9 C 40 %
2324 15-12-2019 03:12:18 5.9 C 41 %
2325 15-12-2019 03:22:17 6 C 41 %
Sensor: Nr:Datum:Temp:Feuchte:
Aussen-T/F 2326 15-12-2019 03:32:17 6 C 42 %
2327 15-12-2019 03:42:17 6.3 C 42 %
2328 15-12-2019 03:52:17 6.4 C 42 %
2329 15-12-2019 04:02:17 6.8 C 42 %
2330 15-12-2019 04:12:17 7.3 C 41 %
2331 15-12-2019 04:22:17 7.3 C 41 %
2332 15-12-2019 04:32:17 7.5 C 41 %
2333 15-12-2019 04:42:17 7.9 C 40 %
2334 15-12-2019 04:52:17 8 C 39 %
2335 15-12-2019 05:02:17 8.2 C 38 %
2336 15-12-2019 05:12:17 8.2 C 37 %
2337 15-12-2019 05:22:17 8.4 C 37 %
2338 15-12-2019 05:32:18 9 C 34 %
2339 15-12-2019 05:42:18 10 C 30 %
2340 15-12-2019 05:52:17 10.2 C 30 %
2341 15-12-2019 06:02:17 10.3 C 29 %
2342 15-12-2019 06:12:17 10.3 C 29 %
2343 15-12-2019 06:22:17 10.1 C 29 %
2344 15-12-2019 06:32:17 10.5 C 28 %
2345 15-12-2019 06:42:17 10.8 C 27 %
2346 15-12-2019 06:52:17 10.7 C 27 %
2347 15-12-2019 07:02:17 10.5 C 27 %
2348 15-12-2019 07:12:17 10.9 C 27 %
2349 15-12-2019 07:22:17 10.3 C 27 %
2350 15-12-2019 07:32:17 10.6 C 27 %
Sensor: Nr:Datum:Temp:Feuchte:
Aussen-T/F 2351 15-12-2019 07:42:17 10.5 C 27 %
2352 15-12-2019 07:52:17 10.7 C 27 %
2353 15-12-2019 08:02:17 10.7 C 27 %
2354 15-12-2019 08:12:17 11 C 26 %
2355 15-12-2019 08:22:17 10.9 C 27 %
2356 15-12-2019 08:32:18 10.6 C 27 %
2357 15-12-2019 08:42:18 10.2 C 28 %
2358 15-12-2019 08:52:17 9.5 C 34 %
2359 15-12-2019 09:02:17 9.2 C 34 %
2360 15-12-2019 09:12:17 8.9 C 35 %
2361 15-12-2019 09:22:17 8.7 C 33 %
2362 15-12-2019 09:32:17 8.5 C 34 %
2363 15-12-2019 09:42:17 8.2 C 35 %
2364 15-12-2019 09:52:18 8 C 36 %
2365 15-12-2019 10:02:18 8.1 C 34 %
2366 15-12-2019 10:12:18 8.2 C 32 %
2367 15-12-2019 10:22:18 8.2 C 34 %
2368 15-12-2019 10:32:17 8.1 C 33 %
2369 15-12-2019 10:42:17 8.5 C 31 %
2370 15-12-2019 10:52:17 8.7 C 30 %
2371 15-12-2019 11:02:17 8.4 C 30 %
2372 15-12-2019 11:12:17 8.5 C 30 %
2373 15-12-2019 11:22:17 8.5 C 28 %
2374 15-12-2019 11:32:17 8.6 C 28 %
2375 15-12-2019 11:42:17 8.6 C 28 %
Sensor: Nr:Datum:Temp:Feuchte:
Aussen-T/F 2376 15-12-2019 11:52:17 8.3 C 27 %
2377 15-12-2019 12:02:17 8.3 C 27 %
2378 15-12-2019 12:12:17 8.1 C 27 %
2379 15-12-2019 12:22:17 8.1 C 28 %
2380 15-12-2019 12:32:17 7.9 C 29 %
2381 15-12-2019 12:42:17 8.2 C 28 %
2382 15-12-2019 12:52:18 8.4 C 28 %
2383 15-12-2019 13:02:18 8.7 C 27 %
2384 15-12-2019 13:12:18 9.1 C 25 %
2385 15-12-2019 13:22:17 9.3 C 23 %
2386 15-12-2019 13:32:17 9.2 C 21 %
2387 15-12-2019 13:42:17 9.2 C 20 %
2388 15-12-2019 13:52:18 9.2 C 20 %
2389 15-12-2019 14:02:17 9.2 C 20 %
2390 15-12-2019 14:12:17 9.3 C 20 %
2391 15-12-2019 14:22:17 9.3 C 20 %
2392 15-12-2019 14:32:17 9.1 C 20 %
2393 15-12-2019 14:42:17 9.1 C 20 %
2394 15-12-2019 14:52:17 9 C 20 %
2395 15-12-2019 15:02:17 9 C 20 %
2396 15-12-2019 15:12:17 8.9 C 20 %
2397 15-12-2019 15:22:17 8.9 C 20 %
2398 15-12-2019 15:32:17 8.8 C 20 %
2399 15-12-2019 15:42:17 8.7 C 20 %
2400 15-12-2019 15:52:17 8.7 C 20 %
Sensor: Nr:Datum:Temp:Feuchte:
Aussen-T/F 2401 15-12-2019 16:02:17 8.4 C 20 %
2402 15-12-2019 16:12:17 8.2 C 20 %
2403 15-12-2019 16:22:18 8.4 C 20 %
2404 15-12-2019 16:32:17 7.9 C 20 %
2405 15-12-2019 16:42:17 7.6 C 20 %
2406 15-12-2019 16:52:17 8 C 20 %
2407 15-12-2019 17:02:17 7.4 C 20 %
2408 15-12-2019 17:12:17 7.4 C 20 %
2409 15-12-2019 17:22:17 7.8 C 20 %
2410 15-12-2019 17:32:17 7.2 C 21 %
2411 15-12-2019 17:42:17 7.6 C 20 %
2412 15-12-2019 17:52:17 7.7 C 20 %
2413 15-12-2019 18:02:17 7.5 C 20 %
2414 15-12-2019 18:12:17 8.2 C 20 %
2415 15-12-2019 18:22:17 7.5 C 20 %
2416 15-12-2019 18:32:17 6.9 C 25 %
2417 15-12-2019 18:42:17 6.2 C 27 %
2418 15-12-2019 18:52:18 5.9 C 29 %
2419 15-12-2019 19:02:17 5.4 C 30 %
2420 15-12-2019 19:12:17 5.3 C 31 %
2421 15-12-2019 19:22:17 4.9 C 32 %
2422 15-12-2019 19:32:18 5.3 C 32 %
2423 15-12-2019 19:42:18 5 C 33 %
2424 15-12-2019 19:52:17 5.4 C 33 %
2425 15-12-2019 20:02:17 5.2 C 33 %
Sensor: Nr:Datum:Temp:Feuchte:
Aussen-T/F 2426 15-12-2019 20:12:17 4.7 C 35 %
2427 15-12-2019 20:22:17 4.4 C 36 %
2428 15-12-2019 20:32:17 4.3 C 37 %
2429 15-12-2019 20:42:17 3.9 C 39 %
2430 15-12-2019 20:52:17 3.7 C 40 %
2431 15-12-2019 21:02:17 3.5 C 41 %
2432 15-12-2019 21:12:17 3.3 C 41 %
2433 15-12-2019 21:22:17 3.1 C 41 %
2434 15-12-2019 21:32:18 2.8 C 42 %
2435 15-12-2019 21:42:18 2.9 C 43 %
2436 15-12-2019 21:52:17 3.3 C 43 %
2437 15-12-2019 22:02:17 3.3 C 44 %
2438 15-12-2019 22:12:17 3.3 C 43 %
2439 15-12-2019 22:22:17 3.5 C 43 %
2440 15-12-2019 22:32:17 3.5 C 43 %
2441 15-12-2019 22:42:17 3.4 C 43 %
2442 15-12-2019 22:52:18 3.3 C 43 %
2443 15-12-2019 23:02:17 3.5 C 43 %
2444 15-12-2019 23:12:18 3.6 C 43 %
2445 15-12-2019 23:22:17 3.7 C 43 %
2446 15-12-2019 23:32:18 3.5 C 42 %
2447 15-12-2019 23:42:18 3.3 C 42 %
2448 15-12-2019 23:52:17 3.8 C 43 %
2449 16-12-2019 00:02:17 4 C 42 %
2450 16-12-2019 00:12:17 4.4 C 42 %
Sensor: Nr:Datum:Temp:Feuchte:
Aussen-T/F 2451 16-12-2019 00:22:17 4.4 C 42 %
2452 16-12-2019 00:32:17 4.5 C 42 %
2453 16-12-2019 00:42:17 4.5 C 42 %
2454 16-12-2019 00:52:18 4.7 C 42 %
2455 16-12-2019 01:02:17 5.1 C 41 %
2456 16-12-2019 01:12:17 5 C 41 %
2457 16-12-2019 01:22:17 5.2 C 42 %
2458 16-12-2019 01:32:17 5.2 C 41 %
2459 16-12-2019 01:42:18 5.3 C 42 %
2460 16-12-2019 01:52:17 5.5 C 42 %
2461 16-12-2019 02:02:18 5.4 C 42 %
2462 16-12-2019 02:12:18 5.5 C 42 %
2463 16-12-2019 02:22:17 5.7 C 42 %
2464 16-12-2019 02:32:17 5.7 C 42 %
2465 16-12-2019 02:42:17 5.9 C 42 %
2466 16-12-2019 02:52:18 5.8 C 41 %
2467 16-12-2019 03:02:17 5.8 C 41 %
2468 16-12-2019 03:12:17 5.9 C 41 %
2469 16-12-2019 03:22:17 5.9 C 41 %
2470 16-12-2019 03:32:18 5.9 C 41 %
2471 16-12-2019 03:42:18 5.8 C 41 %
2472 16-12-2019 03:52:17 6 C 41 %
2473 16-12-2019 04:02:17 6 C 41 %
2474 16-12-2019 04:12:17 6 C 41 %
2475 16-12-2019 04:22:17 5.9 C 41 %
Sensor: Nr:Datum:Temp:Feuchte:
Aussen-T/F 2476 16-12-2019 04:32:17 6.1 C 41 %
2477 16-12-2019 04:42:17 6.2 C 41 %
2478 16-12-2019 04:52:17 6.3 C 41 %
2479 16-12-2019 05:02:17 6.4 C 41 %
2480 16-12-2019 05:12:17 6.4 C 41 %
2481 16-12-2019 05:22:17 6.5 C 41 %
2482 16-12-2019 05:32:17 6.6 C 41 %
2483 16-12-2019 05:42:17 6.6 C 41 %
2484 16-12-2019 05:52:17 6.8 C 41 %
2485 16-12-2019 06:02:17 6.9 C 41 %
2486 16-12-2019 06:12:17 6.9 C 41 %
2487 16-12-2019 06:22:17 6.8 C 40 %
2488 16-12-2019 06:32:17 6.7 C 40 %
2489 16-12-2019 06:42:17 6.8 C 40 %
2490 16-12-2019 06:52:17 6.8 C 40 %
2491 16-12-2019 07:02:17 6.8 C 40 %
2492 16-12-2019 07:12:17 6.7 C 40 %
2493 16-12-2019 07:22:17 6.8 C 40 %
2494 16-12-2019 07:32:18 6.9 C 41 %
2495 16-12-2019 07:42:18 6.9 C 41 %
2496 16-12-2019 07:52:17 7 C 40 %
2497 16-12-2019 08:02:17 7.1 C 40 %
2498 16-12-2019 08:12:17 7 C 40 %
2499 16-12-2019 08:22:17 7.1 C 40 %
2500 16-12-2019 08:32:17 7.1 C 40 %
Sensor: Nr:Datum:Temp:Feuchte:
Aussen-T/F 2501 16-12-2019 08:42:17 7.1 C 40 %
2502 16-12-2019 08:52:17 7.2 C 40 %
2503 16-12-2019 09:02:17 7.3 C 40 %
2504 16-12-2019 09:12:17 7.5 C 40 %
2505 16-12-2019 09:22:18 7.4 C 40 %
2506 16-12-2019 09:32:17 7.5 C 40 %
2507 16-12-2019 09:42:17 7.5 C 40 %
2508 16-12-2019 09:52:17 7.6 C 40 %
2509 16-12-2019 10:02:18 7.6 C 40 %
2510 16-12-2019 10:12:18 7.7 C 40 %
2511 16-12-2019 10:22:17 7.8 C 40 %
2512 16-12-2019 10:32:17 7.9 C 40 %
2513 16-12-2019 10:42:17 8.1 C 40 %
2514 16-12-2019 10:52:17 8.2 C 40 %
2515 16-12-2019 11:02:17 8.3 C 40 %
2516 16-12-2019 11:12:17 8.5 C 40 %
2517 16-12-2019 11:22:17 8.9 C 40 %
2518 16-12-2019 11:32:18 8.8 C 39 %
2519 16-12-2019 11:42:18 9.1 C 39 %
2520 16-12-2019 11:52:17 9.4 C 39 %
2521 16-12-2019 12:02:17 9.3 C 38 %
2522 16-12-2019 12:12:17 9.3 C 37 %
2523 16-12-2019 12:22:17 9.3 C 37 %
2524 16-12-2019 12:32:17 9.4 C 37 %
2525 16-12-2019 12:42:17 9.4 C 38 %
Sensor: Nr:Datum:Temp:Feuchte:
Aussen-T/F 2526 16-12-2019 12:52:17 9.8 C 38 %
2527 16-12-2019 13:02:17 9.9 C 36 %
2528 16-12-2019 13:12:17 9.9 C 36 %
2529 16-12-2019 13:22:17 10 C 35 %
2530 16-12-2019 13:32:17 10.2 C 34 %
2531 16-12-2019 13:42:17 10.2 C 35 %
2532 16-12-2019 13:52:18 10.3 C 34 %
2533 16-12-2019 14:02:17 10.1 C 34 %
2534 16-12-2019 14:12:17 10.2 C 34 %
2535 16-12-2019 14:22:17 10.3 C 34 %
2536 16-12-2019 14:32:17 10.2 C 33 %
2537 16-12-2019 14:42:17 10.1 C 34 %
2538 16-12-2019 14:52:18 10.1 C 34 %
2539 16-12-2019 15:02:17 9.9 C 35 %
2540 16-12-2019 15:12:17 9.8 C 35 %
2541 16-12-2019 15:22:17 9.6 C 36 %
2542 16-12-2019 15:32:18 9.3 C 37 %
2543 16-12-2019 15:42:18 9.1 C 39 %
2544 16-12-2019 15:52:17 9 C 40 %
2545 16-12-2019 16:02:17 8.7 C 40 %
2546 16-12-2019 16:12:17 8.5 C 40 %
2547 16-12-2019 16:22:17 8.4 C 40 %
2548 16-12-2019 16:32:18 8.2 C 41 %
2549 16-12-2019 16:42:18 8 C 40 %
2550 16-12-2019 16:52:17 7.7 C 41 %
Sensor: Nr:Datum:Temp:Feuchte:
Aussen-T/F 2551 16-12-2019 17:02:17 7.4 C 41 %
2552 16-12-2019 17:12:17 7.3 C 41 %
2553 16-12-2019 17:22:17 7.5 C 41 %
2554 16-12-2019 17:32:17 7.3 C 41 %
2555 16-12-2019 17:42:17 7.2 C 41 %
2556 16-12-2019 17:52:17 7 C 41 %
2557 16-12-2019 18:02:17 7.1 C 41 %
2558 16-12-2019 18:12:17 7.4 C 41 %
2559 16-12-2019 18:22:17 7.5 C 41 %
2560 16-12-2019 18:32:17 8.2 C 40 %
2561 16-12-2019 18:42:17 8.1 C 38 %
2562 16-12-2019 18:52:17 8.7 C 37 %
2563 16-12-2019 19:02:18 8.5 C 35 %
2564 16-12-2019 19:12:18 7.9 C 36 %
2565 16-12-2019 19:22:17 7.7 C 37 %
2566 16-12-2019 19:32:17 8.5 C 40 %
2567 16-12-2019 19:42:17 7.9 C 37 %
2568 16-12-2019 19:52:18 8 C 37 %
2569 16-12-2019 20:02:17 7.9 C 37 %
2570 16-12-2019 20:12:17 8.1 C 36 %
2571 16-12-2019 20:22:17 7.7 C 37 %
2572 16-12-2019 20:32:17 8 C 39 %
2573 16-12-2019 20:42:17 7.9 C 36 %
2574 16-12-2019 20:52:17 7.8 C 36 %
2575 16-12-2019 21:02:17 7.3 C 37 %
Sensor: Nr:Datum:Temp:Feuchte:
Aussen-T/F 2576 16-12-2019 21:12:17 7.2 C 40 %
2577 16-12-2019 21:22:17 7.5 C 39 %
2578 16-12-2019 21:32:17 7.2 C 38 %
2579 16-12-2019 21:42:17 7 C 40 %
2580 16-12-2019 21:52:17 6.7 C 41 %
2581 16-12-2019 22:02:17 6.9 C 41 %
2582 16-12-2019 22:12:17 7.5 C 40 %
2583 16-12-2019 22:22:17 7.4 C 38 %
2584 16-12-2019 22:32:17 7.9 C 37 %
2585 16-12-2019 22:42:17 7.8 C 36 %
2586 16-12-2019 22:52:18 7.3 C 37 %
2587 16-12-2019 23:02:17 7.3 C 39 %
2588 16-12-2019 23:12:17 7.3 C 39 %
2589 16-12-2019 23:22:17 7.5 C 40 %
2590 16-12-2019 23:32:17 7.6 C 39 %
2591 16-12-2019 23:42:17 7.6 C 39 %
2592 16-12-2019 23:52:18 7.8 C 39 %
2593 17-12-2019 00:02:17 7.6 C 37 %
2594 17-12-2019 00:12:17 7.5 C 38 %
2595 17-12-2019 00:22:17 7.6 C 38 %
2596 17-12-2019 00:32:18 7.3 C 39 %
2597 17-12-2019 00:42:18 7.2 C 40 %
2598 17-12-2019 00:52:17 7.4 C 39 %
2599 17-12-2019 01:02:17 7.2 C 39 %
2600 17-12-2019 01:12:17 7.4 C 40 %
Sensor: Nr:Datum:Temp:Feuchte:
Aussen-T/F 2601 17-12-2019 01:22:17 7.8 C 39 %
2602 17-12-2019 01:32:17 7.3 C 37 %
2603 17-12-2019 01:42:17 7.4 C 38 %
2604 17-12-2019 01:52:17 7.4 C 37 %
2605 17-12-2019 02:02:18 7.4 C 37 %
2606 17-12-2019 02:12:18 7.6 C 37 %
2607 17-12-2019 02:22:17 7.3 C 37 %
2608 17-12-2019 02:32:17 7.1 C 37 %
2609 17-12-2019 02:42:17 7.5 C 36 %
2610 17-12-2019 02:52:18 7.6 C 36 %
2611 17-12-2019 03:02:17 8 C 35 %
2612 17-12-2019 03:12:17 8.1 C 35 %
2613 17-12-2019 03:22:17 8.4 C 35 %
2614 17-12-2019 03:32:17 8.8 C 32 %
2615 17-12-2019 03:42:17 8.9 C 32 %
2616 17-12-2019 03:52:18 8.8 C 32 %
2617 17-12-2019 04:02:17 8.5 C 32 %
2618 17-12-2019 04:12:17 8.5 C 32 %
2619 17-12-2019 04:22:17 8.4 C 32 %
2620 17-12-2019 04:32:17 8.4 C 32 %
2621 17-12-2019 04:42:17 8 C 32 %
2622 17-12-2019 04:52:18 8.3 C 33 %
2623 17-12-2019 05:02:17 8.5 C 33 %
2624 17-12-2019 05:12:17 8.5 C 33 %
2625 17-12-2019 05:22:17 8.2 C 33 %
Sensor: Nr:Datum:Temp:Feuchte:
Aussen-T/F 2626 17-12-2019 05:32:17 8.1 C 34 %
2627 17-12-2019 05:42:17 7.9 C 35 %
2628 17-12-2019 05:52:17 7.9 C 36 %
2629 17-12-2019 06:02:17 7.8 C 36 %
2630 17-12-2019 06:12:17 7.3 C 36 %
2631 17-12-2019 06:22:18 7.3 C 38 %
2632 17-12-2019 06:32:17 7.5 C 38 %
2633 17-12-2019 06:42:17 7.6 C 36 %
2634 17-12-2019 06:52:17 7.6 C 38 %
2635 17-12-2019 07:02:17 7.7 C 36 %
2636 17-12-2019 07:12:17 7.6 C 37 %
2637 17-12-2019 07:22:17 7.5 C 36 %
2638 17-12-2019 07:32:18 7 C 37 %
2639 17-12-2019 07:42:18 7.4 C 38 %
2640 17-12-2019 07:52:17 7.2 C 36 %
2641 17-12-2019 08:02:17 7.2 C 36 %
2642 17-12-2019 08:12:17 6.9 C 37 %
2643 17-12-2019 08:22:17 6.9 C 38 %
2644 17-12-2019 08:32:17 7 C 38 %
2645 17-12-2019 08:42:18 6.9 C 37 %
2646 17-12-2019 08:52:17 6.9 C 37 %
2647 17-12-2019 09:02:17 6.5 C 38 %
2648 17-12-2019 09:12:17 6.4 C 39 %
2649 17-12-2019 09:22:18 6.5 C 40 %
2650 17-12-2019 09:32:17 6.4 C 40 %
Sensor: Nr:Datum:Temp:Feuchte:
Aussen-T/F 2651 17-12-2019 09:42:17 6.6 C 40 %
2652 17-12-2019 09:52:17 6.3 C 39 %
2653 17-12-2019 10:02:18 6.4 C 40 %
2654 17-12-2019 10:12:18 6.4 C 40 %
2655 17-12-2019 10:22:17 6.4 C 39 %
2656 17-12-2019 10:32:17 6.8 C 40 %
2657 17-12-2019 10:42:17 7.2 C 37 %
2658 17-12-2019 10:52:17 8 C 36 %
2659 17-12-2019 11:02:17 8.6 C 34 %
2660 17-12-2019 11:12:17 8.5 C 32 %
2661 17-12-2019 11:22:17 8.7 C 32 %
2662 17-12-2019 11:32:17 9 C 32 %
2663 17-12-2019 11:42:17 9.1 C 32 %
2664 17-12-2019 11:52:17 9 C 32 %
2665 17-12-2019 12:02:17 9 C 34 %
2666 17-12-2019 12:12:17 9.2 C 34 %
2667 17-12-2019 12:22:17 9.5 C 33 %
2668 17-12-2019 12:32:17 9.7 C 32 %
2669 17-12-2019 12:42:17 9.8 C 32 %
2670 17-12-2019 12:52:17 9.6 C 32 %
2671 17-12-2019 13:02:17 10.1 C 31 %
2672 17-12-2019 13:12:17 10.4 C 30 %
2673 17-12-2019 13:22:17 10.6 C 30 %
2674 17-12-2019 13:32:17 11 C 29 %
2675 17-12-2019 13:42:17 11.6 C 28 %
Sensor: Nr:Datum:Temp:Feuchte:
Aussen-T/F 2676 17-12-2019 13:52:18 12.3 C 26 %
2677 17-12-2019 14:02:17 12.5 C 26 %
2678 17-12-2019 14:12:17 12.4 C 26 %
2679 17-12-2019 14:22:17 11.6 C 27 %
2680 17-12-2019 14:32:17 11.4 C 27 %
2681 17-12-2019 14:42:17 11.5 C 27 %
2682 17-12-2019 14:52:17 11.8 C 27 %
2683 17-12-2019 15:02:17 12 C 26 %
2684 17-12-2019 15:12:17 12 C 26 %
2685 17-12-2019 15:22:17 11.8 C 27 %
2686 17-12-2019 15:32:17 11.8 C 27 %
2687 17-12-2019 15:42:17 12.3 C 25 %
2688 17-12-2019 15:52:18 12.2 C 25 %
2689 17-12-2019 16:02:17 12.4 C 25 %
2690 17-12-2019 16:12:17 12.4 C 25 %
2691 17-12-2019 16:22:17 12.5 C 25 %
2692 17-12-2019 16:32:18 12.6 C 25 %
2693 17-12-2019 16:42:18 12.2 C 25 %
2694 17-12-2019 16:52:17 11.8 C 25 %
2695 17-12-2019 17:02:17 11.2 C 26 %
2696 17-12-2019 17:12:18 11.5 C 25 %
2697 17-12-2019 17:22:17 12 C 24 %
2698 17-12-2019 17:32:18 13.1 C 20 %
2699 17-12-2019 17:42:18 13.4 C 20 %
2700 17-12-2019 17:52:17 13.8 C 20 %
Sensor: Nr:Datum:Temp:Feuchte:
Aussen-T/F 2701 17-12-2019 18:02:17 13.4 C 20 %
2702 17-12-2019 18:12:17 13.2 C 20 %
2703 17-12-2019 18:22:17 13.6 C 20 %
2704 17-12-2019 18:32:17 13.7 C 20 %
2705 17-12-2019 18:42:17 13.1 C 21 %
2706 17-12-2019 18:52:17 12.7 C 25 %
2707 17-12-2019 19:02:17 12.8 C 25 %
2708 17-12-2019 19:12:17 13.1 C 22 %
2709 17-12-2019 19:22:17 12.8 C 25 %
2710 17-12-2019 19:32:18 11.7 C 29 %
2711 17-12-2019 19:42:18 11.6 C 29 %
2712 17-12-2019 19:52:17 11.6 C 30 %
2713 17-12-2019 20:02:18 11.6 C 30 %
2714 17-12-2019 20:12:18 11.5 C 31 %
2715 17-12-2019 20:22:17 11.6 C 31 %
2716 17-12-2019 20:32:17 11.3 C 33 %
2717 17-12-2019 20:42:17 11.2 C 35 %
2718 17-12-2019 20:52:17 11 C 36 %
2719 17-12-2019 21:02:17 10.9 C 36 %
2720 17-12-2019 21:12:17 10.5 C 38 %
2721 17-12-2019 21:22:17 10.3 C 39 %
2722 17-12-2019 21:32:17 10.4 C 38 %
2723 17-12-2019 21:42:17 11.5 C 31 %
2724 17-12-2019 21:52:17 11.3 C 31 %
2725 17-12-2019 22:02:17 13 C 25 %
Sensor: Nr:Datum:Temp:Feuchte:
Aussen-T/F 2726 17-12-2019 22:12:17 12.5 C 26 %
2727 17-12-2019 22:22:17 13.1 C 25 %
2728 17-12-2019 22:32:17 13.4 C 25 %
2729 17-12-2019 22:42:17 13.2 C 25 %
2730 17-12-2019 22:52:17 13.1 C 25 %
2731 17-12-2019 23:02:17 12.4 C 26 %
2732 17-12-2019 23:12:17 11.9 C 29 %
2733 17-12-2019 23:22:17 11.3 C 30 %
2734 17-12-2019 23:32:17 11.1 C 31 %
2735 17-12-2019 23:42:17 11 C 30 %
2736 17-12-2019 23:52:17 10.8 C 33 %
2737 18-12-2019 00:02:17 10.4 C 35 %
2738 18-12-2019 00:12:17 10.4 C 34 %
2739 18-12-2019 00:22:17 10.5 C 34 %
2740 18-12-2019 00:32:18 10.9 C 31 %
2741 18-12-2019 00:42:18 11 C 30 %
2742 18-12-2019 00:52:17 11 C 30 %
2743 18-12-2019 01:02:17 10.8 C 30 %
2744 18-12-2019 01:12:17 11 C 29 %
2745 18-12-2019 01:22:17 11.1 C 29 %
2746 18-12-2019 01:32:18 10.9 C 30 %
2747 18-12-2019 01:42:18 10.4 C 30 %
2748 18-12-2019 01:52:17 10.8 C 30 %
2749 18-12-2019 02:02:17 11.1 C 30 %
2750 18-12-2019 02:12:17 11.1 C 29 %
Sensor: Nr:Datum:Temp:Feuchte:
Aussen-T/F 2751 18-12-2019 02:22:17 11.2 C 30 %
2752 18-12-2019 02:32:17 11.3 C 29 %
2753 18-12-2019 02:42:18 10.9 C 30 %
2754 18-12-2019 02:52:17 10.9 C 31 %
2755 18-12-2019 03:02:17 10.6 C 33 %
2756 18-12-2019 03:12:17 10.3 C 35 %
2757 18-12-2019 03:22:18 10.3 C 37 %
2758 18-12-2019 03:32:17 10.1 C 37 %
2759 18-12-2019 03:42:17 10 C 38 %
2760 18-12-2019 03:52:18 10.1 C 38 %
2761 18-12-2019 04:02:18 10 C 38 %
2762 18-12-2019 04:12:18 9.9 C 38 %
2763 18-12-2019 04:22:17 9.8 C 35 %
2764 18-12-2019 04:32:18 9.6 C 34 %
2765 18-12-2019 04:42:18 9.5 C 33 %
2766 18-12-2019 04:52:17 9.3 C 33 %
2767 18-12-2019 05:02:18 9.2 C 33 %
2768 18-12-2019 05:12:18 9.1 C 33 %
2769 18-12-2019 05:22:17 8.8 C 35 %
2770 18-12-2019 05:32:17 8.7 C 36 %
2771 18-12-2019 05:42:17 8.2 C 36 %
2772 18-12-2019 05:52:17 8.2 C 39 %
2773 18-12-2019 06:02:18 8.1 C 39 %
2774 18-12-2019 06:12:18 8 C 37 %
2775 18-12-2019 06:22:17 8 C 37 %
Sensor: Nr:Datum:Temp:Feuchte:
Aussen-T/F 2776 18-12-2019 06:32:18 7.9 C 37 %
2777 18-12-2019 06:42:18 7.5 C 37 %
2778 18-12-2019 06:52:17 7.4 C 39 %
2779 18-12-2019 07:02:17 7.2 C 40 %
2780 18-12-2019 07:12:17 7.3 C 40 %
2781 18-12-2019 07:22:17 7.3 C 40 %
2782 18-12-2019 07:32:17 7.1 C 39 %
2783 18-12-2019 07:42:17 6.8 C 40 %
2784 18-12-2019 07:52:17 6.9 C 41 %
2785 18-12-2019 08:02:17 6.7 C 41 %
2786 18-12-2019 08:12:17 6.5 C 41 %
2787 18-12-2019 08:22:17 6.5 C 41 %
2788 18-12-2019 08:32:17 6.3 C 41 %
2789 18-12-2019 08:42:17 6.4 C 42 %
2790 18-12-2019 08:52:17 6.6 C 42 %
2791 18-12-2019 09:02:17 6.5 C 41 %
2792 18-12-2019 09:12:17 6.1 C 40 %
2793 18-12-2019 09:22:17 6 C 41 %
2794 18-12-2019 09:32:17 6.5 C 42 %
2795 18-12-2019 09:42:17 6.7 C 42 %
2796 18-12-2019 09:52:17 6.9 C 41 %
2797 18-12-2019 10:02:17 7 C 40 %
2798 18-12-2019 10:12:18 7.1 C 40 %
2799 18-12-2019 10:22:17 7.5 C 38 %
2800 18-12-2019 10:32:17 7.5 C 36 %
Sensor: Nr:Datum:Temp:Feuchte:
Aussen-T/F 2801 18-12-2019 10:42:17 7.4 C 36 %
2802 18-12-2019 10:52:17 6.9 C 38 %
2803 18-12-2019 11:02:17 6.8 C 38 %
2804 18-12-2019 11:12:17 6.8 C 38 %
2805 18-12-2019 11:22:17 6.6 C 38 %
2806 18-12-2019 11:32:18 6.7 C 39 %
2807 18-12-2019 11:42:18 6.9 C 38 %
2808 18-12-2019 11:52:17 7.6 C 35 %
2809 18-12-2019 12:02:17 8.1 C 33 %
2810 18-12-2019 12:12:17 8 C 32 %
2811 18-12-2019 12:22:17 8.3 C 31 %
2812 18-12-2019 12:32:17 8.6 C 30 %
2813 18-12-2019 12:42:17 8.8 C 29 %
2814 18-12-2019 12:52:17 8.7 C 29 %
2815 18-12-2019 13:02:17 8.4 C 30 %
2816 18-12-2019 13:12:17 8.2 C 30 %
2817 18-12-2019 13:22:17 7.9 C 31 %
2818 18-12-2019 13:32:18 7.8 C 32 %
2819 18-12-2019 13:42:18 7.7 C 33 %
2820 18-12-2019 13:52:17 7.8 C 32 %
2821 18-12-2019 14:02:18 7.8 C 33 %
2822 18-12-2019 14:12:18 7.7 C 33 %
2823 18-12-2019 14:22:17 7.5 C 34 %
2824 18-12-2019 14:32:17 7.3 C 35 %
2825 18-12-2019 14:42:17 7.2 C 35 %
Sensor: Nr:Datum:Temp:Feuchte:
Aussen-T/F 2826 18-12-2019 14:52:17 7.2 C 35 %
2827 18-12-2019 15:02:17 7.2 C 35 %
2828 18-12-2019 15:12:17 7 C 36 %
2829 18-12-2019 15:22:17 7 C 36 %
2830 18-12-2019 15:32:17 6.7 C 37 %
2831 18-12-2019 15:42:17 6.8 C 37 %
2832 18-12-2019 15:52:17 6.7 C 36 %
2833 18-12-2019 16:02:17 6.6 C 36 %
2834 18-12-2019 16:12:17 6.5 C 36 %
2835 18-12-2019 16:22:17 6.4 C 36 %
2836 18-12-2019 16:32:17 6 C 36 %
2837 18-12-2019 16:42:17 5.8 C 37 %
2838 18-12-2019 16:52:17 5.7 C 39 %
2839 18-12-2019 17:02:17 5.3 C 38 %
2840 18-12-2019 17:12:17 4.9 C 40 %
2841 18-12-2019 17:22:17 5 C 42 %
2842 18-12-2019 17:32:17 4.4 C 41 %
2843 18-12-2019 17:42:17 4.2 C 42 %
2844 18-12-2019 17:52:18 4.1 C 42 %
2845 18-12-2019 18:02:17 4.1 C 43 %
2846 18-12-2019 18:12:17 4.1 C 43 %
2847 18-12-2019 18:22:17 4.4 C 43 %
2848 18-12-2019 18:32:17 4.5 C 43 %
2849 18-12-2019 18:42:17 4.3 C 42 %
2850 18-12-2019 18:52:17 4.6 C 43 %
Sensor: Nr:Datum:Temp:Feuchte:
Aussen-T/F 2851 18-12-2019 19:02:17 5 C 42 %
2852 18-12-2019 19:12:17 4.7 C 42 %
2853 18-12-2019 19:22:17 4.3 C 42 %
2854 18-12-2019 19:32:18 4.9 C 43 %
2855 18-12-2019 19:42:18 4.7 C 42 %
2856 18-12-2019 19:52:17 4.6 C 42 %
2857 18-12-2019 20:02:17 5 C 42 %
2858 18-12-2019 20:12:17 5 C 41 %
2859 18-12-2019 20:22:17 4.5 C 41 %
2860 18-12-2019 20:32:17 4.5 C 41 %
2861 18-12-2019 20:42:18 4.1 C 41 %
2862 18-12-2019 20:52:17 3.9 C 42 %
2863 18-12-2019 21:02:17 3.7 C 43 %
2864 18-12-2019 21:12:17 3.6 C 42 %
2865 18-12-2019 21:22:17 3.6 C 43 %
2866 18-12-2019 21:32:17 3.7 C 43 %
2867 18-12-2019 21:42:17 3.6 C 43 %
2868 18-12-2019 21:52:17 3.4 C 43 %
2869 18-12-2019 22:02:17 3.1 C 43 %
2870 18-12-2019 22:12:17 3.1 C 43 %
2871 18-12-2019 22:22:17 2.7 C 43 %
2872 18-12-2019 22:32:17 2.6 C 43 %
2873 18-12-2019 22:42:17 2.5 C 43 %
2874 18-12-2019 22:52:17 2.4 C 43 %
2875 18-12-2019 23:02:17 2.4 C 43 %
Sensor: Nr:Datum:Temp:Feuchte:
Aussen-T/F 2876 18-12-2019 23:12:17 2.3 C 43 %
2877 18-12-2019 23:22:18 2.3 C 43 %
2878 18-12-2019 23:32:17 2 C 43 %
2879 18-12-2019 23:42:17 2 C 43 %
2880 18-12-2019 23:52:17 2 C 43 %
2881 19-12-2019 00:02:18 2.3 C 44 %
2882 19-12-2019 00:12:18 2 C 43 %
2883 19-12-2019 00:22:17 2 C 43 %
2884 19-12-2019 00:32:17 2.1 C 43 %
2885 19-12-2019 00:42:17 2.4 C 44 %
2886 19-12-2019 00:52:18 2.3 C 43 %
2887 19-12-2019 01:02:17 2.1 C 43 %
2888 19-12-2019 01:12:17 2 C 43 %
2889 19-12-2019 01:22:17 2 C 43 %
2890 19-12-2019 01:32:18 1.6 C 44 %
2891 19-12-2019 01:42:18 1.9 C 44 %
2892 19-12-2019 01:52:17 2.3 C 43 %
2893 19-12-2019 02:02:17 2.2 C 43 %
2894 19-12-2019 02:12:17 2 C 43 %
2895 19-12-2019 02:22:17 2 C 43 %
2896 19-12-2019 02:32:18 2 C 43 %
2897 19-12-2019 02:42:18 1.8 C 44 %
2898 19-12-2019 02:52:17 2.1 C 43 %
2899 19-12-2019 03:02:18 1.5 C 44 %
2900 19-12-2019 03:12:18 1.6 C 44 %
Sensor: Nr:Datum:Temp:Feuchte:
Aussen-T/F 2901 19-12-2019 03:22:17 1.6 C 44 %
2902 19-12-2019 03:32:17 1.8 C 44 %
2903 19-12-2019 03:42:17 1.7 C 44 %
2904 19-12-2019 03:52:17 1.7 C 44 %
2905 19-12-2019 04:02:17 1.6 C 44 %
2906 19-12-2019 04:12:17 1.5 C 44 %
2907 19-12-2019 04:22:18 1.5 C 44 %
2908 19-12-2019 04:32:17 1.5 C 44 %
2909 19-12-2019 04:42:17 1.4 C 44 %
2910 19-12-2019 04:52:18 1.6 C 44 %
2911 19-12-2019 05:02:17 1.4 C 44 %
2912 19-12-2019 05:12:17 1.5 C 44 %
2913 19-12-2019 05:22:17 1.4 C 44 %
2914 19-12-2019 05:32:17 1.3 C 44 %
2915 19-12-2019 05:42:17 1.3 C 44 %
2916 19-12-2019 05:52:17 1.1 C 44 %
2917 19-12-2019 06:02:17 1.1 C 44 %
2918 19-12-2019 06:12:17 1.2 C 44 %
2919 19-12-2019 06:22:17 1 C 44 %
2920 19-12-2019 06:32:17 1.1 C 44 %
2921 19-12-2019 06:42:18 1 C 43 %
2922 19-12-2019 06:52:17 0.7 C 45 %
2923 19-12-2019 07:02:17 1 C 44 %
2924 19-12-2019 07:12:17 0.9 C 45 %
2925 19-12-2019 07:22:17 1.7 C 44 %
Sensor: Nr:Datum:Temp:Feuchte:
Aussen-T/F 2926 19-12-2019 07:32:17 3.5 C 43 %
2927 19-12-2019 07:42:18 3.2 C 42 %
2928 19-12-2019 07:52:17 3.1 C 42 %
2929 19-12-2019 08:02:18 4.6 C 42 %
2930 19-12-2019 08:12:18 3.8 C 42 %
2931 19-12-2019 08:22:17 3.7 C 42 %
2932 19-12-2019 08:32:18 4.6 C 41 %
2933 19-12-2019 08:42:18 4 C 41 %
2934 19-12-2019 08:52:17 3.3 C 41 %
2935 19-12-2019 09:02:17 4 C 41 %
2936 19-12-2019 09:12:17 4.4 C 41 %
2937 19-12-2019 09:22:17 4.1 C 41 %
2938 19-12-2019 09:32:17 4.6 C 41 %
2939 19-12-2019 09:42:17 4.4 C 41 %
2940 19-12-2019 09:52:17 4.5 C 41 %
2941 19-12-2019 10:02:17 4.7 C 41 %
2942 19-12-2019 10:12:17 4.9 C 41 %
2943 19-12-2019 10:22:17 5.2 C 41 %
2944 19-12-2019 10:32:17 7 C 40 %
2945 19-12-2019 10:42:17 7.2 C 40 %
2946 19-12-2019 10:52:18 6.7 C 40 %
2947 19-12-2019 11:02:17 6.4 C 39 %
2948 19-12-2019 11:12:17 6.3 C 39 %
2949 19-12-2019 11:22:17 6.3 C 40 %
2950 19-12-2019 11:32:17 6.4 C 40 %
Sensor: Nr:Datum:Temp:Feuchte:
Aussen-T/F 2951 19-12-2019 11:42:17 6.6 C 40 %
2952 19-12-2019 11:52:18 6.7 C 40 %
2953 19-12-2019 12:02:17 6.6 C 40 %
2954 19-12-2019 12:12:17 6.7 C 40 %
2955 19-12-2019 12:22:17 6.7 C 40 %
2956 19-12-2019 12:32:17 7 C 39 %
2957 19-12-2019 12:42:17 7 C 39 %
2958 19-12-2019 12:52:17 7.1 C 39 %
2959 19-12-2019 13:02:17 7.3 C 39 %
2960 19-12-2019 13:12:17 7.1 C 38 %
2961 19-12-2019 13:22:17 7.2 C 39 %
2962 19-12-2019 13:32:17 7.2 C 39 %
2963 19-12-2019 13:42:17 7.3 C 38 %
2964 19-12-2019 13:52:17 7.3 C 38 %
2965 19-12-2019 14:02:17 7.3 C 38 %
2966 19-12-2019 14:12:17 7.1 C 38 %
2967 19-12-2019 14:22:17 7.1 C 38 %
2968 19-12-2019 14:32:17 7.2 C 38 %
2969 19-12-2019 14:42:17 7.3 C 37 %
2970 19-12-2019 14:52:17 7.9 C 36 %
2971 19-12-2019 15:02:17 8.1 C 34 %
2972 19-12-2019 15:12:17 8.1 C 33 %
2973 19-12-2019 15:22:17 8.4 C 32 %
2974 19-12-2019 15:32:18 8.6 C 32 %
2975 19-12-2019 15:42:18 8.7 C 31 %
Sensor: Nr:Datum:Temp:Feuchte:
Aussen-T/F 2976 19-12-2019 15:52:17 8.8 C 31 %
2977 19-12-2019 16:02:17 8.7 C 30 %
2978 19-12-2019 16:12:17 8.3 C 31 %
2979 19-12-2019 16:22:18 8.1 C 31 %
2980 19-12-2019 16:32:17 7.9 C 32 %
2981 19-12-2019 16:42:17 7.9 C 31 %
2982 19-12-2019 16:52:17 7.6 C 32 %
2983 19-12-2019 17:02:17 7.4 C 32 %
2984 19-12-2019 17:12:17 6 C 35 %
2985 19-12-2019 17:22:17 5.7 C 37 %
2986 19-12-2019 17:32:17 5.5 C 39 %
2987 19-12-2019 17:42:17 5 C 39 %
2988 19-12-2019 17:52:17 4.9 C 41 %
2989 19-12-2019 18:02:17 5.2 C 42 %
2990 19-12-2019 18:12:18 4.9 C 42 %
2991 19-12-2019 18:22:17 5.2 C 42 %
2992 19-12-2019 18:32:17 5 C 41 %
2993 19-12-2019 18:42:17 5 C 41 %
2994 19-12-2019 18:52:18 5.8 C 42 %
2995 19-12-2019 19:02:17 5.7 C 41 %
2996 19-12-2019 19:12:17 5.2 C 39 %
2997 19-12-2019 19:22:18 4.7 C 40 %
2998 19-12-2019 19:32:17 4.9 C 42 %
2999 19-12-2019 19:42:17 4.7 C 42 %
3000 19-12-2019 19:52:17 4.8 C 42 %
Sensor: Nr:Datum:Temp:Feuchte:
Aussen-T/F 3001 19-12-2019 20:02:17 5 C 42 %
3002 19-12-2019 20:12:17 5 C 41 %
3003 19-12-2019 20:22:17 4.8 C 42 %
3004 19-12-2019 20:32:17 5.1 C 42 %
3005 19-12-2019 20:42:17 6 C 41 %
3006 19-12-2019 20:52:17 6 C 38 %
3007 19-12-2019 21:02:17 5.8 C 38 %
3008 19-12-2019 21:12:18 5.8 C 39 %
3009 19-12-2019 21:22:17 5.7 C 39 %
3010 19-12-2019 21:32:17 5.8 C 40 %
3011 19-12-2019 21:42:17 6 C 40 %
3012 19-12-2019 21:52:17 5.7 C 40 %
3013 19-12-2019 22:02:17 5.6 C 40 %
3014 19-12-2019 22:12:17 5.8 C 41 %
3015 19-12-2019 22:22:18 6.2 C 41 %
3016 19-12-2019 22:32:18 5.9 C 40 %
3017 19-12-2019 22:42:18 5.1 C 38 %
3018 19-12-2019 22:52:17 5 C 41 %
3019 19-12-2019 23:02:17 5.4 C 43 %
3020 19-12-2019 23:12:17 5.5 C 42 %
3021 19-12-2019 23:22:17 5.5 C 42 %
3022 19-12-2019 23:32:17 5.4 C 42 %
3023 19-12-2019 23:42:17 5.4 C 42 %
3024 19-12-2019 23:52:17 5.1 C 41 %
3025 20-12-2019 00:02:17 4.8 C 42 %
Sensor: Nr:Datum:Temp:Feuchte:
Aussen-T/F 3026 20-12-2019 00:12:17 4.3 C 41 %
3027 20-12-2019 00:22:17 4 C 41 %
3028 20-12-2019 00:32:17 3.9 C 43 %
3029 20-12-2019 00:42:17 3.7 C 42 %
3030 20-12-2019 00:52:17 3.4 C 43 %
3031 20-12-2019 01:02:17 3.1 C 42 %
3032 20-12-2019 01:12:17 3 C 43 %
3033 20-12-2019 01:22:17 3.3 C 44 %
3034 20-12-2019 01:32:17 3.1 C 43 %
3035 20-12-2019 01:42:17 3.1 C 43 %
3036 20-12-2019 01:52:17 2.8 C 44 %
3037 20-12-2019 02:02:17 2.8 C 44 %
3038 20-12-2019 02:12:17 2.6 C 44 %
3039 20-12-2019 02:22:17 2.5 C 44 %
3040 20-12-2019 02:32:18 3.2 C 44 %
3041 20-12-2019 02:42:18 3.4 C 44 %
3042 20-12-2019 02:52:17 3.8 C 44 %
3043 20-12-2019 03:02:17 4.7 C 42 %
3044 20-12-2019 03:12:17 4.2 C 41 %
3045 20-12-2019 03:22:17 4.6 C 41 %
3046 20-12-2019 03:32:17 4.4 C 40 %
3047 20-12-2019 03:42:17 4.4 C 40 %
3048 20-12-2019 03:52:17 4.6 C 41 %
3049 20-12-2019 04:02:17 4.4 C 40 %
3050 20-12-2019 04:12:17 4.2 C 40 %
Sensor: Nr:Datum:Temp:Feuchte:
Aussen-T/F 3051 20-12-2019 04:22:17 4 C 41 %
3052 20-12-2019 04:32:18 4.8 C 42 %
3053 20-12-2019 04:42:18 4.5 C 41 %
3054 20-12-2019 04:52:17 4.7 C 40 %
3055 20-12-2019 05:02:17 4.7 C 40 %
3056 20-12-2019 05:12:17 5.3 C 38 %
3057 20-12-2019 05:22:17 5.2 C 36 %
3058 20-12-2019 05:32:17 5.3 C 36 %
3059 20-12-2019 05:42:17 5.4 C 35 %
3060 20-12-2019 05:52:18 5.5 C 35 %
3061 20-12-2019 06:02:18 5.2 C 35 %
3062 20-12-2019 06:12:18 5.3 C 35 %
3063 20-12-2019 06:22:17 5.6 C 35 %
3064 20-12-2019 06:32:17 6 C 32 %
3065 20-12-2019 06:42:17 6 C 31 %
3066 20-12-2019 06:52:17 5.7 C 32 %
3067 20-12-2019 07:02:17 5.8 C 31 %
3068 20-12-2019 07:12:17 5.9 C 31 %
3069 20-12-2019 07:22:17 6.1 C 31 %
3070 20-12-2019 07:32:17 5.9 C 33 %
3071 20-12-2019 07:42:17 6.4 C 31 %
3072 20-12-2019 07:52:17 6.8 C 30 %
3073 20-12-2019 08:02:17 7.1 C 27 %
3074 20-12-2019 08:12:17 6.4 C 31 %
3075 20-12-2019 08:22:17 6.4 C 32 %
Sensor: Nr:Datum:Temp:Feuchte:
Aussen-T/F 3076 20-12-2019 08:32:18 6.5 C 32 %
3077 20-12-2019 08:42:18 6.3 C 32 %
3078 20-12-2019 08:52:17 6.3 C 33 %
3079 20-12-2019 09:02:17 6.5 C 33 %
3080 20-12-2019 09:12:17 6.7 C 31 %
3081 20-12-2019 09:22:17 6.5 C 33 %
3082 20-12-2019 09:32:17 6.4 C 35 %
3083 20-12-2019 09:42:17 6.5 C 35 %
3084 20-12-2019 09:52:17 6.5 C 34 %
3085 20-12-2019 10:02:17 6.2 C 31 %
3086 20-12-2019 10:12:17 6 C 33 %
3087 20-12-2019 10:22:17 5.7 C 35 %
3088 20-12-2019 10:32:17 5.8 C 40 %
3089 20-12-2019 10:42:17 5.9 C 42 %
3090 20-12-2019 10:52:17 6 C 42 %
3091 20-12-2019 11:02:17 6.1 C 42 %
3092 20-12-2019 11:12:17 6 C 42 %
3093 20-12-2019 11:22:17 6.3 C 42 %
3094 20-12-2019 11:32:17 6.5 C 42 %
3095 20-12-2019 11:42:17 6.7 C 41 %
3096 20-12-2019 11:52:17 6.8 C 40 %
3097 20-12-2019 12:02:18 7 C 39 %
3098 20-12-2019 12:12:18 7.3 C 39 %
3099 20-12-2019 12:22:18 7.5 C 39 %
3100 20-12-2019 12:32:17 7.7 C 39 %
Sensor: Nr:Datum:Temp:Feuchte:
Aussen-T/F 3101 20-12-2019 12:42:18 8 C 39 %
3102 20-12-2019 12:52:17 8.1 C 38 %
3103 20-12-2019 13:02:18 8.1 C 39 %
3104 20-12-2019 13:12:18 8.2 C 39 %
3105 20-12-2019 13:22:17 8.3 C 37 %
3106 20-12-2019 13:32:17 8.4 C 36 %
3107 20-12-2019 13:42:17 8.6 C 37 %
3108 20-12-2019 13:52:17 8.5 C 36 %
3109 20-12-2019 14:02:17 8.6 C 36 %
3110 20-12-2019 14:12:17 8.6 C 35 %
3111 20-12-2019 14:22:17 8.7 C 36 %
3112 20-12-2019 14:32:17 8.7 C 36 %
3113 20-12-2019 14:42:17 8.5 C 35 %
3114 20-12-2019 14:52:18 8.3 C 36 %
3115 20-12-2019 15:02:17 8.2 C 37 %
3116 20-12-2019 15:12:17 8.3 C 38 %
3117 20-12-2019 15:22:17 8.3 C 39 %
3118 20-12-2019 15:32:17 8.2 C 40 %
3119 20-12-2019 15:42:17 8.3 C 41 %
3120 20-12-2019 15:52:17 8.2 C 40 %
3121 20-12-2019 16:02:17 8.2 C 40 %
3122 20-12-2019 16:12:18 8.3 C 40 %
3123 20-12-2019 16:22:17 8.3 C 41 %
3124 20-12-2019 16:32:17 8.4 C 41 %
3125 20-12-2019 16:42:17 8.4 C 41 %
Sensor: Nr:Datum:Temp:Feuchte:
Aussen-T/F 3126 20-12-2019 16:52:18 8.6 C 41 %
3127 20-12-2019 17:02:17 9 C 41 %
3128 20-12-2019 17:12:18 9 C 40 %
3129 20-12-2019 17:22:17 9.1 C 36 %
3130 20-12-2019 17:32:17 8.7 C 38 %
3131 20-12-2019 17:42:17 8.8 C 37 %
3132 20-12-2019 17:52:18 8.7 C 38 %
3133 20-12-2019 18:02:17 8.9 C 37 %
3134 20-12-2019 18:12:17 8.9 C 36 %
3135 20-12-2019 18:22:17 8.9 C 37 %
3136 20-12-2019 18:32:17 8.9 C 37 %
3137 20-12-2019 18:42:17 9.7 C 33 %
3138 20-12-2019 18:52:18 9.5 C 31 %
3139 20-12-2019 19:02:17 9.8 C 30 %
3140 20-12-2019 19:12:17 10.1 C 28 %
3141 20-12-2019 19:22:17 9.9 C 29 %
3142 20-12-2019 19:32:17 9.8 C 29 %
3143 20-12-2019 19:42:17 10 C 27 %
3144 20-12-2019 19:52:18 9.7 C 29 %
3145 20-12-2019 20:02:18 9.6 C 28 %
3146 20-12-2019 20:12:18 9.5 C 28 %
3147 20-12-2019 20:22:17 9.5 C 27 %
3148 20-12-2019 20:32:18 9 C 28 %
3149 20-12-2019 20:42:18 9 C 27 %
3150 20-12-2019 20:52:17 8.9 C 28 %
Sensor: Nr:Datum:Temp:Feuchte:
Aussen-T/F 3151 20-12-2019 21:02:18 8.5 C 28 %
3152 20-12-2019 21:12:18 8.6 C 28 %
3153 20-12-2019 21:22:17 8.9 C 27 %
3154 20-12-2019 21:32:17 8.7 C 27 %
3155 20-12-2019 21:42:17 8.3 C 28 %
3156 20-12-2019 21:52:17 8.3 C 28 %
3157 20-12-2019 22:02:17 8.3 C 28 %
3158 20-12-2019 22:12:17 8.1 C 28 %
3159 20-12-2019 22:22:17 8.7 C 27 %
3160 20-12-2019 22:32:17 8.9 C 26 %
3161 20-12-2019 22:42:17 8.7 C 27 %
3162 20-12-2019 22:52:17 8.7 C 27 %
3163 20-12-2019 23:02:17 8.5 C 27 %
3164 20-12-2019 23:12:17 8.4 C 27 %
3165 20-12-2019 23:22:17 8.2 C 28 %
3166 20-12-2019 23:32:17 8 C 28 %
3167 20-12-2019 23:42:17 8.3 C 27 %
3168 20-12-2019 23:52:18 8.1 C 27 %
3169 21-12-2019 00:02:17 7.9 C 28 %
3170 21-12-2019 00:12:17 7.7 C 28 %
3171 21-12-2019 00:22:17 7.5 C 30 %
3172 21-12-2019 00:32:17 7.5 C 30 %
3173 21-12-2019 00:42:17 7.2 C 30 %
3174 21-12-2019 00:52:18 7 C 30 %
3175 21-12-2019 01:02:17 6.9 C 32 %
Sensor: Nr:Datum:Temp:Feuchte:
Aussen-T/F 3176 21-12-2019 01:12:17 7.3 C 31 %
3177 21-12-2019 01:22:17 7.4 C 31 %
3178 21-12-2019 01:32:17 7.3 C 32 %
3179 21-12-2019 01:42:17 7.5 C 31 %
3180 21-12-2019 01:52:17 7.5 C 32 %
3181 21-12-2019 02:02:17 7.9 C 30 %
3182 21-12-2019 02:12:17 8 C 29 %
3183 21-12-2019 02:22:17 8.2 C 28 %
3184 21-12-2019 02:32:18 7.8 C 30 %
3185 21-12-2019 02:42:18 7.8 C 30 %
3186 21-12-2019 02:52:17 7.8 C 30 %
3187 21-12-2019 03:02:17 7.5 C 30 %
3188 21-12-2019 03:12:17 7.5 C 31 %
3189 21-12-2019 03:22:17 7.4 C 31 %
3190 21-12-2019 03:32:18 7.3 C 31 %
3191 21-12-2019 03:42:18 7.1 C 31 %
3192 21-12-2019 03:52:17 7.1 C 32 %
3193 21-12-2019 04:02:17 6.9 C 33 %
3194 21-12-2019 04:12:17 6.7 C 36 %
3195 21-12-2019 04:22:17 6.4 C 37 %
3196 21-12-2019 04:32:18 6 C 38 %
3197 21-12-2019 04:42:18 5.9 C 38 %
3198 21-12-2019 04:52:17 5.7 C 40 %
3199 21-12-2019 05:02:17 6 C 40 %
3200 21-12-2019 05:12:17 5.6 C 39 %
Sensor: Nr:Datum:Temp:Feuchte:
Aussen-T/F 3201 21-12-2019 05:22:17 5.4 C 38 %
3202 21-12-2019 05:32:18 5.4 C 38 %
3203 21-12-2019 05:42:18 5.1 C 38 %
3204 21-12-2019 05:52:17 5.3 C 40 %
3205 21-12-2019 06:02:17 4.9 C 41 %
3206 21-12-2019 06:12:17 4.8 C 41 %
3207 21-12-2019 06:22:18 4.3 C 40 %
3208 21-12-2019 06:32:17 4.3 C 42 %
3209 21-12-2019 06:42:17 5 C 40 %
3210 21-12-2019 06:52:18 3.8 C 41 %
3211 21-12-2019 07:02:17 3.8 C 43 %
3212 21-12-2019 07:12:18 3.5 C 42 %
3213 21-12-2019 07:22:17 3.4 C 43 %
3214 21-12-2019 07:32:17 3.3 C 43 %
3215 21-12-2019 07:42:17 3 C 42 %
3216 21-12-2019 07:52:17 3 C 43 %
3217 21-12-2019 08:02:17 3.1 C 44 %
3218 21-12-2019 08:12:17 3.6 C 44 %
3219 21-12-2019 08:22:17 3.7 C 44 %
3220 21-12-2019 08:32:17 3.9 C 43 %
3221 21-12-2019 08:42:17 4.6 C 43 %
3222 21-12-2019 08:52:17 4.9 C 42 %
3223 21-12-2019 09:02:17 5 C 39 %
3224 21-12-2019 09:12:17 4.5 C 38 %
3225 21-12-2019 09:22:17 4.4 C 38 %
Sensor: Nr:Datum:Temp:Feuchte:
Aussen-T/F 3226 21-12-2019 09:32:17 4.4 C 39 %
3227 21-12-2019 09:42:17 4.6 C 40 %
3228 21-12-2019 09:52:17 4.6 C 38 %
3229 21-12-2019 10:02:17 4.8 C 38 %
3230 21-12-2019 10:12:17 4.8 C 37 %
3231 21-12-2019 10:22:17 5.1 C 37 %
3232 21-12-2019 10:32:17 5.2 C 36 %
3233 21-12-2019 10:42:17 5.1 C 37 %
3234 21-12-2019 10:52:17 5.2 C 37 %
3235 21-12-2019 11:02:17 5.3 C 37 %
3236 21-12-2019 11:12:17 5.3 C 37 %
3237 21-12-2019 11:22:17 5.4 C 37 %
3238 21-12-2019 11:32:17 5.8 C 37 %
3239 21-12-2019 11:42:17 5.9 C 37 %
3240 21-12-2019 11:52:17 5.8 C 37 %
3241 21-12-2019 12:02:17 5.8 C 36 %
3242 21-12-2019 12:12:17 6.2 C 36 %
3243 21-12-2019 12:22:17 6.2 C 35 %
3244 21-12-2019 12:32:17 7 C 32 %
3245 21-12-2019 12:42:17 6.8 C 33 %
3246 21-12-2019 12:52:17 8 C 30 %
3247 21-12-2019 13:02:17 7.8 C 30 %
3248 21-12-2019 13:12:17 7.1 C 30 %
3249 21-12-2019 13:22:17 6.9 C 31 %
3250 21-12-2019 13:32:17 7.2 C 30 %
Sensor: Nr:Datum:Temp:Feuchte:
Aussen-T/F 3251 21-12-2019 13:42:17 8 C 28 %
3252 21-12-2019 13:52:18 7.7 C 28 %
3253 21-12-2019 14:02:17 8.3 C 27 %
3254 21-12-2019 14:12:17 8.8 C 26 %
3255 21-12-2019 14:22:17 8.2 C 27 %
3256 21-12-2019 14:32:18 8.2 C 27 %
3257 21-12-2019 14:42:18 8.5 C 27 %
3258 21-12-2019 14:52:17 8.8 C 26 %
3259 21-12-2019 15:02:18 9 C 25 %
3260 21-12-2019 15:12:18 8.7 C 26 %
3261 21-12-2019 15:22:18 8.8 C 25 %
3262 21-12-2019 15:32:17 8.7 C 25 %
3263 21-12-2019 15:42:17 8 C 26 %
3264 21-12-2019 15:52:17 7.5 C 28 %
3265 21-12-2019 16:02:17 7.7 C 27 %
3266 21-12-2019 16:12:17 7.6 C 29 %
3267 21-12-2019 16:22:17 7.4 C 30 %
3268 21-12-2019 16:32:17 7.4 C 30 %
3269 21-12-2019 16:42:17 7.7 C 28 %
3270 21-12-2019 16:52:17 7.9 C 27 %
3271 21-12-2019 17:02:17 7.6 C 29 %
3272 21-12-2019 17:12:17 7.3 C 30 %
3273 21-12-2019 17:22:17 7.2 C 30 %
3274 21-12-2019 17:32:17 7.3 C 30 %
3275 21-12-2019 17:42:17 7.3 C 29 %
Sensor: Nr:Datum:Temp:Feuchte:
Aussen-T/F 3276 21-12-2019 17:52:17 7.2 C 29 %
3277 21-12-2019 18:02:17 7.6 C 27 %
3278 21-12-2019 18:12:17 7.6 C 27 %
3279 21-12-2019 18:22:17 7.6 C 26 %
3280 21-12-2019 18:32:18 7.9 C 25 %
3281 21-12-2019 18:42:18 7.7 C 26 %
3282 21-12-2019 18:52:17 7.5 C 26 %
3283 21-12-2019 19:02:17 7.3 C 27 %
3284 21-12-2019 19:12:17 7 C 27 %
3285 21-12-2019 19:22:17 7 C 27 %
3286 21-12-2019 19:32:17 6.9 C 30 %
3287 21-12-2019 19:42:17 6.8 C 30 %
3288 21-12-2019 19:52:17 7 C 27 %
3289 21-12-2019 20:02:17 7.1 C 26 %
3290 21-12-2019 20:12:17 7.1 C 26 %
3291 21-12-2019 20:22:17 7.1 C 26 %
3292 21-12-2019 20:32:17 6.9 C 28 %
3293 21-12-2019 20:42:17 7 C 27 %
3294 21-12-2019 20:52:17 6.8 C 27 %
3295 21-12-2019 21:02:18 6.4 C 29 %
3296 21-12-2019 21:12:18 6.1 C 30 %
3297 21-12-2019 21:22:17 6.1 C 31 %
3298 21-12-2019 21:32:17 6.3 C 31 %
3299 21-12-2019 21:42:17 5.9 C 31 %
3300 21-12-2019 21:52:18 5.1 C 34 %
Sensor: Nr:Datum:Temp:Feuchte:
Aussen-T/F 3301 21-12-2019 22:02:18 4.9 C 36 %
3302 21-12-2019 22:12:18 5.2 C 34 %
3303 21-12-2019 22:22:17 5.7 C 30 %
3304 21-12-2019 22:32:17 6.1 C 27 %
3305 21-12-2019 22:42:17 6.1 C 27 %
3306 21-12-2019 22:52:17 6 C 27 %
3307 21-12-2019 23:02:17 5.8 C 27 %
3308 21-12-2019 23:12:17 5.8 C 27 %
3309 21-12-2019 23:22:17 6.3 C 26 %
3310 21-12-2019 23:32:18 6.5 C 25 %
3311 21-12-2019 23:42:18 6.7 C 25 %
3312 21-12-2019 23:52:17 6.3 C 26 %
3313 22-12-2019 00:02:17 6.8 C 26 %
3314 22-12-2019 00:12:17 6.9 C 26 %
3315 22-12-2019 00:22:17 6.8 C 26 %
3316 22-12-2019 00:32:17 6.8 C 26 %
3317 22-12-2019 00:42:17 6.7 C 27 %
3318 22-12-2019 00:52:17 6.3 C 30 %
3319 22-12-2019 01:02:17 6.2 C 30 %
3320 22-12-2019 01:12:18 5.8 C 35 %
3321 22-12-2019 01:22:17 5.8 C 36 %
3322 22-12-2019 01:32:17 5.8 C 39 %
3323 22-12-2019 01:42:17 5.7 C 40 %
3324 22-12-2019 01:52:17 5.7 C 40 %
3325 22-12-2019 02:02:17 5.7 C 38 %
Sensor: Nr:Datum:Temp:Feuchte:
Aussen-T/F 3326 22-12-2019 02:12:18 5.7 C 38 %
3327 22-12-2019 02:22:17 5.8 C 38 %
3328 22-12-2019 02:32:17 5.9 C 37 %
3329 22-12-2019 02:42:17 5.9 C 36 %
3330 22-12-2019 02:52:18 6 C 35 %
3331 22-12-2019 03:02:17 6.1 C 35 %
3332 22-12-2019 03:12:17 6.2 C 34 %
3333 22-12-2019 03:22:17 6.2 C 35 %
3334 22-12-2019 03:32:17 6.2 C 34 %
3335 22-12-2019 03:42:17 6.1 C 35 %
3336 22-12-2019 03:52:17 6.2 C 35 %
3337 22-12-2019 04:02:18 6.2 C 35 %
3338 22-12-2019 04:12:18 6 C 35 %
3339 22-12-2019 04:22:17 6.2 C 34 %
3340 22-12-2019 04:32:17 6.2 C 34 %
3341 22-12-2019 04:42:17 6.3 C 33 %
3342 22-12-2019 04:52:17 6.3 C 33 %
3343 22-12-2019 05:02:17 6.2 C 34 %
3344 22-12-2019 05:12:17 5.8 C 34 %
3345 22-12-2019 05:22:17 5.4 C 36 %
3346 22-12-2019 05:32:17 5.7 C 40 %
3347 22-12-2019 05:42:17 6.1 C 38 %
3348 22-12-2019 05:52:17 5.5 C 35 %
3349 22-12-2019 06:02:17 5.1 C 39 %
3350 22-12-2019 06:12:17 5.3 C 41 %
Sensor: Nr:Datum:Temp:Feuchte:
Aussen-T/F 3351 22-12-2019 06:22:17 4.9 C 41 %
3352 22-12-2019 06:32:17 5.4 C 42 %
3353 22-12-2019 06:42:17 5.9 C 41 %
3354 22-12-2019 06:52:17 6.2 C 39 %
3355 22-12-2019 07:02:17 6.2 C 38 %
3356 22-12-2019 07:12:17 6 C 38 %
3357 22-12-2019 07:22:17 5.7 C 38 %
3358 22-12-2019 07:32:17 5.4 C 39 %
3359 22-12-2019 07:42:17 6 C 42 %
3360 22-12-2019 07:52:17 6.1 C 41 %
3361 22-12-2019 08:02:18 6.3 C 41 %
3362 22-12-2019 08:12:18 6.2 C 40 %
3363 22-12-2019 08:22:17 5.9 C 40 %
3364 22-12-2019 08:32:17 5.8 C 41 %
3365 22-12-2019 08:42:17 6.3 C 41 %
3366 22-12-2019 08:52:18 6.2 C 39 %
3367 22-12-2019 09:02:17 6 C 39 %
3368 22-12-2019 09:12:17 6.2 C 40 %
3369 22-12-2019 09:22:17 6.4 C 39 %
3370 22-12-2019 09:32:17 6.3 C 39 %
3371 22-12-2019 09:42:17 6.8 C 39 %
3372 22-12-2019 09:52:17 7 C 37 %
3373 22-12-2019 10:02:17 7.1 C 37 %
3374 22-12-2019 10:12:17 7.9 C 33 %
3375 22-12-2019 10:22:17 8.1 C 33 %
Sensor: Nr:Datum:Temp:Feuchte:
Aussen-T/F 3376 22-12-2019 10:32:17 8.8 C 30 %
3377 22-12-2019 10:42:17 9 C 29 %
3378 22-12-2019 10:52:17 9.3 C 28 %
3379 22-12-2019 11:02:17 9.5 C 28 %
3380 22-12-2019 11:12:17 10 C 26 %
3381 22-12-2019 11:22:17 10 C 26 %
3382 22-12-2019 11:32:18 10.4 C 26 %
3383 22-12-2019 11:42:18 10.2 C 26 %
3384 22-12-2019 11:52:17 10.4 C 26 %
3385 22-12-2019 12:02:17 10.5 C 25 %
3386 22-12-2019 12:12:17 10.5 C 26 %
3387 22-12-2019 12:22:17 10.5 C 25 %
3388 22-12-2019 12:32:17 10.7 C 26 %
3389 22-12-2019 12:42:17 10.8 C 26 %
3390 22-12-2019 12:52:17 11.2 C 25 %
3391 22-12-2019 13:02:17 11.1 C 25 %
3392 22-12-2019 13:12:17 10.8 C 25 %
3393 22-12-2019 13:22:17 10.7 C 25 %
3394 22-12-2019 13:32:17 10.7 C 25 %
3395 22-12-2019 13:42:17 10.7 C 25 %
3396 22-12-2019 13:52:17 10.8 C 25 %
3397 22-12-2019 14:02:17 11.1 C 23 %
3398 22-12-2019 14:12:17 11 C 23 %
3399 22-12-2019 14:22:17 10.8 C 23 %
3400 22-12-2019 14:32:17 10.9 C 23 %
Sensor: Nr:Datum:Temp:Feuchte:
Aussen-T/F 3401 22-12-2019 14:42:17 10.8 C 23 %
3402 22-12-2019 14:52:17 10.7 C 25 %
3403 22-12-2019 15:02:17 10.6 C 25 %
3404 22-12-2019 15:12:17 10.3 C 25 %
3405 22-12-2019 15:22:17 10.1 C 25 %
3406 22-12-2019 15:32:17 9.9 C 26 %
3407 22-12-2019 15:42:17 9.7 C 26 %
3408 22-12-2019 15:52:18 9.6 C 25 %
3409 22-12-2019 16:02:18 9.6 C 25 %
3410 22-12-2019 16:12:18 9.3 C 25 %
3411 22-12-2019 16:22:17 8.9 C 26 %
3412 22-12-2019 16:32:17 8.3 C 26 %
3413 22-12-2019 16:42:17 8.4 C 27 %
3414 22-12-2019 16:52:17 7.9 C 28 %
3415 22-12-2019 17:02:18 7.5 C 30 %
3416 22-12-2019 17:12:18 7.5 C 30 %
3417 22-12-2019 17:22:17 7.4 C 30 %
3418 22-12-2019 17:32:17 7.5 C 29 %
3419 22-12-2019 17:42:17 7.5 C 28 %
3420 22-12-2019 17:52:17 7.2 C 28 %
3421 22-12-2019 18:02:17 7.2 C 30 %
3422 22-12-2019 18:12:17 7.1 C 30 %
3423 22-12-2019 18:22:17 7.3 C 30 %
3424 22-12-2019 18:32:17 7.4 C 29 %
3425 22-12-2019 18:42:17 7.5 C 29 %
Sensor: Nr:Datum:Temp:Feuchte:
Aussen-T/F 3426 22-12-2019 18:52:17 7.2 C 29 %
3427 22-12-2019 19:02:17 7.1 C 30 %
3428 22-12-2019 19:12:17 7 C 31 %
3429 22-12-2019 19:22:17 7 C 32 %
3430 22-12-2019 19:32:17 7.1 C 31 %
3431 22-12-2019 19:42:17 7.5 C 30 %
3432 22-12-2019 19:52:17 8 C 27 %
3433 22-12-2019 20:02:17 7.9 C 27 %
3434 22-12-2019 20:12:17 8.1 C 26 %
3435 22-12-2019 20:22:17 8.3 C 25 %
3436 22-12-2019 20:32:17 8.2 C 25 %
3437 22-12-2019 20:42:17 8 C 25 %
3438 22-12-2019 20:52:17 8 C 25 %
3439 22-12-2019 21:02:17 8.1 C 25 %
3440 22-12-2019 21:12:17 8.1 C 25 %
3441 22-12-2019 21:22:17 7.8 C 25 %
3442 22-12-2019 21:32:17 8.1 C 25 %
3443 22-12-2019 21:42:17 7.8 C 26 %
3444 22-12-2019 21:52:17 7.7 C 26 %
3445 22-12-2019 22:02:17 7.9 C 26 %
3446 22-12-2019 22:12:17 7.6 C 26 %
3447 22-12-2019 22:22:17 7.5 C 26 %
3448 22-12-2019 22:32:17 7.1 C 27 %
3449 22-12-2019 22:42:17 6.9 C 28 %
3450 22-12-2019 22:52:17 6.7 C 29 %
Sensor: Nr:Datum:Temp:Feuchte:
Aussen-T/F 3451 22-12-2019 23:02:17 6.2 C 31 %
3452 22-12-2019 23:12:17 6.4 C 31 %
3453 22-12-2019 23:22:17 6.6 C 31 %
3454 22-12-2019 23:32:17 6.6 C 31 %
3455 22-12-2019 23:42:17 6.7 C 31 %
3456 22-12-2019 23:52:17 6.7 C 31 %
3457 23-12-2019 00:02:17 6.6 C 32 %
3458 23-12-2019 00:12:17 6.5 C 31 %
3459 23-12-2019 00:22:17 6.4 C 32 %
3460 23-12-2019 00:32:17 6.6 C 31 %
3461 23-12-2019 00:42:17 7 C 30 %
3462 23-12-2019 00:52:17 6.9 C 30 %
3463 23-12-2019 01:02:17 6.8 C 30 %
3464 23-12-2019 01:12:17 7.1 C 28 %
3465 23-12-2019 01:22:17 7 C 28 %
3466 23-12-2019 01:32:17 7.1 C 28 %
3467 23-12-2019 01:42:17 7.4 C 27 %
3468 23-12-2019 01:52:17 7.4 C 27 %
3469 23-12-2019 02:02:17 6.8 C 29 %
3470 23-12-2019 02:12:17 6.5 C 30 %
3471 23-12-2019 02:22:17 6.8 C 29 %
3472 23-12-2019 02:32:17 6.9 C 29 %
3473 23-12-2019 02:42:17 7.3 C 28 %
3474 23-12-2019 02:52:17 6.9 C 30 %
3475 23-12-2019 03:02:17 6.8 C 31 %
Sensor: Nr:Datum:Temp:Feuchte:
Aussen-T/F 3476 23-12-2019 03:12:17 6.4 C 31 %
3477 23-12-2019 03:22:17 6.5 C 30 %
3478 23-12-2019 03:32:17 7 C 28 %
3479 23-12-2019 03:42:17 6.6 C 29 %
3480 23-12-2019 03:52:17 7 C 28 %
3481 23-12-2019 04:02:17 6.9 C 30 %
3482 23-12-2019 04:12:17 7.1 C 28 %
3483 23-12-2019 04:22:17 6.8 C 30 %
3484 23-12-2019 04:32:17 6.9 C 31 %
3485 23-12-2019 04:42:17 6.5 C 31 %
3486 23-12-2019 04:52:17 6.1 C 31 %
3487 23-12-2019 05:02:17 6.4 C 32 %
3488 23-12-2019 05:12:17 7 C 30 %
3489 23-12-2019 05:22:17 7.1 C 30 %
3490 23-12-2019 05:32:17 7 C 30 %
3491 23-12-2019 05:42:17 6.8 C 31 %
3492 23-12-2019 05:52:17 6.3 C 32 %
3493 23-12-2019 06:02:18 6.3 C 34 %
3494 23-12-2019 06:12:18 6.6 C 33 %
3495 23-12-2019 06:22:17 6.9 C 31 %
3496 23-12-2019 06:32:18 7.1 C 30 %
3497 23-12-2019 06:42:18 6.9 C 31 %
3498 23-12-2019 06:52:17 6.9 C 31 %
3499 23-12-2019 07:02:17 6.8 C 32 %
3500 23-12-2019 07:12:17 6.8 C 34 %
Sensor: Nr:Datum:Temp:Feuchte:
Aussen-T/F 3501 23-12-2019 07:22:17 6.8 C 32 %
3502 23-12-2019 07:32:17 7.1 C 30 %
3503 23-12-2019 07:42:17 7.4 C 29 %
3504 23-12-2019 07:52:17 7.1 C 30 %
3505 23-12-2019 08:02:17 7.3 C 30 %
3506 23-12-2019 08:12:17 7.4 C 28 %
3507 23-12-2019 08:22:17 7.5 C 28 %
3508 23-12-2019 08:32:18 7.5 C 28 %
3509 23-12-2019 08:42:18 7.6 C 28 %
3510 23-12-2019 08:52:17 7.6 C 27 %
3511 23-12-2019 09:02:17 7.6 C 27 %
3512 23-12-2019 09:12:18 7.7 C 27 %
3513 23-12-2019 09:22:17 7.8 C 27 %
3514 23-12-2019 09:32:18 7.8 C 27 %
3515 23-12-2019 09:42:18 7.8 C 27 %
3516 23-12-2019 09:52:18 7.9 C 26 %
3517 23-12-2019 10:02:17 7.3 C 30 %
3518 23-12-2019 10:12:18 7 C 33 %
3519 23-12-2019 10:22:17 7 C 35 %
3520 23-12-2019 10:32:18 6.8 C 35 %
3521 23-12-2019 10:42:18 6.9 C 34 %
3522 23-12-2019 10:52:17 7.4 C 30 %
3523 23-12-2019 11:02:18 7.8 C 28 %
3524 23-12-2019 11:12:18 8.1 C 28 %
3525 23-12-2019 11:22:17 8.4 C 26 %
Sensor: Nr:Datum:Temp:Feuchte:
Aussen-T/F 3526 23-12-2019 11:32:18 8.3 C 26 %
3527 23-12-2019 11:42:18 8.6 C 26 %
3528 23-12-2019 11:52:17 8.9 C 25 %
3529 23-12-2019 12:02:18 9.1 C 25 %
3530 23-12-2019 12:12:18 9.1 C 25 %
3531 23-12-2019 12:22:17 8.9 C 25 %
3532 23-12-2019 12:32:17 9 C 25 %
3533 23-12-2019 12:42:17 9.3 C 25 %
3534 23-12-2019 12:52:17 8.4 C 26 %
3535 23-12-2019 13:02:17 8.4 C 26 %
3536 23-12-2019 13:12:17 8.3 C 27 %
3537 23-12-2019 13:22:17 8.2 C 27 %
3538 23-12-2019 13:32:18 8.1 C 29 %
3539 23-12-2019 13:42:18 8.2 C 28 %
3540 23-12-2019 13:52:17 8.5 C 28 %
3541 23-12-2019 14:02:17 8.9 C 27 %
3542 23-12-2019 14:12:17 8.9 C 26 %
3543 23-12-2019 14:22:18 9 C 25 %
3544 23-12-2019 14:32:17 9.1 C 25 %
3545 23-12-2019 14:42:17 9.1 C 25 %
3546 23-12-2019 14:52:17 8.9 C 25 %
3547 23-12-2019 15:02:18 8.7 C 26 %
3548 23-12-2019 15:12:18 9.1 C 25 %
3549 23-12-2019 15:22:17 9.1 C 25 %
3550 23-12-2019 15:32:17 9 C 25 %
Sensor: Nr:Datum:Temp:Feuchte:
Aussen-T/F 3551 23-12-2019 15:42:17 9 C 25 %
3552 23-12-2019 15:52:17 8.8 C 25 %
3553 23-12-2019 16:02:17 8.8 C 25 %
3554 23-12-2019 16:12:17 8.6 C 26 %
3555 23-12-2019 16:22:18 8.5 C 25 %
3556 23-12-2019 16:32:17 8.4 C 25 %
3557 23-12-2019 16:42:17 8.5 C 25 %
3558 23-12-2019 16:52:18 8.5 C 25 %
3559 23-12-2019 17:02:17 8.2 C 25 %
3560 23-12-2019 17:12:17 8.4 C 25 %
3561 23-12-2019 17:22:17 8 C 25 %
3562 23-12-2019 17:32:17 7.9 C 25 %
3563 23-12-2019 17:42:18 7.8 C 25 %
3564 23-12-2019 17:52:17 7.8 C 25 %
3565 23-12-2019 18:02:17 7.9 C 25 %
3566 23-12-2019 18:12:17 8 C 23 %
3567 23-12-2019 18:22:17 7.9 C 23 %
3568 23-12-2019 18:32:17 7.9 C 25 %
3569 23-12-2019 18:42:17 7.6 C 25 %
3570 23-12-2019 18:52:17 7.5 C 26 %
3571 23-12-2019 19:02:17 7.3 C 26 %
3572 23-12-2019 19:12:17 6.7 C 29 %
3573 23-12-2019 19:22:17 6.4 C 30 %
3574 23-12-2019 19:32:17 7.4 C 26 %
3575 23-12-2019 19:42:17 7 C 26 %
Sensor: Nr:Datum:Temp:Feuchte:
Aussen-T/F 3576 23-12-2019 19:52:17 7 C 27 %
3577 23-12-2019 20:02:17 7 C 28 %
3578 23-12-2019 20:12:17 6.5 C 30 %
3579 23-12-2019 20:22:17 6.8 C 30 %
3580 23-12-2019 20:32:18 6.8 C 30 %
3581 23-12-2019 20:42:18 6.9 C 30 %
3582 23-12-2019 20:52:17 6.9 C 30 %
3583 23-12-2019 21:02:18 6.7 C 30 %
3584 23-12-2019 21:12:18 7.1 C 28 %
3585 23-12-2019 21:22:17 7 C 28 %
3586 23-12-2019 21:32:17 6.7 C 31 %
3587 23-12-2019 21:42:17 6.5 C 31 %
3588 23-12-2019 21:52:17 6.5 C 32 %
3589 23-12-2019 22:02:18 6.4 C 31 %
3590 23-12-2019 22:12:18 5.8 C 32 %
3591 23-12-2019 22:22:17 5.4 C 37 %
3592 23-12-2019 22:32:17 5.7 C 33 %
3593 23-12-2019 22:42:17 5.3 C 34 %
3594 23-12-2019 22:52:17 5.5 C 34 %
3595 23-12-2019 23:02:17 5.4 C 33 %
3596 23-12-2019 23:12:17 5.5 C 32 %
3597 23-12-2019 23:22:18 5.4 C 30 %
3598 23-12-2019 23:32:17 5.8 C 30 %
3599 23-12-2019 23:42:17 4.8 C 33 %
3600 23-12-2019 23:52:17 4.8 C 36 %
Sensor: Nr:Datum:Temp:Feuchte:
Aussen-T/F 3601 24-12-2019 00:02:17 5.6 C 35 %
3602 24-12-2019 00:12:17 5.8 C 32 %
3603 24-12-2019 00:22:17 5.7 C 32 %
3604 24-12-2019 00:32:18 6 C 32 %
3605 24-12-2019 00:42:18 6.1 C 31 %
3606 24-12-2019 00:52:17 6.3 C 31 %
3607 24-12-2019 01:02:17 5.6 C 32 %
3608 24-12-2019 01:12:17 5.9 C 32 %
3609 24-12-2019 01:22:17 6.1 C 30 %
3610 24-12-2019 01:32:17 6.3 C 30 %
3611 24-12-2019 01:42:17 5.9 C 31 %
3612 24-12-2019 01:52:17 5.7 C 33 %
3613 24-12-2019 02:02:17 5.7 C 35 %
3614 24-12-2019 02:12:17 5.8 C 35 %
3615 24-12-2019 02:22:17 5.6 C 35 %
3616 24-12-2019 02:32:18 5.5 C 36 %
3617 24-12-2019 02:42:18 5.5 C 36 %
3618 24-12-2019 02:52:17 6.6 C 30 %
3619 24-12-2019 03:02:18 6.7 C 29 %
3620 24-12-2019 03:12:18 6.3 C 30 %
3621 24-12-2019 03:22:17 5.7 C 31 %
3622 24-12-2019 03:32:17 5.5 C 31 %
3623 24-12-2019 03:42:17 5.7 C 31 %
3624 24-12-2019 03:52:17 5 C 32 %
3625 24-12-2019 04:02:17 5 C 38 %
Sensor: Nr:Datum:Temp:Feuchte:
Aussen-T/F 3626 24-12-2019 04:12:17 5.2 C 37 %
3627 24-12-2019 04:22:17 5.2 C 36 %
3628 24-12-2019 04:32:17 4.8 C 37 %
3629 24-12-2019 04:42:17 4.8 C 39 %
3630 24-12-2019 04:52:17 5.3 C 38 %
3631 24-12-2019 05:02:18 5.4 C 35 %
3632 24-12-2019 05:12:18 5.2 C 35 %
3633 24-12-2019 05:22:17 4.7 C 37 %
3634 24-12-2019 05:32:18 5 C 37 %
3635 24-12-2019 05:42:18 4.6 C 36 %
3636 24-12-2019 05:52:17 4.9 C 37 %
3637 24-12-2019 06:02:18 4.3 C 36 %
3638 24-12-2019 06:12:18 4.6 C 39 %
3639 24-12-2019 06:22:17 4.6 C 38 %
3640 24-12-2019 06:32:17 4.6 C 39 %
3641 24-12-2019 06:42:17 4.5 C 38 %
3642 24-12-2019 06:52:17 4.5 C 39 %
3643 24-12-2019 07:02:17 4.8 C 37 %
3644 24-12-2019 07:12:17 5 C 36 %
3645 24-12-2019 07:22:17 5.4 C 34 %
3646 24-12-2019 07:32:17 5.6 C 33 %
3647 24-12-2019 07:42:17 5.6 C 32 %
3648 24-12-2019 07:52:17 5.8 C 32 %
3649 24-12-2019 08:02:17 5.8 C 31 %
3650 24-12-2019 08:12:17 6 C 30 %
Sensor: Nr:Datum:Temp:Feuchte:
Aussen-T/F 3651 24-12-2019 08:22:17 6.2 C 29 %
3652 24-12-2019 08:32:17 6.2 C 30 %
3653 24-12-2019 08:42:17 6.3 C 30 %
3654 24-12-2019 08:52:18 6.4 C 30 %
3655 24-12-2019 09:02:17 6.5 C 29 %
3656 24-12-2019 09:12:17 6.8 C 29 %
3657 24-12-2019 09:22:17 6.8 C 28 %
3658 24-12-2019 09:32:17 6.8 C 29 %
3659 24-12-2019 09:42:17 6.8 C 28 %
3660 24-12-2019 09:52:17 6.5 C 30 %
3661 24-12-2019 10:02:17 6.4 C 30 %
3662 24-12-2019 10:12:17 6.2 C 31 %
3663 24-12-2019 10:22:17 6.2 C 33 %
3664 24-12-2019 10:32:17 6.3 C 37 %
3665 24-12-2019 10:42:17 6.8 C 37 %
3666 24-12-2019 10:52:17 6.7 C 33 %
3667 24-12-2019 11:02:17 6.8 C 35 %
3668 24-12-2019 11:12:17 6.9 C 34 %
3669 24-12-2019 11:22:17 7.5 C 32 %
3670 24-12-2019 11:32:17 8 C 30 %
3671 24-12-2019 11:42:17 8.2 C 29 %
3672 24-12-2019 11:52:18 8 C 29 %
3673 24-12-2019 12:02:17 7.8 C 30 %
3674 24-12-2019 12:12:17 7.6 C 30 %
3675 24-12-2019 12:22:17 8 C 28 %
Sensor: Nr:Datum:Temp:Feuchte:
Aussen-T/F 3676 24-12-2019 12:32:17 8.2 C 27 %
3677 24-12-2019 12:42:17 8.4 C 27 %
3678 24-12-2019 12:52:18 8.9 C 27 %
3679 24-12-2019 13:02:17 9.2 C 25 %
3680 24-12-2019 13:12:17 9.3 C 25 %
3681 24-12-2019 13:22:17 9.3 C 25 %
3682 24-12-2019 13:32:17 9.2 C 26 %
3683 24-12-2019 13:42:17 9.3 C 26 %
3684 24-12-2019 13:52:17 9.3 C 26 %
3685 24-12-2019 14:02:18 9.4 C 25 %
3686 24-12-2019 14:12:18 9.5 C 25 %
3687 24-12-2019 14:22:17 9.6 C 25 %
3688 24-12-2019 14:32:18 9.7 C 25 %
3689 24-12-2019 14:42:18 9.3 C 26 %
3690 24-12-2019 14:52:17 9.2 C 27 %
3691 24-12-2019 15:02:18 9.1 C 27 %
3692 24-12-2019 15:12:18 9.5 C 26 %
3693 24-12-2019 15:22:17 9.8 C 25 %
3694 24-12-2019 15:32:17 10 C 22 %
3695 24-12-2019 15:42:17 10.1 C 20 %
3696 24-12-2019 15:52:17 10.5 C 20 %
3697 24-12-2019 16:02:17 10.1 C 20 %
3698 24-12-2019 16:12:17 10 C 20 %
3699 24-12-2019 16:22:17 10.2 C 20 %
3700 24-12-2019 16:32:17 9.8 C 20 %
Sensor: Nr:Datum:Temp:Feuchte:
Aussen-T/F 3701 24-12-2019 16:42:17 9.7 C 21 %
3702 24-12-2019 16:52:17 10.1 C 20 %
3703 24-12-2019 17:02:17 9.8 C 20 %
3704 24-12-2019 17:12:17 9.4 C 20 %
3705 24-12-2019 17:22:18 9.6 C 20 %
3706 24-12-2019 17:32:17 8.8 C 20 %
3707 24-12-2019 17:42:17 9.1 C 20 %
3708 24-12-2019 17:52:17 9.3 C 20 %
3709 24-12-2019 18:02:17 9 C 20 %
3710 24-12-2019 18:12:17 8.5 C 26 %
3711 24-12-2019 18:22:17 8.9 C 25 %
3712 24-12-2019 18:32:17 8.2 C 28 %
3713 24-12-2019 18:42:17 7.8 C 31 %
3714 24-12-2019 18:52:17 7.5 C 35 %
3715 24-12-2019 19:02:17 7.6 C 31 %
3716 24-12-2019 19:12:17 7.3 C 31 %
3717 24-12-2019 19:22:17 6.7 C 35 %
3718 24-12-2019 19:32:17 6.5 C 40 %
3719 24-12-2019 19:42:17 6.5 C 36 %
3720 24-12-2019 19:52:17 6.2 C 36 %
3721 24-12-2019 20:02:17 6.7 C 35 %
3722 24-12-2019 20:12:17 7.3 C 30 %
3723 24-12-2019 20:22:17 7.2 C 32 %
3724 24-12-2019 20:32:18 7.1 C 30 %
3725 24-12-2019 20:42:18 7.3 C 31 %
Sensor: Nr:Datum:Temp:Feuchte:
Aussen-T/F 3726 24-12-2019 20:52:17 7.3 C 30 %
3727 24-12-2019 21:02:17 7.1 C 31 %
3728 24-12-2019 21:12:17 7.7 C 30 %
3729 24-12-2019 21:22:17 7.4 C 30 %
3730 24-12-2019 21:32:17 7.6 C 30 %
3731 24-12-2019 21:42:17 7.9 C 29 %
3732 24-12-2019 21:52:17 8.1 C 28 %
3733 24-12-2019 22:02:17 8.6 C 26 %
3734 24-12-2019 22:12:17 8.5 C 26 %
3735 24-12-2019 22:22:17 8.3 C 26 %
3736 24-12-2019 22:32:17 8.4 C 26 %
3737 24-12-2019 22:42:17 8.2 C 27 %
3738 24-12-2019 22:52:17 8 C 28 %
3739 24-12-2019 23:02:17 8.4 C 27 %
3740 24-12-2019 23:12:17 8.4 C 27 %
3741 24-12-2019 23:22:17 8.4 C 27 %
3742 24-12-2019 23:32:17 8.5 C 27 %
3743 24-12-2019 23:42:17 8.5 C 27 %
3744 24-12-2019 23:52:17 8.4 C 27 %
3745 25-12-2019 00:02:17 8.4 C 27 %
3746 25-12-2019 00:12:17 8.4 C 27 %
3747 25-12-2019 00:22:17 8.4 C 28 %
3748 25-12-2019 00:32:17 8.3 C 28 %
3749 25-12-2019 00:42:18 8.2 C 29 %
3750 25-12-2019 00:52:17 8.2 C 29 %
Sensor: Nr:Datum:Temp:Feuchte:
Aussen-T/F 3751 25-12-2019 01:02:17 7.8 C 32 %
3752 25-12-2019 01:12:17 7.7 C 33 %
3753 25-12-2019 01:22:17 7.5 C 35 %
3754 25-12-2019 01:32:18 7.3 C 35 %
3755 25-12-2019 01:42:18 7.5 C 35 %
3756 25-12-2019 01:52:17 7.6 C 33 %
3757 25-12-2019 02:02:17 7.7 C 32 %
3758 25-12-2019 02:12:17 8 C 31 %
3759 25-12-2019 02:22:17 7.9 C 31 %
3760 25-12-2019 02:32:18 7.9 C 31 %
3761 25-12-2019 02:42:18 7.9 C 31 %
3762 25-12-2019 02:52:17 7.9 C 31 %
3763 25-12-2019 03:02:17 7.8 C 31 %
3764 25-12-2019 03:12:17 7.9 C 32 %
3765 25-12-2019 03:22:17 8.1 C 31 %
3766 25-12-2019 03:32:17 8.3 C 30 %
3767 25-12-2019 03:42:17 8.2 C 30 %
3768 25-12-2019 03:52:18 8.2 C 30 %
3769 25-12-2019 04:02:17 7.9 C 34 %
3770 25-12-2019 04:12:17 8 C 34 %
3771 25-12-2019 04:22:18 7.9 C 35 %
3772 25-12-2019 04:32:17 7.9 C 36 %
3773 25-12-2019 04:42:17 7.9 C 38 %
3774 25-12-2019 04:52:17 7.9 C 36 %
3775 25-12-2019 05:02:17 7.9 C 37 %
Sensor: Nr:Datum:Temp:Feuchte:
Aussen-T/F 3776 25-12-2019 05:12:17 7.8 C 37 %
3777 25-12-2019 05:22:18 7.6 C 38 %
3778 25-12-2019 05:32:17 8 C 36 %
3779 25-12-2019 05:42:17 7.9 C 35 %
3780 25-12-2019 05:52:17 7.5 C 35 %
3781 25-12-2019 06:02:18 7.5 C 35 %
3782 25-12-2019 06:12:18 7.2 C 36 %
3783 25-12-2019 06:22:17 7.2 C 37 %
3784 25-12-2019 06:32:18 7.3 C 37 %
3785 25-12-2019 06:42:18 7.3 C 36 %
3786 25-12-2019 06:52:17 7.1 C 39 %
3787 25-12-2019 07:02:18 7.3 C 33 %
3788 25-12-2019 07:12:18 7.1 C 32 %
3789 25-12-2019 07:22:17 6.9 C 35 %
3790 25-12-2019 07:32:18 6.8 C 38 %
3791 25-12-2019 07:42:18 6.9 C 38 %
3792 25-12-2019 07:52:17 7 C 35 %
3793 25-12-2019 08:02:18 6.8 C 32 %
3794 25-12-2019 08:12:18 6.4 C 32 %
3795 25-12-2019 08:22:17 6.2 C 33 %
3796 25-12-2019 08:32:17 6.2 C 32 %
3797 25-12-2019 08:42:17 6.5 C 32 %
3798 25-12-2019 08:52:17 6.7 C 31 %
3799 25-12-2019 09:02:17 6.9 C 30 %
3800 25-12-2019 09:12:17 6.9 C 30 %
Sensor: Nr:Datum:Temp:Feuchte:
Aussen-T/F 3801 25-12-2019 09:22:18 6.8 C 30 %
3802 25-12-2019 09:32:17 7.3 C 28 %
3803 25-12-2019 09:42:17 7.3 C 27 %
3804 25-12-2019 09:52:17 7.3 C 27 %
3805 25-12-2019 10:02:17 7.1 C 29 %
3806 25-12-2019 10:12:17 7.3 C 27 %
3807 25-12-2019 10:22:18 7.6 C 26 %
3808 25-12-2019 10:32:17 7.7 C 26 %
3809 25-12-2019 10:42:17 7.8 C 25 %
3810 25-12-2019 10:52:17 7.5 C 26 %
3811 25-12-2019 11:02:17 7.5 C 26 %
3812 25-12-2019 11:12:17 7.5 C 26 %
3813 25-12-2019 11:22:17 7.7 C 26 %
3814 25-12-2019 11:32:17 7.4 C 26 %
3815 25-12-2019 11:42:17 7.4 C 27 %
3816 25-12-2019 11:52:18 7.1 C 28 %
3817 25-12-2019 12:02:17 7.1 C 29 %
3818 25-12-2019 12:12:17 7.6 C 27 %
3819 25-12-2019 12:22:17 7.6 C 27 %
3820 25-12-2019 12:32:17 7.7 C 27 %
3821 25-12-2019 12:42:17 7.8 C 27 %
3822 25-12-2019 12:52:18 7.6 C 27 %
3823 25-12-2019 13:02:17 7.1 C 29 %
3824 25-12-2019 13:12:17 7 C 31 %
3825 25-12-2019 13:22:18 6.9 C 31 %
Sensor: Nr:Datum:Temp:Feuchte:
Aussen-T/F 3826 25-12-2019 13:32:17 7.1 C 30 %
3827 25-12-2019 13:42:17 7 C 30 %
3828 25-12-2019 13:52:17 6.9 C 30 %
3829 25-12-2019 14:02:17 7.1 C 30 %
3830 25-12-2019 14:12:17 7.4 C 29 %
3831 25-12-2019 14:22:18 7.6 C 28 %
3832 25-12-2019 14:32:17 7.7 C 29 %
3833 25-12-2019 14:42:17 7.6 C 29 %
3834 25-12-2019 14:52:17 7.1 C 31 %
3835 25-12-2019 15:02:17 7.1 C 32 %
3836 25-12-2019 15:12:17 7.1 C 30 %
3837 25-12-2019 15:22:18 7.1 C 31 %
3838 25-12-2019 15:32:17 7.4 C 30 %
3839 25-12-2019 15:42:17 7.3 C 31 %
3840 25-12-2019 15:52:17 7.2 C 30 %
3841 25-12-2019 16:02:17 7.2 C 30 %
3842 25-12-2019 16:12:17 6.9 C 31 %
3843 25-12-2019 16:22:17 6.8 C 32 %
3844 25-12-2019 16:32:17 6.7 C 35 %
3845 25-12-2019 16:42:17 6.9 C 32 %
3846 25-12-2019 16:52:17 6.9 C 31 %
3847 25-12-2019 17:02:17 6.8 C 30 %
3848 25-12-2019 17:12:17 6.7 C 30 %
3849 25-12-2019 17:22:18 6.6 C 31 %
3850 25-12-2019 17:32:17 6.2 C 31 %
Sensor: Nr:Datum:Temp:Feuchte:
Aussen-T/F 3851 25-12-2019 17:42:17 5.7 C 35 %
3852 25-12-2019 17:52:18 5.9 C 35 %
3853 25-12-2019 18:02:17 6 C 33 %
3854 25-12-2019 18:12:17 6.1 C 32 %
3855 25-12-2019 18:22:17 6.2 C 33 %
3856 25-12-2019 18:32:17 6.2 C 33 %
3857 25-12-2019 18:42:17 6.2 C 32 %
3858 25-12-2019 18:52:17 6.2 C 32 %
3859 25-12-2019 19:02:17 6 C 33 %
3860 25-12-2019 19:12:17 5.9 C 33 %
3861 25-12-2019 19:22:17 6.1 C 32 %
3862 25-12-2019 19:32:18 6.1 C 32 %
3863 25-12-2019 19:42:18 6 C 33 %
3864 25-12-2019 19:52:17 5.9 C 33 %
3865 25-12-2019 20:02:17 5.8 C 35 %
3866 25-12-2019 20:12:17 5.9 C 35 %
3867 25-12-2019 20:22:18 5.9 C 34 %
3868 25-12-2019 20:32:17 5.8 C 34 %
3869 25-12-2019 20:42:17 5.6 C 37 %
3870 25-12-2019 20:52:17 5.5 C 38 %
3871 25-12-2019 21:02:18 5.5 C 38 %
3872 25-12-2019 21:12:18 5.4 C 40 %
3873 25-12-2019 21:22:17 5.3 C 41 %
3874 25-12-2019 21:32:17 5.3 C 43 %
3875 25-12-2019 21:42:17 5.3 C 42 %
Sensor: Nr:Datum:Temp:Feuchte:
Aussen-T/F 3876 25-12-2019 21:52:17 5.2 C 42 %
3877 25-12-2019 22:02:18 5.2 C 42 %
3878 25-12-2019 22:12:18 5.1 C 43 %
3879 25-12-2019 22:22:17 5.2 C 42 %
3880 25-12-2019 22:32:18 5.1 C 41 %
3881 25-12-2019 22:42:18 5.1 C 42 %
3882 25-12-2019 22:52:17 5.2 C 42 %
3883 25-12-2019 23:02:18 5.2 C 42 %
3884 25-12-2019 23:12:18 5.2 C 42 %
3885 25-12-2019 23:22:17 5.2 C 42 %
3886 25-12-2019 23:32:17 5.1 C 42 %
3887 25-12-2019 23:42:17 4.7 C 42 %
3888 25-12-2019 23:52:17 4.5 C 42 %
3889 26-12-2019 00:02:17 4.6 C 43 %
3890 26-12-2019 00:12:18 4 C 42 %
3891 26-12-2019 00:22:17 3.6 C 42 %
3892 26-12-2019 00:32:18 3.9 C 44 %
3893 26-12-2019 00:42:18 3.9 C 44 %
3894 26-12-2019 00:52:17 4.1 C 43 %
3895 26-12-2019 01:02:18 4.4 C 43 %
3896 26-12-2019 01:12:18 4.3 C 43 %
3897 26-12-2019 01:22:17 4.3 C 43 %
3898 26-12-2019 01:32:17 4.4 C 43 %
3899 26-12-2019 01:42:17 4.4 C 43 %
3900 26-12-2019 01:52:17 4.3 C 42 %
Sensor: Nr:Datum:Temp:Feuchte:
Aussen-T/F 3901 26-12-2019 02:02:18 4.3 C 42 %
3902 26-12-2019 02:12:18 4.4 C 42 %
3903 26-12-2019 02:22:17 4.2 C 42 %
3904 26-12-2019 02:32:17 4 C 42 %
3905 26-12-2019 02:42:17 4 C 42 %
3906 26-12-2019 02:52:17 4.2 C 42 %
3907 26-12-2019 03:02:18 4.2 C 42 %
3908 26-12-2019 03:12:18 4.1 C 42 %
3909 26-12-2019 03:22:17 4.1 C 42 %
3910 26-12-2019 03:32:17 4.1 C 42 %
3911 26-12-2019 03:42:17 4.1 C 42 %
3912 26-12-2019 03:52:17 3.9 C 43 %
3913 26-12-2019 04:02:17 3.6 C 42 %
3914 26-12-2019 04:12:17 3.6 C 42 %
3915 26-12-2019 04:22:18 3.4 C 42 %
3916 26-12-2019 04:32:17 3 C 42 %
3917 26-12-2019 04:42:17 3.1 C 42 %
3918 26-12-2019 04:52:17 3.1 C 43 %
3919 26-12-2019 05:02:17 3.3 C 43 %
3920 26-12-2019 05:12:17 3.5 C 43 %
3921 26-12-2019 05:22:17 3.4 C 43 %
3922 26-12-2019 05:32:18 3.5 C 43 %
3923 26-12-2019 05:42:18 3.4 C 43 %
3924 26-12-2019 05:52:17 3.5 C 43 %
3925 26-12-2019 06:02:17 3.6 C 43 %
Sensor: Nr:Datum:Temp:Feuchte:
Aussen-T/F 3926 26-12-2019 06:12:18 3.6 C 43 %
3927 26-12-2019 06:22:17 3.5 C 43 %
3928 26-12-2019 06:32:18 3.6 C 43 %
3929 26-12-2019 06:42:18 3.5 C 43 %
3930 26-12-2019 06:52:17 3.5 C 43 %
3931 26-12-2019 07:02:18 3.5 C 43 %
3932 26-12-2019 07:12:18 3.5 C 43 %
3933 26-12-2019 07:22:17 3.4 C 43 %
3934 26-12-2019 07:32:17 3.4 C 43 %
3935 26-12-2019 07:42:17 3.4 C 43 %
3936 26-12-2019 07:52:17 3.4 C 43 %
3937 26-12-2019 08:02:18 3.4 C 43 %
3938 26-12-2019 08:12:18 3.4 C 43 %
3939 26-12-2019 08:22:17 3.5 C 43 %
3940 26-12-2019 08:32:17 3.4 C 43 %
3941 26-12-2019 08:42:17 3.4 C 43 %
3942 26-12-2019 08:52:17 3.5 C 43 %
3943 26-12-2019 09:02:17 3.5 C 43 %
3944 26-12-2019 09:12:17 3.5 C 43 %
3945 26-12-2019 09:22:17 3.4 C 42 %
3946 26-12-2019 09:32:17 3.5 C 43 %
3947 26-12-2019 09:42:17 3.6 C 42 %
3948 26-12-2019 09:52:18 3.6 C 42 %
3949 26-12-2019 10:02:17 3.6 C 42 %
3950 26-12-2019 10:12:17 3.6 C 42 %
Sensor: Nr:Datum:Temp:Feuchte:
Aussen-T/F 3951 26-12-2019 10:22:18 3.8 C 42 %
3952 26-12-2019 10:32:17 4 C 41 %
3953 26-12-2019 10:42:17 4.3 C 41 %
3954 26-12-2019 10:52:18 4.5 C 41 %
3955 26-12-2019 11:02:17 4.7 C 41 %
3956 26-12-2019 11:12:17 4.8 C 41 %
3957 26-12-2019 11:22:17 5 C 40 %
3958 26-12-2019 11:32:17 5.4 C 40 %
3959 26-12-2019 11:42:17 5.5 C 39 %
3960 26-12-2019 11:52:17 5.6 C 37 %
3961 26-12-2019 12:02:17 5.7 C 36 %
3962 26-12-2019 12:12:17 5.7 C 36 %
3963 26-12-2019 12:22:17 5.7 C 35 %
3964 26-12-2019 12:32:18 5.9 C 35 %
3965 26-12-2019 12:42:18 6 C 35 %
3966 26-12-2019 12:52:17 6 C 36 %
3967 26-12-2019 13:02:18 5.9 C 36 %
3968 26-12-2019 13:12:18 5.9 C 37 %
3969 26-12-2019 13:22:17 5.8 C 36 %
3970 26-12-2019 13:32:18 5.8 C 36 %
3971 26-12-2019 13:42:18 5.7 C 36 %
3972 26-12-2019 13:52:17 5.7 C 36 %
3973 26-12-2019 14:02:18 5.7 C 36 %
3974 26-12-2019 14:12:18 5.8 C 35 %
3975 26-12-2019 14:22:17 6 C 35 %
Sensor: Nr:Datum:Temp:Feuchte:
Aussen-T/F 3976 26-12-2019 14:32:17 6 C 35 %
3977 26-12-2019 14:42:17 5.7 C 35 %
3978 26-12-2019 14:52:17 5.6 C 36 %
3979 26-12-2019 15:02:17 5.5 C 36 %
3980 26-12-2019 15:12:17 5.4 C 36 %
3981 26-12-2019 15:22:17 5.1 C 38 %
3982 26-12-2019 15:32:17 5 C 37 %
3983 26-12-2019 15:42:17 4.8 C 39 %
3984 26-12-2019 15:52:18 4.8 C 39 %
3985 26-12-2019 16:02:17 4.7 C 38 %
3986 26-12-2019 16:12:17 4.6 C 39 %
3987 26-12-2019 16:22:17 4.5 C 40 %
3988 26-12-2019 16:32:17 4.4 C 41 %
3989 26-12-2019 16:42:18 4.4 C 40 %
3990 26-12-2019 16:53:17 4.3 C 41 %
3991 26-12-2019 17:02:17 4.4 C 40 %
3992 26-12-2019 17:12:17 4.3 C 40 %
3993 26-12-2019 17:22:17 4.3 C 40 %
3994 26-12-2019 17:32:17 4.4 C 40 %
3995 26-12-2019 17:42:17 4.1 C 40 %
3996 26-12-2019 17:52:17 4.1 C 40 %
3997 26-12-2019 18:02:17 4 C 40 %
3998 26-12-2019 18:12:17 4 C 41 %
3999 26-12-2019 18:22:17 4.1 C 41 %
4000 26-12-2019 18:32:17 4.1 C 41 %
Sensor: Nr:Datum:Temp:Feuchte:
Aussen-T/F 4001 26-12-2019 18:42:18 4.1 C 40 %
4002 26-12-2019 18:53:17 4.1 C 40 %
4003 26-12-2019 19:02:17 4 C 40 %
4004 26-12-2019 19:12:17 4 C 41 %
4005 26-12-2019 19:23:17 4 C 41 %
4006 26-12-2019 19:32:17 3.8 C 41 %
4007 26-12-2019 19:42:17 4 C 41 %
4008 26-12-2019 19:53:17 3.8 C 41 %
4009 26-12-2019 20:02:17 3.8 C 42 %
4010 26-12-2019 20:12:17 3.9 C 42 %
4011 26-12-2019 20:23:17 4 C 41 %
4012 26-12-2019 20:32:17 4.1 C 40 %
4013 26-12-2019 20:42:17 4.2 C 39 %
4014 26-12-2019 20:53:17 4.1 C 38 %
4015 26-12-2019 21:02:17 4.3 C 37 %
4016 26-12-2019 21:12:17 4.2 C 38 %
4017 26-12-2019 21:23:17 4.1 C 38 %
4018 26-12-2019 21:32:18 4.1 C 38 %
4019 26-12-2019 21:42:18 4.2 C 37 %
4020 26-12-2019 21:52:17 4.3 C 37 %
4021 26-12-2019 22:02:18 4.1 C 39 %
4022 26-12-2019 22:12:18 4.1 C 41 %
4023 26-12-2019 22:22:17 4.1 C 41 %
4024 26-12-2019 22:33:17 4.1 C 41 %
4025 26-12-2019 22:43:17 4.1 C 42 %
Sensor: Nr:Datum:Temp:Feuchte:
Aussen-T/F 4026 26-12-2019 22:52:17 4.1 C 42 %
4027 26-12-2019 23:03:17 4.1 C 43 %
4028 26-12-2019 23:13:17 4.1 C 43 %
4029 26-12-2019 23:23:17 4 C 43 %
4030 26-12-2019 23:32:17 4 C 43 %
4031 26-12-2019 23:42:17 4 C 42 %
4032 26-12-2019 23:53:17 4 C 42 %
4033 27-12-2019 00:02:17 4 C 42 %
4034 27-12-2019 00:12:17 4 C 42 %
4035 27-12-2019 00:23:17 4 C 42 %
4036 27-12-2019 00:32:17 4 C 42 %
4037 27-12-2019 00:42:18 4.1 C 42 %
4038 27-12-2019 00:53:17 4.1 C 42 %
4039 27-12-2019 01:03:18 4.1 C 42 %
4040 27-12-2019 01:13:18 4.1 C 42 %
4041 27-12-2019 01:23:17 4.1 C 42 %
4042 27-12-2019 01:33:17 4.1 C 42 %
4043 27-12-2019 01:43:17 4.1 C 42 %
4044 27-12-2019 01:53:18 4.1 C 42 %
4045 27-12-2019 02:03:17 4.1 C 42 %
4046 27-12-2019 02:13:17 4.1 C 42 %
4047 27-12-2019 02:23:17 4.1 C 42 %
4048 27-12-2019 02:33:18 4.1 C 42 %
4049 27-12-2019 02:43:19 4.1 C 42 %
4050 27-12-2019 02:53:17 4.2 C 42 %
Sensor: Nr:Datum:Temp:Feuchte:
Aussen-T/F 4051 27-12-2019 03:03:17 4.3 C 42 %
4052 27-12-2019 03:13:17 4.2 C 42 %
4053 27-12-2019 03:23:17 4.3 C 42 %
4054 27-12-2019 03:33:17 4.3 C 42 %
4055 27-12-2019 03:43:18 4.3 C 42 %
4056 27-12-2019 03:53:17 4.3 C 42 %
4057 27-12-2019 04:03:17 4.3 C 42 %
4058 27-12-2019 04:13:17 4.3 C 42 %
4059 27-12-2019 04:23:17 4.3 C 42 %
4060 27-12-2019 04:33:17 4.3 C 42 %
4061 27-12-2019 04:43:17 4.3 C 42 %
4062 27-12-2019 04:53:18 4.4 C 42 %
4063 27-12-2019 05:03:17 4.4 C 42 %
4064 27-12-2019 05:13:17 4.4 C 42 %
4065 27-12-2019 05:23:17 4.4 C 42 %
4066 27-12-2019 05:33:17 4.3 C 42 %
4067 27-12-2019 05:43:17 4.4 C 42 %
4068 27-12-2019 05:53:17 4.4 C 42 %
4069 27-12-2019 06:03:17 4.4 C 42 %
4070 27-12-2019 06:13:17 4.4 C 42 %
4071 27-12-2019 06:23:17 4.4 C 42 %
4072 27-12-2019 06:33:17 4.4 C 42 %
4073 27-12-2019 06:43:17 4.4 C 42 %
4074 27-12-2019 06:53:17 4.4 C 42 %
4075 27-12-2019 07:03:17 4.5 C 42 %
Sensor: Nr:Datum:Temp:Feuchte:
Aussen-T/F 4076 27-12-2019 07:13:17 4.4 C 42 %
4077 27-12-2019 07:23:18 4.4 C 42 %
4078 27-12-2019 07:33:17 4.4 C 42 %
4079 27-12-2019 07:43:17 4.4 C 42 %
4080 27-12-2019 07:53:17 4.3 C 42 %
4081 27-12-2019 08:03:17 4.3 C 42 %
4082 27-12-2019 08:13:17 4.3 C 42 %
4083 27-12-2019 08:23:17 4.3 C 42 %
4084 27-12-2019 08:33:17 4.3 C 42 %
4085 27-12-2019 08:43:17 4.3 C 42 %
4086 27-12-2019 08:53:18 4.3 C 42 %
4087 27-12-2019 09:03:17 4.4 C 42 %
4088 27-12-2019 09:13:17 4.4 C 42 %
4089 27-12-2019 09:23:17 4.3 C 42 %
4090 27-12-2019 09:33:17 4.5 C 42 %
4091 27-12-2019 09:43:17 4.6 C 42 %
4092 27-12-2019 09:53:17 4.8 C 41 %
4093 27-12-2019 10:03:17 4.9 C 41 %
4094 27-12-2019 10:13:17 4.8 C 40 %
4095 27-12-2019 10:23:17 4.8 C 40 %
4096 27-12-2019 10:33:18 4.9 C 40 %
4097 27-12-2019 10:43:18 4.9 C 40 %
4098 27-12-2019 10:53:17 5 C 38 %
4099 27-12-2019 11:03:18 5 C 38 %
4100 27-12-2019 11:13:18 5.1 C 37 %
Sensor: Nr:Datum:Temp:Feuchte:
Aussen-T/F 4101 27-12-2019 11:23:17 5.1 C 37 %
4102 27-12-2019 11:33:17 5.2 C 36 %
4103 27-12-2019 11:43:17 5.7 C 33 %
4104 27-12-2019 11:53:17 6 C 31 %
4105 27-12-2019 12:03:17 6.1 C 31 %
4106 27-12-2019 12:13:17 5.9 C 31 %
4107 27-12-2019 12:23:17 5.9 C 31 %
4108 27-12-2019 12:33:17 6 C 31 %
4109 27-12-2019 12:43:17 6 C 31 %
4110 27-12-2019 12:53:17 5.9 C 31 %
4111 27-12-2019 13:03:17 5.7 C 31 %
4112 27-12-2019 13:13:17 5.7 C 31 %
4113 27-12-2019 13:23:17 5.6 C 31 %
4114 27-12-2019 13:33:17 5.7 C 31 %
4115 27-12-2019 13:43:17 5.7 C 30 %
4116 27-12-2019 13:53:17 5.8 C 30 %
4117 27-12-2019 14:03:18 5.9 C 30 %
4118 27-12-2019 14:13:18 6.1 C 29 %
4119 27-12-2019 14:23:18 5.9 C 29 %
4120 27-12-2019 14:33:17 6 C 30 %
4121 27-12-2019 14:43:17 5.9 C 28 %
4122 27-12-2019 14:53:18 5.8 C 26 %
4123 27-12-2019 15:03:17 5.7 C 27 %
4124 27-12-2019 15:13:17 5.7 C 28 %
4125 27-12-2019 15:23:18 5.6 C 29 %
Sensor: Nr:Datum:Temp:Feuchte:
Aussen-T/F 4126 27-12-2019 15:33:17 5.6 C 29 %
4127 27-12-2019 15:43:17 5.4 C 30 %
4128 27-12-2019 15:53:17 5.3 C 31 %
4129 27-12-2019 16:03:17 5.1 C 33 %
4130 27-12-2019 16:13:17 4.9 C 33 %
4131 27-12-2019 16:23:17 4.9 C 33 %
4132 27-12-2019 16:33:17 4.8 C 34 %
4133 27-12-2019 16:43:17 4.7 C 33 %
4134 27-12-2019 16:53:17 4.6 C 34 %
4135 27-12-2019 17:03:17 4.5 C 34 %
4136 27-12-2019 17:13:17 4.5 C 35 %
4137 27-12-2019 17:23:17 4.5 C 33 %
4138 27-12-2019 17:33:18 4.5 C 34 %
4139 27-12-2019 17:43:18 4.5 C 34 %
4140 27-12-2019 17:53:17 4.4 C 34 %
4141 27-12-2019 18:03:18 4.4 C 33 %
4142 27-12-2019 18:13:18 4.4 C 33 %
4143 27-12-2019 18:23:17 4.4 C 32 %
4144 27-12-2019 18:33:18 4.4 C 34 %
4145 27-12-2019 18:43:18 4.3 C 34 %
4146 27-12-2019 18:53:17 4.2 C 33 %
4147 27-12-2019 19:03:17 4.2 C 33 %
4148 27-12-2019 19:13:17 4.2 C 33 %
4149 27-12-2019 19:23:17 4.3 C 32 %
4150 27-12-2019 19:33:17 4.2 C 33 %
Sensor: Nr:Datum:Temp:Feuchte:
Aussen-T/F 4151 27-12-2019 19:43:17 4.1 C 34 %
4152 27-12-2019 19:53:18 3.9 C 35 %
4153 27-12-2019 20:03:17 3.8 C 34 %
4154 27-12-2019 20:13:17 4 C 32 %
4155 27-12-2019 20:23:17 4 C 32 %
4156 27-12-2019 20:33:18 4 C 32 %
4157 27-12-2019 20:43:18 4 C 31 %
4158 27-12-2019 20:53:17 4.1 C 31 %
4159 27-12-2019 21:03:18 4.1 C 31 %
4160 27-12-2019 21:13:18 4 C 31 %
4161 27-12-2019 21:23:17 4 C 31 %
4162 27-12-2019 21:33:18 3.9 C 33 %
4163 27-12-2019 21:43:18 3.9 C 32 %
4164 27-12-2019 21:53:17 3.7 C 32 %
4165 27-12-2019 22:03:17 3.6 C 32 %
4166 27-12-2019 22:13:17 3.3 C 32 %
4167 27-12-2019 22:23:17 3.2 C 32 %
4168 27-12-2019 22:33:17 2.7 C 33 %
4169 27-12-2019 22:43:17 2.2 C 34 %
4170 27-12-2019 22:53:17 2 C 35 %
4171 27-12-2019 23:03:18 1.7 C 38 %
4172 27-12-2019 23:13:18 1.3 C 39 %
4173 27-12-2019 23:23:17 1.2 C 41 %
4174 27-12-2019 23:33:17 0.9 C 42 %
4175 27-12-2019 23:43:17 0.8 C 41 %
Sensor: Nr:Datum:Temp:Feuchte:
Aussen-T/F 4176 27-12-2019 23:53:17 0.7 C 41 %
Sensor: Nr:Datum:Temp:Feuchte:
G-T/H 1 29-11-2019 00:00:17 11.7 C 76 %
2 29-11-2019 00:10:17 11.7 C 76 %
3 29-11-2019 00:20:17 11.7 C 76 %
4 29-11-2019 00:30:17 11.7 C 76 %
5 29-11-2019 00:40:17 11.7 C 76 %
6 29-11-2019 00:50:17 11.7 C 76 %
7 29-11-2019 01:00:17 11.7 C 76 %
8 29-11-2019 01:10:17 11.7 C 76 %
9 29-11-2019 01:20:17 11.7 C 76 %
10 29-11-2019 01:30:17 11.7 C 76 %
11 29-11-2019 01:40:17 11.7 C 76 %
12 29-11-2019 01:50:17 11.7 C 76 %
13 29-11-2019 02:00:17 11.7 C 76 %
14 29-11-2019 02:10:17 11.7 C 76 %
15 29-11-2019 02:20:17 11.7 C 76 %
16 29-11-2019 02:30:17 11.7 C 76 %
17 29-11-2019 02:40:17 11.7 C 76 %
18 29-11-2019 02:50:17 11.7 C 76 %
19 29-11-2019 03:00:17 11.7 C 76 %
20 29-11-2019 03:10:17 11.7 C 76 %
21 29-11-2019 03:20:17 11.7 C 76 %
22 29-11-2019 03:30:17 11.7 C 76 %
23 29-11-2019 03:40:17 11.7 C 76 %
24 29-11-2019 03:50:17 11.7 C 76 %
25 29-11-2019 04:00:17 11.7 C 76 %
Sensor: Nr:Datum:Temp:Feuchte:
G-T/H 26 29-11-2019 04:10:17 11.7 C 76 %
27 29-11-2019 04:20:17 11.7 C 76 %
28 29-11-2019 04:30:17 11.7 C 76 %
29 29-11-2019 04:40:17 11.7 C 76 %
30 29-11-2019 04:50:17 11.7 C 76 %
31 29-11-2019 05:00:17 11.7 C 76 %
32 29-11-2019 05:10:17 11.7 C 76 %
33 29-11-2019 05:20:17 11.7 C 76 %
34 29-11-2019 05:30:17 11.7 C 76 %
35 29-11-2019 05:40:18 11.7 C 76 %
36 29-11-2019 05:50:17 11.6 C 76 %
37 29-11-2019 06:00:17 11.6 C 75 %
38 29-11-2019 06:10:17 11.6 C 75 %
39 29-11-2019 06:20:17 11.7 C 75 %
40 29-11-2019 06:30:17 11.6 C 75 %
41 29-11-2019 06:40:17 11.6 C 75 %
42 29-11-2019 06:50:17 11.6 C 75 %
43 29-11-2019 07:00:17 11.6 C 75 %
44 29-11-2019 07:10:17 11.6 C 75 %
45 29-11-2019 07:20:17 11.6 C 75 %
46 29-11-2019 07:30:17 11.6 C 75 %
47 29-11-2019 07:40:17 11.6 C 75 %
48 29-11-2019 07:50:17 11.6 C 75 %
49 29-11-2019 08:00:17 11.6 C 75 %
50 29-11-2019 08:10:17 11.6 C 75 %
Sensor: Nr:Datum:Temp:Feuchte:
G-T/H 51 29-11-2019 08:20:17 11.5 C 75 %
52 29-11-2019 08:30:17 11.6 C 75 %
53 29-11-2019 08:40:17 11.5 C 75 %
54 29-11-2019 08:50:17 11.5 C 75 %
55 29-11-2019 09:00:17 11.5 C 74 %
56 29-11-2019 09:10:17 11.5 C 74 %
57 29-11-2019 09:20:17 11.4 C 74 %
58 29-11-2019 09:30:17 11.5 C 74 %
59 29-11-2019 09:40:17 11.4 C 74 %
60 29-11-2019 09:50:17 11.4 C 74 %
61 29-11-2019 10:00:17 11.4 C 73 %
62 29-11-2019 10:10:17 11.3 C 73 %
63 29-11-2019 10:20:17 11.3 C 73 %
64 29-11-2019 10:30:17 11.4 C 73 %
65 29-11-2019 10:40:17 11.4 C 73 %
66 29-11-2019 10:50:17 11.4 C 73 %
67 29-11-2019 11:00:17 11.4 C 73 %
68 29-11-2019 11:10:17 11.4 C 73 %
69 29-11-2019 11:20:17 11.4 C 73 %
70 29-11-2019 11:30:17 11.4 C 73 %
71 29-11-2019 11:40:17 11.4 C 73 %
72 29-11-2019 11:50:17 11.4 C 73 %
73 29-11-2019 12:00:17 11.4 C 73 %
74 29-11-2019 12:10:17 11.4 C 73 %
75 29-11-2019 12:20:17 11.4 C 73 %
Sensor: Nr:Datum:Temp:Feuchte:
G-T/H 76 29-11-2019 12:30:17 11.4 C 73 %
77 29-11-2019 12:40:17 11.3 C 73 %
78 29-11-2019 12:50:17 11.3 C 73 %
79 29-11-2019 13:00:17 11.3 C 73 %
80 29-11-2019 13:10:17 11.3 C 73 %
81 29-11-2019 13:20:17 11.3 C 73 %
82 29-11-2019 13:30:17 11.3 C 73 %
83 29-11-2019 13:40:17 11.2 C 73 %
84 29-11-2019 13:50:17 11.2 C 73 %
85 29-11-2019 14:00:17 11.2 C 72 %
86 29-11-2019 14:10:17 11.2 C 72 %
87 29-11-2019 14:20:17 11.2 C 72 %
88 29-11-2019 14:30:17 11.2 C 71 %
89 29-11-2019 14:40:17 11.2 C 71 %
90 29-11-2019 14:50:17 11.2 C 71 %
91 29-11-2019 15:00:17 11.1 C 71 %
92 29-11-2019 15:10:17 11.1 C 70 %
93 29-11-2019 15:20:17 11.1 C 70 %
94 29-11-2019 15:30:17 11.1 C 70 %
95 29-11-2019 15:40:17 11.1 C 70 %
96 29-11-2019 15:50:17 11.1 C 69 %
97 29-11-2019 16:00:17 11.1 C 69 %
98 29-11-2019 16:10:17 11.1 C 69 %
99 29-11-2019 16:20:17 11 C 69 %
100 29-11-2019 16:30:17 11 C 69 %
Sensor: Nr:Datum:Temp:Feuchte:
G-T/H 101 29-11-2019 16:40:18 11 C 69 %
102 29-11-2019 16:50:17 11 C 69 %
103 29-11-2019 17:00:18 11 C 69 %
104 29-11-2019 17:10:18 11 C 69 %
105 29-11-2019 17:20:17 10.9 C 69 %
106 29-11-2019 17:30:18 11 C 69 %
107 29-11-2019 17:40:18 10.9 C 69 %
108 29-11-2019 17:50:17 10.9 C 69 %
109 29-11-2019 18:00:17 10.9 C 69 %
110 29-11-2019 18:10:18 10.8 C 69 %
111 29-11-2019 18:20:17 10.8 C 69 %
112 29-11-2019 18:30:17 10.9 C 69 %
113 29-11-2019 18:40:17 10.8 C 69 %
114 29-11-2019 18:50:17 10.8 C 69 %
115 29-11-2019 19:00:17 10.8 C 69 %
116 29-11-2019 19:10:17 10.8 C 69 %
117 29-11-2019 19:20:17 10.7 C 69 %
118 29-11-2019 19:30:17 10.8 C 69 %
119 29-11-2019 19:40:17 10.8 C 69 %
120 29-11-2019 19:50:17 10.8 C 69 %
121 29-11-2019 20:00:17 10.7 C 68 %
122 29-11-2019 20:10:17 10.7 C 68 %
123 29-11-2019 20:20:17 10.7 C 68 %
124 29-11-2019 20:30:17 10.7 C 68 %
125 29-11-2019 20:40:17 10.7 C 68 %
Sensor: Nr:Datum:Temp:Feuchte:
G-T/H 126 29-11-2019 20:50:17 10.7 C 68 %
127 29-11-2019 21:00:17 10.7 C 68 %
128 29-11-2019 21:10:17 10.7 C 68 %
129 29-11-2019 21:20:17 10.7 C 68 %
130 29-11-2019 21:30:17 10.7 C 68 %
131 29-11-2019 21:40:17 10.6 C 68 %
132 29-11-2019 21:50:17 10.6 C 68 %
133 29-11-2019 22:00:17 10.6 C 68 %
134 29-11-2019 22:10:17 10.6 C 68 %
135 29-11-2019 22:20:17 10.5 C 68 %
136 29-11-2019 22:30:17 10.5 C 68 %
137 29-11-2019 22:40:17 10.5 C 68 %
138 29-11-2019 22:50:17 10.5 C 68 %
139 29-11-2019 23:00:17 10.5 C 68 %
140 29-11-2019 23:10:17 10.5 C 68 %
141 29-11-2019 23:20:17 10.5 C 68 %
142 29-11-2019 23:30:17 10.4 C 68 %
143 29-11-2019 23:40:17 10.4 C 68 %
144 29-11-2019 23:50:17 10.4 C 68 %
145 30-11-2019 00:00:17 10.4 C 68 %
146 30-11-2019 00:10:17 10.4 C 67 %
147 30-11-2019 00:20:17 10.4 C 67 %
148 30-11-2019 00:30:17 10.4 C 67 %
149 30-11-2019 00:40:17 10.3 C 67 %
150 30-11-2019 00:50:17 10.3 C 67 %
Sensor: Nr:Datum:Temp:Feuchte:
G-T/H 151 30-11-2019 01:00:17 10.3 C 67 %
152 30-11-2019 01:10:17 10.3 C 67 %
153 30-11-2019 01:20:17 10.3 C 67 %
154 30-11-2019 01:30:17 10.2 C 67 %
155 30-11-2019 01:40:17 10.2 C 67 %
156 30-11-2019 01:50:17 10.2 C 67 %
157 30-11-2019 02:00:17 10.2 C 67 %
158 30-11-2019 02:10:17 10.2 C 67 %
159 30-11-2019 02:20:17 10.2 C 67 %
160 30-11-2019 02:30:17 10.1 C 67 %
161 30-11-2019 02:40:17 10.1 C 67 %
162 30-11-2019 02:50:17 10.1 C 67 %
163 30-11-2019 03:00:17 10.1 C 67 %
164 30-11-2019 03:10:17 10.1 C 67 %
165 30-11-2019 03:20:17 10.1 C 66 %
166 30-11-2019 03:30:17 10.1 C 66 %
167 30-11-2019 03:40:17 10 C 66 %
168 30-11-2019 03:50:17 10 C 66 %
169 30-11-2019 04:00:17 10 C 66 %
170 30-11-2019 04:10:17 10 C 66 %
171 30-11-2019 04:20:17 10 C 67 %
172 30-11-2019 04:30:17 10 C 67 %
173 30-11-2019 04:40:17 10 C 67 %
174 30-11-2019 04:50:17 10 C 67 %
175 30-11-2019 05:00:17 10 C 67 %
Sensor: Nr:Datum:Temp:Feuchte:
G-T/H 176 30-11-2019 05:10:17 10 C 67 %
177 30-11-2019 05:20:17 10 C 68 %
178 30-11-2019 05:30:17 10 C 68 %
179 30-11-2019 05:40:17 9.9 C 69 %
180 30-11-2019 05:50:17 9.9 C 69 %
181 30-11-2019 06:00:17 9.9 C 69 %
182 30-11-2019 06:10:17 9.9 C 69 %
183 30-11-2019 06:20:17 9.9 C 69 %
184 30-11-2019 06:30:17 9.9 C 69 %
185 30-11-2019 06:40:17 9.8 C 69 %
186 30-11-2019 06:50:17 9.8 C 69 %
187 30-11-2019 07:00:17 9.8 C 69 %
188 30-11-2019 07:10:17 9.8 C 69 %
189 30-11-2019 07:20:17 9.8 C 69 %
190 30-11-2019 07:30:17 9.8 C 69 %
191 30-11-2019 07:40:17 9.8 C 69 %
192 30-11-2019 07:50:17 9.7 C 69 %
193 30-11-2019 08:00:17 9.7 C 69 %
194 30-11-2019 08:10:17 9.8 C 69 %
195 30-11-2019 08:20:17 9.7 C 69 %
196 30-11-2019 08:30:17 9.7 C 69 %
197 30-11-2019 08:40:17 9.7 C 69 %
198 30-11-2019 08:50:17 9.7 C 69 %
199 30-11-2019 09:00:17 9.7 C 69 %
200 30-11-2019 09:10:17 9.7 C 69 %
Sensor: Nr:Datum:Temp:Feuchte:
G-T/H 201 30-11-2019 09:20:17 9.7 C 69 %
202 30-11-2019 09:30:17 9.6 C 69 %
203 30-11-2019 09:40:17 9.6 C 69 %
204 30-11-2019 09:50:17 9.6 C 69 %
205 30-11-2019 10:00:17 9.6 C 69 %
206 30-11-2019 10:10:17 9.6 C 69 %
207 30-11-2019 10:20:17 9.6 C 69 %
208 30-11-2019 10:30:17 9.6 C 69 %
209 30-11-2019 10:40:17 9.6 C 69 %
210 30-11-2019 10:50:17 9.6 C 69 %
211 30-11-2019 11:00:18 9.6 C 69 %
212 30-11-2019 11:10:18 9.6 C 69 %
213 30-11-2019 11:20:17 9.5 C 69 %
214 30-11-2019 11:30:17 9.5 C 69 %
215 30-11-2019 11:40:17 9.5 C 69 %
216 30-11-2019 11:50:17 9.6 C 69 %
217 30-11-2019 12:00:17 9.8 C 69 %
218 30-11-2019 12:10:17 9.8 C 69 %
219 30-11-2019 12:20:17 9.7 C 69 %
220 30-11-2019 12:30:17 9.7 C 69 %
221 30-11-2019 12:40:17 9.7 C 69 %
222 30-11-2019 12:50:17 9.6 C 69 %
223 30-11-2019 13:00:17 9.6 C 69 %
224 30-11-2019 13:10:17 9.6 C 69 %
225 30-11-2019 13:20:17 9.6 C 69 %
Sensor: Nr:Datum:Temp:Feuchte:
G-T/H 226 30-11-2019 13:30:17 9.6 C 69 %
227 30-11-2019 13:40:17 9.6 C 69 %
228 30-11-2019 13:50:17 9.6 C 69 %
229 30-11-2019 14:00:17 9.6 C 69 %
230 30-11-2019 14:10:17 9.6 C 69 %
231 30-11-2019 14:20:17 9.5 C 70 %
232 30-11-2019 14:30:17 9.5 C 70 %
233 30-11-2019 14:40:17 9.5 C 70 %
234 30-11-2019 14:50:17 9.5 C 70 %
235 30-11-2019 15:00:17 9.5 C 70 %
236 30-11-2019 15:10:17 9.5 C 70 %
237 30-11-2019 15:20:18 9.5 C 70 %
238 30-11-2019 15:30:17 9.5 C 70 %
239 30-11-2019 15:40:17 9.5 C 70 %
240 30-11-2019 15:50:17 9.5 C 70 %
241 30-11-2019 16:00:17 9.4 C 70 %
242 30-11-2019 16:10:17 9.4 C 70 %
243 30-11-2019 16:20:17 9.4 C 70 %
244 30-11-2019 16:30:17 9.4 C 70 %
245 30-11-2019 16:40:17 9.4 C 70 %
246 30-11-2019 16:50:17 9.4 C 70 %
247 30-11-2019 17:00:17 9.5 C 70 %
248 30-11-2019 17:10:17 9.4 C 70 %
249 30-11-2019 17:20:17 9.4 C 70 %
250 30-11-2019 17:30:17 9.5 C 70 %
Sensor: Nr:Datum:Temp:Feuchte:
G-T/H 251 30-11-2019 17:40:17 9.4 C 70 %
252 30-11-2019 17:50:17 9.4 C 70 %
253 30-11-2019 18:00:17 9.4 C 70 %
254 30-11-2019 18:10:17 9.4 C 70 %
255 30-11-2019 18:20:17 9.4 C 70 %
256 30-11-2019 18:30:17 9.4 C 70 %
257 30-11-2019 18:40:17 9.4 C 70 %
258 30-11-2019 18:50:17 9.4 C 70 %
259 30-11-2019 19:00:17 9.4 C 70 %
260 30-11-2019 19:10:17 9.4 C 70 %
261 30-11-2019 19:20:17 9.4 C 70 %
262 30-11-2019 19:30:17 9.4 C 70 %
263 30-11-2019 19:40:17 9.4 C 70 %
264 30-11-2019 19:50:17 9.4 C 70 %
265 30-11-2019 20:00:17 9.3 C 70 %
266 30-11-2019 20:10:18 9.3 C 70 %
267 30-11-2019 20:20:18 9.3 C 70 %
268 30-11-2019 20:30:17 9.3 C 70 %
269 30-11-2019 20:40:17 9.3 C 70 %
270 30-11-2019 20:50:17 9.3 C 70 %
271 30-11-2019 21:00:17 9.3 C 70 %
272 30-11-2019 21:10:17 9.3 C 70 %
273 30-11-2019 21:20:17 9.3 C 70 %
274 30-11-2019 21:30:17 9.3 C 70 %
275 30-11-2019 21:40:17 9.3 C 70 %
Sensor: Nr:Datum:Temp:Feuchte:
G-T/H 276 30-11-2019 21:50:17 9.3 C 70 %
277 30-11-2019 22:00:17 9.2 C 70 %
278 30-11-2019 22:10:17 9.3 C 70 %
279 30-11-2019 22:20:17 9.3 C 70 %
280 30-11-2019 22:30:17 9.3 C 70 %
281 30-11-2019 22:40:17 9.2 C 70 %
282 30-11-2019 22:50:17 9.3 C 70 %
283 30-11-2019 23:00:17 9.2 C 70 %
284 30-11-2019 23:10:17 9.2 C 70 %
285 30-11-2019 23:20:17 9.2 C 70 %
286 30-11-2019 23:30:17 9.2 C 70 %
287 30-11-2019 23:40:17 9.2 C 70 %
288 30-11-2019 23:50:17 9.2 C 70 %
289 01-12-2019 00:00:17 9.2 C 70 %
290 01-12-2019 00:10:17 9.2 C 70 %
291 01-12-2019 00:20:17 9.2 C 70 %
292 01-12-2019 00:30:17 9.2 C 70 %
293 01-12-2019 00:40:17 9.2 C 70 %
294 01-12-2019 00:50:18 9.2 C 70 %
295 01-12-2019 01:00:17 9.2 C 70 %
296 01-12-2019 01:10:17 9.2 C 70 %
297 01-12-2019 01:20:17 9.1 C 70 %
298 01-12-2019 01:30:17 9.1 C 70 %
299 01-12-2019 01:40:17 9.1 C 70 %
300 01-12-2019 01:50:17 9.1 C 70 %
Sensor: Nr:Datum:Temp:Feuchte:
G-T/H 301 01-12-2019 02:00:17 9.1 C 70 %
302 01-12-2019 02:10:17 9.1 C 70 %
303 01-12-2019 02:20:17 9.1 C 69 %
304 01-12-2019 02:30:17 9.1 C 69 %
305 01-12-2019 02:40:17 9.1 C 69 %
306 01-12-2019 02:50:17 9.1 C 69 %
307 01-12-2019 03:00:17 9.1 C 69 %
308 01-12-2019 03:10:17 9.1 C 69 %
309 01-12-2019 03:20:17 9.1 C 69 %
310 01-12-2019 03:30:17 9.1 C 69 %
311 01-12-2019 03:40:17 9.1 C 69 %
312 01-12-2019 03:50:17 9 C 69 %
313 01-12-2019 04:00:17 9.1 C 69 %
314 01-12-2019 04:10:17 9 C 69 %
315 01-12-2019 04:20:17 9 C 69 %
316 01-12-2019 04:30:17 9 C 69 %
317 01-12-2019 04:40:17 9 C 69 %
318 01-12-2019 04:50:17 9 C 69 %
319 01-12-2019 05:00:17 9 C 69 %
320 01-12-2019 05:10:17 9 C 69 %
321 01-12-2019 05:20:17 8.9 C 70 %
322 01-12-2019 05:30:17 9 C 69 %
323 01-12-2019 05:40:17 9 C 69 %
324 01-12-2019 05:50:17 9 C 69 %
325 01-12-2019 06:00:17 8.9 C 70 %
Sensor: Nr:Datum:Temp:Feuchte:
G-T/H 326 01-12-2019 06:10:17 8.9 C 70 %
327 01-12-2019 06:20:17 8.9 C 70 %
328 01-12-2019 06:30:17 8.9 C 70 %
329 01-12-2019 06:40:17 8.9 C 70 %
330 01-12-2019 06:50:17 8.9 C 70 %
331 01-12-2019 07:00:17 8.9 C 70 %
332 01-12-2019 07:10:17 8.9 C 70 %
333 01-12-2019 07:20:17 8.9 C 70 %
334 01-12-2019 07:30:17 8.9 C 70 %
335 01-12-2019 07:40:17 8.9 C 70 %
336 01-12-2019 07:50:17 8.9 C 70 %
337 01-12-2019 08:00:17 8.9 C 70 %
338 01-12-2019 08:10:17 8.8 C 70 %
339 01-12-2019 08:20:17 8.8 C 70 %
340 01-12-2019 08:30:17 8.8 C 70 %
341 01-12-2019 08:40:17 8.7 C 69 %
342 01-12-2019 08:50:17 8.7 C 69 %
343 01-12-2019 09:00:17 8.7 C 69 %
344 01-12-2019 09:10:17 8.7 C 69 %
345 01-12-2019 09:20:17 8.7 C 69 %
346 01-12-2019 09:30:17 8.8 C 69 %
347 01-12-2019 09:40:17 8.7 C 70 %
348 01-12-2019 09:50:17 8.7 C 70 %
349 01-12-2019 10:00:17 8.7 C 70 %
350 01-12-2019 10:10:17 8.7 C 70 %
Sensor: Nr:Datum:Temp:Feuchte:
G-T/H 351 01-12-2019 10:20:17 8.7 C 70 %
352 01-12-2019 10:30:17 8.7 C 70 %
353 01-12-2019 10:40:17 8.7 C 70 %
354 01-12-2019 10:50:17 8.7 C 70 %
355 01-12-2019 11:00:17 8.7 C 70 %
356 01-12-2019 11:10:17 8.7 C 70 %
357 01-12-2019 11:20:17 8.7 C 70 %
358 01-12-2019 11:30:17 8.7 C 70 %
359 01-12-2019 11:40:17 8.7 C 70 %
360 01-12-2019 11:50:17 8.7 C 70 %
361 01-12-2019 12:00:17 8.7 C 70 %
362 01-12-2019 12:10:17 8.7 C 70 %
363 01-12-2019 12:20:17 8.7 C 70 %
364 01-12-2019 12:30:18 8.7 C 70 %
365 01-12-2019 12:40:18 8.7 C 70 %
366 01-12-2019 12:50:18 8.7 C 70 %
367 01-12-2019 13:00:17 8.7 C 70 %
368 01-12-2019 13:10:17 8.7 C 70 %
369 01-12-2019 13:20:18 8.7 C 70 %
370 01-12-2019 13:30:18 8.7 C 70 %
371 01-12-2019 13:40:18 8.7 C 70 %
372 01-12-2019 13:50:17 8.7 C 70 %
373 01-12-2019 14:00:17 8.7 C 70 %
374 01-12-2019 14:10:18 8.7 C 70 %
375 01-12-2019 14:20:18 8.7 C 70 %
Sensor: Nr:Datum:Temp:Feuchte:
G-T/H 376 01-12-2019 14:30:17 8.7 C 70 %
377 01-12-2019 14:40:17 8.7 C 70 %
378 01-12-2019 14:50:17 8.7 C 70 %
379 01-12-2019 15:00:17 8.7 C 70 %
380 01-12-2019 15:10:17 8.7 C 71 %
381 01-12-2019 15:20:17 8.7 C 71 %
382 01-12-2019 15:30:17 8.7 C 71 %
383 01-12-2019 15:40:17 8.7 C 71 %
384 01-12-2019 15:50:17 8.7 C 71 %
385 01-12-2019 16:00:17 8.7 C 71 %
386 01-12-2019 16:10:17 8.7 C 71 %
387 01-12-2019 16:20:17 8.7 C 71 %
388 01-12-2019 16:30:18 8.7 C 71 %
389 01-12-2019 16:40:18 8.7 C 71 %
390 01-12-2019 16:50:18 8.7 C 71 %
391 01-12-2019 17:00:18 8.7 C 71 %
392 01-12-2019 17:10:18 8.7 C 71 %
393 01-12-2019 17:20:17 8.7 C 71 %
394 01-12-2019 17:30:17 8.7 C 71 %
395 01-12-2019 17:40:17 8.7 C 71 %
396 01-12-2019 17:50:17 8.7 C 71 %
397 01-12-2019 18:00:17 8.7 C 71 %
398 01-12-2019 18:10:17 8.7 C 71 %
399 01-12-2019 18:20:17 8.7 C 71 %
400 01-12-2019 18:30:17 8.7 C 71 %
Sensor: Nr:Datum:Temp:Feuchte:
G-T/H 401 01-12-2019 18:40:17 8.7 C 71 %
402 01-12-2019 18:50:17 8.7 C 71 %
403 01-12-2019 19:00:17 8.7 C 71 %
404 01-12-2019 19:10:18 8.7 C 71 %
405 01-12-2019 19:20:17 8.7 C 71 %
406 01-12-2019 19:30:17 8.7 C 71 %
407 01-12-2019 19:40:17 8.7 C 71 %
408 01-12-2019 19:50:17 8.7 C 71 %
409 01-12-2019 20:00:17 8.7 C 71 %
410 01-12-2019 20:10:17 8.7 C 71 %
411 01-12-2019 20:20:17 8.7 C 71 %
412 01-12-2019 20:30:18 8.7 C 71 %
413 01-12-2019 20:40:18 8.7 C 71 %
414 01-12-2019 20:50:17 8.7 C 71 %
415 01-12-2019 21:00:17 8.7 C 71 %
416 01-12-2019 21:10:17 8.8 C 71 %
417 01-12-2019 21:20:17 8.7 C 71 %
418 01-12-2019 21:30:18 8.7 C 71 %
419 01-12-2019 21:40:18 8.7 C 71 %
420 01-12-2019 21:50:17 8.7 C 71 %
421 01-12-2019 22:00:17 8.7 C 71 %
422 01-12-2019 22:10:17 8.7 C 71 %
423 01-12-2019 22:20:17 8.7 C 71 %
424 01-12-2019 22:30:18 8.7 C 71 %
425 01-12-2019 22:40:18 8.7 C 71 %
Sensor: Nr:Datum:Temp:Feuchte:
G-T/H 426 01-12-2019 22:50:17 8.7 C 71 %
427 01-12-2019 23:00:17 8.7 C 71 %
428 01-12-2019 23:10:17 8.7 C 71 %
429 01-12-2019 23:20:18 8.7 C 71 %
430 01-12-2019 23:30:17 8.7 C 71 %
431 01-12-2019 23:40:17 8.7 C 71 %
432 01-12-2019 23:50:17 8.7 C 71 %
433 02-12-2019 00:00:17 8.7 C 71 %
434 02-12-2019 00:10:17 8.7 C 71 %
435 02-12-2019 00:20:17 8.7 C 71 %
436 02-12-2019 00:30:17 8.7 C 71 %
437 02-12-2019 00:40:17 8.7 C 71 %
438 02-12-2019 00:50:18 8.7 C 71 %
439 02-12-2019 01:00:17 8.7 C 71 %
440 02-12-2019 01:10:17 8.7 C 71 %
441 02-12-2019 01:20:17 8.7 C 71 %
442 02-12-2019 01:30:17 8.6 C 71 %
443 02-12-2019 01:40:17 8.7 C 71 %
444 02-12-2019 01:50:17 8.6 C 70 %
445 02-12-2019 02:00:18 8.6 C 70 %
446 02-12-2019 02:10:18 8.6 C 70 %
447 02-12-2019 02:20:17 8.6 C 70 %
448 02-12-2019 02:30:17 8.6 C 70 %
449 02-12-2019 02:40:17 8.6 C 70 %
450 02-12-2019 02:50:17 8.6 C 70 %
Sensor: Nr:Datum:Temp:Feuchte:
G-T/H 451 02-12-2019 03:00:17 8.6 C 70 %
452 02-12-2019 03:10:17 8.5 C 70 %
453 02-12-2019 03:20:17 8.5 C 70 %
454 02-12-2019 03:30:18 8.5 C 70 %
455 02-12-2019 03:40:18 8.5 C 70 %
456 02-12-2019 03:50:17 8.5 C 70 %
457 02-12-2019 04:00:18 8.5 C 70 %
458 02-12-2019 04:10:18 8.5 C 70 %
459 02-12-2019 04:20:17 8.5 C 70 %
460 02-12-2019 04:30:17 8.5 C 70 %
461 02-12-2019 04:40:17 8.5 C 70 %
462 02-12-2019 04:50:17 8.5 C 70 %
463 02-12-2019 05:00:17 8.5 C 70 %
464 02-12-2019 05:10:17 8.4 C 70 %
465 02-12-2019 05:20:17 8.4 C 70 %
466 02-12-2019 05:30:17 8.4 C 70 %
467 02-12-2019 05:40:17 8.4 C 70 %
468 02-12-2019 05:50:17 8.4 C 70 %
469 02-12-2019 06:00:17 8.4 C 70 %
470 02-12-2019 06:10:17 8.4 C 70 %
471 02-12-2019 06:20:17 8.4 C 70 %
472 02-12-2019 06:30:17 8.4 C 70 %
473 02-12-2019 06:40:17 8.4 C 69 %
474 02-12-2019 06:50:17 8.3 C 69 %
475 02-12-2019 07:00:17 8.3 C 69 %
Sensor: Nr:Datum:Temp:Feuchte:
G-T/H 476 02-12-2019 07:10:17 8.3 C 69 %
477 02-12-2019 07:20:17 8.3 C 69 %
478 02-12-2019 07:30:17 8.3 C 69 %
479 02-12-2019 07:40:17 8.3 C 69 %
480 02-12-2019 07:50:17 8.3 C 69 %
481 02-12-2019 08:00:17 8.3 C 69 %
482 02-12-2019 08:10:18 8.2 C 69 %
483 02-12-2019 08:20:17 8.2 C 69 %
484 02-12-2019 08:30:17 8.2 C 69 %
485 02-12-2019 08:40:17 8.2 C 69 %
486 02-12-2019 08:50:17 8.2 C 69 %
487 02-12-2019 09:00:17 8.2 C 69 %
488 02-12-2019 09:10:17 8.2 C 69 %
489 02-12-2019 09:20:17 8.2 C 69 %
490 02-12-2019 09:30:17 8.2 C 69 %
491 02-12-2019 09:40:17 8.2 C 69 %
492 02-12-2019 09:50:17 8.2 C 69 %
493 02-12-2019 10:00:17 8.2 C 69 %
494 02-12-2019 10:10:17 8.2 C 69 %
495 02-12-2019 10:20:17 8.2 C 69 %
496 02-12-2019 10:30:17 8.2 C 69 %
497 02-12-2019 10:40:17 8.2 C 69 %
498 02-12-2019 10:50:17 8.2 C 69 %
499 02-12-2019 11:00:17 8.2 C 69 %
500 02-12-2019 11:10:17 8.2 C 70 %
Sensor: Nr:Datum:Temp:Feuchte:
G-T/H 501 02-12-2019 11:20:17 8.2 C 70 %
502 02-12-2019 11:30:17 8.2 C 70 %
503 02-12-2019 11:40:18 8.2 C 70 %
504 02-12-2019 11:50:17 8.2 C 70 %
505 02-12-2019 12:00:18 8.2 C 70 %
506 02-12-2019 12:10:18 8.1 C 70 %
507 02-12-2019 12:20:17 8.